[[{"header":{"parameterUnit":"m.s-1","parameterCategory":1,"la1":30.6,"la2":29.2853,"lo1":-89.7004,"lo2":-87.6739,"dy":0.0162,"dx":0.0183,"nx":112,"ny":82,"refTime":"2023-03-09T18:00:00:Z","depth":0,"parameterNumber":2,"parameterNumberName":"U-component_of_WINDS"},"data":[0.0,0.0,0.0,0.0,0.0,0.0,0.0,0.0,0.0,0.0,0.0,0.0,0.0,0.0,0.0,0.0,0.0,0.0,0.0,0.0,0.0,0.0,0.0,0.0,0.0,0.0,0.0,0.0,0.0,0.0,0.0,0.0,0.0,0.0,0.0,0.0,0.0,0.0,0.0,0.0,0.0,0.0,0.0,0.0,0.0,0.0,0.0,0.0,0.0,0.0,0.0,0.0,0.0,0.0,0.0,0.0,0.0,0.0,0.0,0.0,0.0,0.0,0.0,0.0,0.0,0.0,0.0,0.0,0.0,0.0,0.0,0.0,0.0,0.0,0.0,0.0,0.0,0.0,0.0,0.0,0.0,0.0,0.0,0.0,0.0,0.0,0.0,0.0,0.0,0.0,0.0,6.6914,6.6914,6.6914,6.6914,6.6914,6.6914,6.6914,0.0,0.0,0.0,0.0,0.0,0.0,0.0,0.0,0.0,0.0,0.0,0.0,0.0,0.0,0.0,0.0,0.0,0.0,0.0,0.0,0.0,0.0,0.0,0.0,0.0,0.0,0.0,0.0,0.0,0.0,0.0,0.0,0.0,0.0,0.0,0.0,0.0,0.0,0.0,0.0,0.0,0.0,0.0,0.0,0.0,0.0,0.0,0.0,0.0,0.0,0.0,0.0,0.0,0.0,0.0,0.0,0.0,0.0,0.0,0.0,0.0,0.0,0.0,0.0,0.0,0.0,0.0,0.0,0.0,0.0,0.0,0.0,0.0,0.0,0.0,0.0,0.0,0.0,0.0,0.0,0.0,0.0,0.0,0.0,0.0,0.0,0.0,0.0,0.0,0.0,0.0,0.0,0.0,0.0,0.0,0.0,0.0,0.0,0.0,0.0,0.0,0.0,0.0,0.0,6.6914,6.6914,6.6914,6.6914,6.6914,6.6914,6.6914,6.6914,0.0,0.0,0.0,0.0,0.0,0.0,0.0,0.0,0.0,0.0,0.0,0.0,0.0,0.0,0.0,0.0,0.0,0.0,0.0,0.0,0.0,0.0,0.0,0.0,0.0,0.0,0.0,0.0,0.0,0.0,0.0,0.0,0.0,0.0,0.0,0.0,0.0,0.0,0.0,0.0,0.0,0.0,0.0,0.0,0.0,0.0,0.0,0.0,0.0,0.0,0.0,0.0,0.0,0.0,0.0,0.0,0.0,0.0,0.0,0.0,0.0,0.0,0.0,0.0,0.0,0.0,0.0,0.0,0.0,0.0,0.0,0.0,0.0,0.0,0.0,0.0,0.0,0.0,0.0,0.0,0.0,0.0,0.0,0.0,0.0,0.0,0.0,0.0,0.0,0.0,0.0,0.0,0.0,0.0,0.0,0.0,0.0,0.0,0.0,0.0,0.0,0.0,0.0,6.691,6.6907,6.6914,6.6914,6.6914,6.6914,6.6914,6.6914,6.6914,6.6914,0.0,0.0,0.0,0.0,0.0,0.0,0.0,0.0,0.0,0.0,0.0,0.0,0.0,0.0,0.0,0.0,0.0,0.0,0.0,0.0,0.0,0.0,0.0,0.0,0.0,0.0,0.0,0.0,0.0,0.0,0.0,0.0,0.0,0.0,0.0,0.0,0.0,0.0,0.0,0.0,0.0,0.0,0.0,0.0,0.0,0.0,0.0,0.0,0.0,0.0,0.0,0.0,0.0,0.0,0.0,0.0,0.0,0.0,0.0,0.0,0.0,0.0,0.0,0.0,0.0,0.0,0.0,0.0,0.0,0.0,0.0,0.0,0.0,0.0,0.0,0.0,0.0,0.0,0.0,0.0,0.0,0.0,0.0,0.0,0.0,0.0,0.0,0.0,0.0,0.0,0.0,0.0,0.0,0.0,0.0,0.0,0.0,0.0,0.0,0.0,0.0,0.0,6.6899,6.6893,6.6911,6.6913,6.6913,6.6913,6.6913,6.6914,6.6914,6.6914,0.0,0.0,0.0,0.0,0.0,0.0,0.0,0.0,0.0,0.0,0.0,0.0,0.0,0.0,0.0,0.0,0.0,0.0,0.0,0.0,0.0,0.0,0.0,0.0,0.0,0.0,0.0,0.0,0.0,0.0,0.0,0.0,0.0,0.0,0.0,0.0,0.0,0.0,0.0,0.0,0.0,0.0,0.0,0.0,0.0,0.0,0.0,0.0,0.0,0.0,0.0,0.0,0.0,0.0,0.0,0.0,0.0,0.0,0.0,0.0,0.0,0.0,0.0,0.0,0.0,0.0,0.0,0.0,0.0,0.0,0.0,0.0,0.0,0.0,0.0,0.0,0.0,0.0,0.0,0.0,0.0,0.0,0.0,0.0,0.0,0.0,0.0,0.0,0.0,0.0,0.0,0.0,0.0,0.0,0.0,0.0,0.0,0.0,0.0,0.0,0.0,0.0,6.6894,6.6897,6.6882,6.6896,6.6905,6.6905,6.6905,6.6909,6.6914,6.6914,0.0,0.0,0.0,0.0,0.0,0.0,0.0,0.0,0.0,0.0,0.0,0.0,0.0,0.0,0.0,0.0,0.0,0.0,0.0,0.0,0.0,0.0,0.0,0.0,0.0,0.0,0.0,0.0,0.0,0.0,0.0,0.0,0.0,0.0,0.0,0.0,0.0,0.0,0.0,0.0,0.0,0.0,0.0,0.0,0.0,0.0,0.0,0.0,0.0,0.0,0.0,0.0,0.0,0.0,0.0,0.0,0.0,0.0,0.0,0.0,0.0,0.0,0.0,0.0,0.0,0.0,0.0,0.0,0.0,0.0,0.0,0.0,0.0,0.0,0.0,0.0,0.0,0.0,0.0,0.0,0.0,0.0,0.0,0.0,0.0,0.0,0.0,0.0,0.0,0.0,0.0,0.0,0.0,0.0,0.0,0.0,0.0,0.0,0.0,0.0,0.0,0.0,6.7608,6.7792,0.0,6.8243,6.8264,6.8175,6.8248,6.8335,6.8344,0.0,0.0,0.0,0.0,0.0,0.0,0.0,0.0,0.0,0.0,0.0,0.0,0.0,0.0,0.0,0.0,0.0,0.0,0.0,0.0,0.0,0.0,0.0,0.0,0.0,0.0,0.0,0.0,0.0,0.0,0.0,0.0,0.0,0.0,0.0,0.0,0.0,0.0,0.0,0.0,0.0,0.0,0.0,0.0,0.0,0.0,0.0,0.0,0.0,0.0,0.0,0.0,0.0,0.0,0.0,0.0,0.0,0.0,0.0,0.0,0.0,0.0,0.0,0.0,0.0,0.0,0.0,0.0,0.0,0.0,0.0,0.0,0.0,0.0,0.0,0.0,0.0,0.0,0.0,0.0,0.0,0.0,0.0,0.0,0.0,0.0,0.0,0.0,0.0,0.0,0.0,0.0,0.0,0.0,0.0,0.0,0.0,0.0,0.0,0.0,0.0,0.0,6.8261,6.8392,6.8563,0.0,6.911,6.9096,6.8987,6.9038,6.913,6.9216,0.0,0.0,0.0,0.0,0.0,0.0,0.0,0.0,0.0,0.0,0.0,0.0,0.0,0.0,0.0,0.0,0.0,0.0,0.0,0.0,0.0,0.0,0.0,0.0,0.0,0.0,0.0,0.0,0.0,0.0,0.0,0.0,0.0,0.0,0.0,0.0,0.0,0.0,0.0,0.0,0.0,0.0,0.0,0.0,0.0,0.0,0.0,0.0,0.0,0.0,0.0,0.0,0.0,0.0,0.0,0.0,0.0,0.0,0.0,0.0,0.0,0.0,0.0,0.0,0.0,0.0,0.0,0.0,0.0,0.0,0.0,0.0,0.0,0.0,0.0,0.0,0.0,0.0,0.0,0.0,0.0,0.0,0.0,0.0,0.0,0.0,0.0,0.0,0.0,0.0,0.0,0.0,0.0,0.0,0.0,0.0,0.0,0.0,0.0,0.0,0.0,0.0,6.9278,6.9223,6.9202,6.9401,6.926,6.9158,6.9156,6.9031,6.9035,0.0,0.0,0.0,0.0,0.0,0.0,0.0,0.0,0.0,0.0,0.0,0.0,0.0,0.0,0.0,0.0,0.0,0.0,0.0,0.0,0.0,0.0,0.0,0.0,0.0,0.0,0.0,0.0,0.0,0.0,0.0,0.0,0.0,0.0,0.0,0.0,0.0,0.0,0.0,0.0,0.0,0.0,0.0,0.0,0.0,0.0,0.0,0.0,0.0,0.0,0.0,0.0,0.0,0.0,0.0,0.0,0.0,0.0,0.0,0.0,0.0,0.0,0.0,0.0,0.0,0.0,0.0,0.0,0.0,0.0,0.0,0.0,0.0,0.0,0.0,0.0,0.0,0.0,0.0,0.0,0.0,0.0,0.0,0.0,0.0,0.0,0.0,0.0,0.0,0.0,0.0,0.0,0.0,0.0,0.0,0.0,0.0,0.0,0.0,0.0,0.0,0.0,0.0,0.0,7.0394,7.0884,7.1327,7.1956,7.2293,7.2208,7.175,7.172,7.2318,0.0,0.0,0.0,0.0,0.0,0.0,0.0,0.0,0.0,0.0,0.0,0.0,0.0,0.0,0.0,0.0,0.0,0.0,0.0,0.0,0.0,0.0,0.0,0.0,0.0,0.0,0.0,0.0,0.0,0.0,0.0,0.0,0.0,0.0,0.0,0.0,0.0,0.0,0.0,0.0,0.0,0.0,0.0,0.0,0.0,0.0,0.0,0.0,0.0,0.0,0.0,0.0,0.0,0.0,0.0,0.0,0.0,0.0,0.0,0.0,0.0,0.0,0.0,0.0,0.0,0.0,0.0,0.0,0.0,0.0,0.0,0.0,0.0,0.0,0.0,0.0,0.0,0.0,0.0,0.0,0.0,0.0,0.0,0.0,0.0,0.0,0.0,0.0,0.0,0.0,0.0,0.0,0.0,0.0,0.0,0.0,0.0,0.0,0.0,0.0,0.0,0.0,7.1564,7.2085,7.2486,7.2892,7.3376,7.3689,7.3572,7.3151,7.3125,7.3672,0.0,0.0,0.0,0.0,0.0,0.0,0.0,0.0,0.0,0.0,0.0,0.0,0.0,0.0,0.0,0.0,0.0,0.0,0.0,0.0,0.0,0.0,0.0,0.0,0.0,0.0,0.0,0.0,0.0,0.0,0.0,0.0,0.0,0.0,0.0,0.0,0.0,0.0,0.0,0.0,0.0,0.0,0.0,0.0,0.0,0.0,0.0,0.0,0.0,0.0,0.0,0.0,0.0,0.0,0.0,0.0,0.0,0.0,0.0,0.0,0.0,0.0,0.0,0.0,0.0,0.0,0.0,0.0,0.0,0.0,0.0,0.0,0.0,0.0,0.0,0.0,0.0,0.0,0.0,0.0,0.0,0.0,0.0,0.0,0.0,0.0,0.0,0.0,0.0,0.0,0.0,0.0,0.0,0.0,0.0,0.0,0.0,0.0,0.0,0.0,0.0,0.0,7.3764,7.3857,7.3872,7.4067,7.3955,7.3906,7.3906,7.3732,7.371,7.3889,0.0,0.0,0.0,0.0,0.0,0.0,0.0,0.0,0.0,0.0,0.0,0.0,0.0,0.0,0.0,0.0,0.0,0.0,0.0,0.0,0.0,0.0,0.0,0.0,0.0,0.0,0.0,0.0,0.0,0.0,0.0,0.0,0.0,0.0,0.0,0.0,0.0,0.0,0.0,0.0,0.0,0.0,0.0,0.0,0.0,0.0,0.0,0.0,0.0,0.0,0.0,0.0,0.0,0.0,0.0,0.0,0.0,0.0,0.0,0.0,5.9935,0.0,0.0,0.0,0.0,0.0,0.0,0.0,0.0,0.0,0.0,0.0,0.0,0.0,0.0,0.0,0.0,0.0,0.0,0.0,0.0,0.0,0.0,0.0,0.0,0.0,0.0,0.0,0.0,0.0,0.0,0.0,0.0,0.0,0.0,0.0,0.0,0.0,0.0,0.0,0.0,0.0,7.3706,7.4189,7.4507,7.4568,7.5137,7.5527,7.5527,7.4854,7.4745,7.5445,0.0,0.0,0.0,0.0,0.0,0.0,0.0,0.0,0.0,0.0,0.0,0.0,0.0,0.0,0.0,0.0,0.0,0.0,0.0,0.0,0.0,0.0,0.0,0.0,0.0,0.0,0.0,0.0,0.0,0.0,0.0,0.0,0.0,0.0,0.0,0.0,0.0,0.0,0.0,0.0,0.0,0.0,0.0,0.0,0.0,0.0,0.0,0.0,0.0,0.0,0.0,0.0,0.0,0.0,0.0,0.0,0.0,0.0,0.0,0.0,0.0,6.0858,0.0,0.0,0.0,0.0,0.0,0.0,0.0,0.0,0.0,0.0,0.0,0.0,0.0,0.0,0.0,0.0,0.0,0.0,0.0,0.0,0.0,0.0,0.0,0.0,0.0,0.0,0.0,0.0,0.0,0.0,0.0,0.0,0.0,0.0,0.0,0.0,0.0,0.0,0.0,0.0,7.4742,7.5103,7.5319,7.5319,7.5745,7.6015,7.6015,7.5588,7.5511,7.5976,7.5242,0.0,0.0,0.0,0.0,0.0,0.0,0.0,0.0,0.0,0.0,0.0,0.0,0.0,0.0,0.0,0.0,0.0,0.0,0.0,0.0,0.0,0.0,0.0,0.0,0.0,0.0,0.0,0.0,0.0,0.0,0.0,0.0,0.0,0.0,0.0,0.0,0.0,0.0,0.0,0.0,0.0,0.0,0.0,0.0,0.0,0.0,0.0,0.0,0.0,0.0,0.0,0.0,0.0,6.3237,6.3391,6.3545,6.3817,6.3666,6.3249,6.3894,6.2971,6.1133,0.0,0.0,0.0,0.0,0.0,0.0,0.0,0.0,0.0,0.0,0.0,0.0,0.0,0.0,0.0,0.0,0.0,0.0,0.0,0.0,0.0,0.0,0.0,0.0,0.0,6.9016,6.9168,0.0,0.0,0.0,0.0,0.0,0.0,0.0,0.0,0.0,0.0,0.0,0.0,7.5928,7.6015,7.6015,7.6015,7.6015,7.6015,7.6015,7.6015,7.6015,7.6015,7.6015,7.5694,0.0,0.0,0.0,0.0,0.0,0.0,0.0,0.0,0.0,0.0,0.0,0.0,0.0,0.0,0.0,0.0,0.0,0.0,0.0,0.0,0.0,0.0,0.0,0.0,0.0,0.0,0.0,0.0,0.0,0.0,0.0,0.0,6.2548,6.1826,0.0,0.0,0.0,0.0,0.0,0.0,0.0,0.0,0.0,0.0,0.0,0.0,0.0,6.3121,6.3121,6.2554,6.2249,6.2287,6.2971,6.3698,6.4471,6.5939,6.6936,6.7587,6.766,0.0,6.1903,6.1361,0.0,0.0,0.0,0.0,0.0,0.0,0.0,0.0,0.0,0.0,0.0,0.0,0.0,0.0,0.0,0.0,0.0,0.0,0.0,0.0,0.0,0.0,6.7564,7.0022,7.1156,7.1923,0.0,7.1243,7.0232,7.1716,7.2051,0.0,0.0,0.0,0.0,0.0,0.0,0.0,7.598,7.6015,7.6015,7.6015,7.6015,7.6015,7.6015,7.6015,7.6015,7.6015,7.6015,7.5941,7.5833,7.5984,0.0,0.0,0.0,0.0,0.0,0.0,0.0,0.0,0.0,0.0,0.0,0.0,0.0,0.0,0.0,0.0,0.0,0.0,0.0,0.0,0.0,0.0,0.0,0.0,0.0,0.0,0.0,0.0,0.0,6.1784,6.2323,6.1479,6.2207,6.2627,0.0,0.0,0.0,0.0,0.0,0.0,0.0,0.0,0.0,6.3515,6.432,6.4974,6.5436,6.5551,6.5628,6.5628,6.601,6.6353,6.6776,6.751,6.8048,6.8391,6.8391,6.7356,6.5628,6.5243,6.5016,6.4903,0.0,0.0,0.0,0.0,6.532,6.5551,6.5093,6.4903,0.0,6.532,0.0,0.0,0.0,0.0,0.0,0.0,0.0,0.0,0.0,0.0,7.0363,7.1972,7.2664,7.3168,7.4007,7.3331,7.2682,0.0,7.3382,7.38,7.4192,0.0,0.0,0.0,0.0,0.0,7.6015,7.6015,7.6015,7.6015,7.6015,7.6015,7.6015,7.6015,7.6015,7.6015,7.6015,7.6015,7.6015,7.6095,7.6015,0.0,0.0,0.0,0.0,0.0,0.0,0.0,0.0,0.0,0.0,0.0,0.0,0.0,0.0,0.0,0.0,0.0,0.0,0.0,0.0,0.0,0.0,0.0,0.0,0.0,0.0,0.0,0.0,6.1976,6.2749,6.19,6.2663,6.3314,0.0,0.0,0.0,0.0,0.0,0.0,6.3364,6.4166,6.4817,6.5243,6.609,6.6821,6.7439,6.8087,6.8507,6.8737,6.8737,6.8968,6.9356,6.9356,6.951,6.9699,6.9699,6.9699,6.9622,6.851,6.7705,6.7173,6.7821,6.8202,6.8391,6.8391,6.8545,6.8625,6.7975,6.7786,6.7786,6.8016,0.0,6.8209,6.8856,0.0,0.0,0.0,0.0,7.0206,7.1014,7.1863,7.2745,7.3584,7.3969,7.4318,7.4895,7.5011,7.4857,0.0,7.4626,7.5011,7.5011,0.0,0.0,0.0,0.0,7.6015,7.6015,7.6207,7.6322,7.6322,7.6518,7.6634,7.6634,7.6634,7.6553,7.6365,7.6322,7.6245,7.6015,7.6015,7.6057,7.6214,0.0,0.0,0.0,0.0,0.0,0.0,0.0,0.0,0.0,0.0,0.0,0.0,0.0,0.0,0.0,0.0,0.0,0.0,0.0,0.0,0.0,0.0,0.0,0.0,0.0,0.0,0.0,0.0,0.0,6.4512,6.3737,0.0,0.0,0.0,0.0,6.5516,6.5708,6.6054,6.6827,6.7664,6.7779,6.7016,6.7818,6.8276,6.8314,6.8391,6.8818,6.9625,6.9625,7.0475,7.2017,7.2017,7.2476,7.3238,7.3238,7.3238,7.293,6.8863,6.7135,6.7096,6.7135,6.7667,6.8391,6.8391,6.8933,6.9625,6.9587,6.9552,6.9702,7.0475,7.0706,7.0706,7.0744,7.0783,0.0,0.0,7.0821,7.1052,7.1902,7.2783,7.3623,7.443,7.528,7.5899,7.5938,7.5938,7.5938,0.0,7.5899,7.5938,7.5938,0.0,7.6015,7.6015,7.6015,7.6015,7.6015,7.6711,7.7211,7.7211,7.7907,7.8369,7.8369,7.8369,7.8057,7.7288,7.7211,7.6865,7.6015,7.6015,7.6015,7.6015,7.6172,0.0,0.0,0.0,0.0,0.0,0.0,0.0,0.0,0.0,0.0,0.0,0.0,0.0,0.0,0.0,0.0,0.0,0.0,0.0,0.0,0.0,0.0,0.0,0.0,0.0,0.0,0.0,0.0,6.5323,6.5631,0.0,6.6545,6.582,6.5689,6.6557,6.6641,6.6763,6.7018,6.8445,6.9318,6.9555,7.0402,7.1126,7.1661,7.1661,7.1853,7.2164,7.2164,7.2472,7.3049,7.3049,7.3203,7.3507,7.3507,7.3507,7.3392,7.1857,7.1203,7.1203,7.1203,7.1395,7.1661,7.1661,7.1892,7.2164,7.2164,7.2164,7.2199,7.2472,7.2587,7.2587,7.2587,7.2587,7.2587,7.2587,7.2934,7.3434,7.3745,7.4472,7.5165,7.5472,7.5784,7.6015,7.6015,7.6015,7.6169,7.6749,7.6361,7.6015,7.6015,7.648,7.6826,7.6826,7.7288,7.7596,7.7596,7.7865,7.8061,7.8061,7.833,7.8484,7.8484,7.8484,7.8369,7.8099,7.8061,7.7711,7.6865,7.6826,7.6557,7.6015,7.6057,7.6205,0.0,0.0,0.0,0.0,0.0,0.0,0.0,0.0,0.0,0.0,0.0,0.0,0.0,0.0,0.0,0.0,0.0,0.0,0.0,0.0,0.0,0.0,0.0,0.0,0.0,0.0,6.5433,6.6554,6.6939,6.7397,6.8278,6.7823,6.7726,6.8248,6.86,6.8876,6.9128,7.0225,7.1137,7.1706,7.2283,7.2874,7.3507,7.3507,7.3623,7.3892,7.3892,7.4049,7.4357,7.4357,7.4357,7.4357,7.4357,7.4357,7.4357,7.4357,7.4357,7.4318,7.4007,7.3892,7.393,7.4242,7.4357,7.4357,7.4357,7.4357,7.4357,7.4357,7.4357,7.4357,7.4357,7.4357,7.4357,7.4357,7.4742,7.5126,7.5126,7.5553,7.6015,7.6015,7.6207,7.6438,7.6438,7.6634,7.7019,7.7596,7.7019,7.6518,7.6788,7.7326,7.7711,7.7711,7.8176,7.8484,7.8484,7.875,7.8942,7.8942,7.9211,7.9365,7.9365,7.9365,7.925,7.8942,7.8942,7.8557,7.7753,7.7711,7.7442,7.6861,7.6595,7.6415,7.6366,0.0,0.0,0.0,0.0,0.0,0.0,0.0,0.0,0.0,0.0,0.0,0.0,0.0,0.0,0.0,0.0,0.0,0.0,0.0,0.0,0.0,0.0,0.0,6.5783,6.7243,6.8321,6.8356,6.7658,6.7505,6.8353,6.8433,6.9128,7.0745,7.1666,7.2469,7.3234,7.3273,7.3269,7.3352,7.3352,7.3428,7.358,7.358,7.3969,7.4742,7.4742,7.5165,7.6015,7.6015,7.6015,7.6015,7.6015,7.6015,7.6015,7.6015,7.6015,7.5938,7.5088,7.4742,7.4857,7.5707,7.6015,7.6015,7.6015,7.6015,7.6015,7.6015,7.6015,7.6015,7.6015,7.6015,7.6015,7.6015,7.6053,7.6053,7.6053,7.6092,7.6092,7.6092,7.6711,7.7326,7.7326,7.7946,7.8523,7.8561,7.7946,7.7634,7.8369,7.8561,7.86,7.86,7.8638,0.0,7.8677,7.94,7.9935,7.9935,8.0669,8.117,8.117,8.117,8.0823,7.9973,7.9896,7.9477,7.8638,7.8561,7.8523,7.8484,7.7753,7.7035,7.6363,0.0,0.0,0.0,0.0,0.0,0.0,0.0,0.0,0.0,0.0,0.0,0.0,0.0,0.0,0.0,0.0,0.0,0.0,0.0,0.0,0.0,0.0,6.8843,6.7536,6.7906,6.8723,6.9894,7.0339,7.0914,7.1762,7.1839,7.2008,7.2452,7.279,7.3035,7.3145,7.381,7.4194,7.4152,7.4727,7.5115,7.523,7.523,7.5375,7.5626,7.5626,7.5784,7.6015,7.6015,7.6015,7.6015,7.6015,7.6015,7.6015,7.6015,7.6015,7.5976,7.5745,7.5626,7.5668,7.5899,7.6015,7.6015,7.6015,7.6015,7.6015,7.6015,7.6015,7.6015,7.6015,7.6015,7.613,7.6749,7.6942,7.7096,7.7676,7.7826,7.7826,7.7826,7.7984,7.8176,7.8176,7.833,7.8869,8.0131,8.0212,7.9712,7.8677,7.9558,8.0404,8.0404,8.1404,0.0,8.2216,8.2404,8.2558,8.2558,8.2751,8.2905,8.2905,8.2905,8.2789,8.2558,8.1943,8.1246,8.04,7.9785,7.9131,7.8523,7.834,7.8208,0.0,0.0,0.0,0.0,0.0,0.0,0.0,0.0,0.0,0.0,0.0,0.0,0.0,0.0,0.0,0.0,0.0,0.0,0.0,0.0,0.0,0.0,7.0753,7.0875,7.0185,7.0214,7.0662,7.157,7.2137,7.2597,7.3099,7.3486,7.37,7.3651,7.4042,7.4246,7.4145,7.4698,7.5014,7.5002,7.5462,7.5771,7.5887,7.6202,7.6359,7.641,7.679,7.6943,7.6943,7.6943,7.6963,7.6997,7.6997,7.702,7.7057,7.7057,7.7057,0.0,0.0,0.0,0.0,0.0,7.6557,7.6595,7.6942,7.7057,7.7057,7.7057,7.7057,7.7057,7.7057,7.7057,7.7134,7.7676,7.7792,7.7907,7.8369,7.8484,7.86,7.8981,7.9327,7.9673,8.0019,8.0366,8.0946,8.1943,8.2135,0.0,8.0793,8.1481,8.2135,8.2135,8.2982,8.3601,8.3601,8.3601,8.3601,8.3601,8.3601,8.3601,8.3601,8.3601,0.0,0.0,0.0,8.2481,8.1631,8.1131,0.0,0.0,0.0,7.8949,7.8653,0.0,0.0,0.0,7.6249,7.5938,0.0,0.0,0.0,0.0,0.0,0.0,0.0,0.0,0.0,0.0,0.0,0.0,0.0,0.0,0.0,0.0,7.1979,7.2344,7.3183,7.3314,7.3321,7.3244,7.3321,7.3363,7.3363,7.4056,7.4519,7.4519,7.5174,7.5591,7.5583,0.0,0.0,0.0,0.0,7.5935,7.6167,7.6786,7.7137,7.7158,7.7955,7.8308,7.8316,7.8432,7.8511,7.8549,7.8664,7.875,7.8788,7.8788,7.8788,7.8638,7.6942,7.6284,7.6361,7.7134,7.7445,7.7557,7.8253,0.0,0.0,7.8484,7.8484,7.8484,7.8484,7.8561,7.8673,7.8754,7.8869,7.8946,7.9061,7.9061,7.925,8.005,8.0823,8.1593,8.2285,8.3135,8.3751,8.387,8.3943,8.4063,8.4178,8.402,8.3866,8.3866,8.4063,8.4178,8.4178,8.4178,8.4178,8.4178,0.0,0.0,8.4178,8.4178,8.4178,8.4178,8.3986,8.3443,8.2481,8.2443,8.1747,8.0242,8.0127,7.9708,7.8946,7.8754,7.8638,7.8634,7.7372,7.6796,0.0,0.0,0.0,0.0,0.0,0.0,0.0,0.0,0.0,0.0,0.0,0.0,0.0,0.0,0.0,7.2601,7.3297,7.4028,7.4898,7.5026,7.4767,7.407,7.4614,7.5034,7.5034,7.5191,7.5306,7.5306,7.5485,7.5566,7.5535,7.5557,7.5876,7.6475,7.6513,7.6896,7.7675,7.7811,7.7952,7.8125,0.0,0.0,7.8508,7.9196,7.9507,7.9561,8.0258,8.0577,8.0596,8.0596,8.0596,8.0442,7.8673,7.8023,7.8057,7.8215,7.8253,7.8292,7.8446,7.8484,7.8484,7.8484,7.8484,7.8484,7.8484,7.8981,0.0,8.04,8.1058,8.1712,8.2443,8.2601,8.2678,8.2828,8.2982,8.3174,8.3328,8.4016,8.4824,8.5478,8.617,8.6906,8.7598,8.6555,8.5632,8.5632,8.6829,8.7713,8.7713,8.7713,8.7713,8.7713,8.7713,8.7713,8.7713,8.7713,8.7713,8.7713,8.6405,8.4939,8.3409,8.337,8.3212,8.2866,8.217,8.1747,8.1558,8.0208,7.955,7.9512,7.8561,7.8144,0.0,0.0,0.0,0.0,0.0,0.0,0.0,0.0,0.0,0.0,0.0,7.1718,0.0,0.0,7.3093,7.3514,7.4316,7.5008,7.5433,7.5509,7.5356,7.4889,7.5237,7.5509,7.5509,7.5509,7.5509,7.5509,7.5888,7.6122,7.6083,7.6586,7.7033,7.7406,7.7406,7.7848,7.8734,7.9111,7.9554,8.0097,8.0523,8.0702,8.0754,8.1257,8.1534,8.1575,8.2089,8.2326,8.2366,8.2366,8.2366,8.2251,8.1404,8.0519,7.9865,8.025,8.0404,8.0442,8.0908,8.1062,8.1062,8.1062,8.1062,8.1062,8.1062,8.1366,8.1789,8.2212,8.2635,8.3058,8.3486,8.3905,8.4362,8.4751,8.5174,8.5636,8.6059,8.6482,8.6901,8.7325,8.7752,8.8175,8.8637,8.8325,8.7859,8.7478,8.8137,8.8718,8.8718,8.8718,8.8718,8.8718,8.8718,8.8718,8.8718,8.8718,8.8718,8.8718,8.7867,8.6829,8.5559,8.5093,8.467,8.4247,8.3405,8.2943,8.2943,8.2093,8.1708,8.1708,8.125,8.0139,0.0,0.0,0.0,0.0,0.0,0.0,0.0,0.0,7.2147,7.2868,7.2983,7.2983,7.2983,7.3667,7.4197,7.4197,7.4932,7.5509,7.5509,7.5509,7.5548,7.57,7.5586,7.5509,7.5509,7.5624,7.5739,7.5739,7.6498,7.6953,7.6953,7.7826,7.8406,7.8555,7.8746,7.9243,8.0081,8.0701,8.1361,8.2063,8.2717,8.3114,8.3324,8.3595,8.3826,8.4052,8.4327,8.4494,8.4534,8.4534,8.4585,8.4601,8.4601,8.3751,8.2554,8.2558,8.2558,8.2635,8.337,8.3601,8.3601,8.3601,8.3712,8.3866,8.3866,8.4063,8.4328,8.4328,8.4447,8.4601,8.4601,8.5093,8.5786,8.644,8.7132,8.7829,8.856,8.8829,8.8945,8.8945,8.906,8.9175,8.9175,8.971,8.9898,8.906,8.9098,8.9175,8.9175,8.9175,8.9175,8.9175,8.9175,8.9175,8.9175,8.9175,8.9098,8.8945,8.8945,8.856,8.7675,8.6978,8.6282,8.5666,8.479,8.4251,8.4097,8.3943,8.3751,8.3601,8.3601,8.2139,7.0416,7.1107,7.1803,7.1726,7.2299,7.2868,0.0,0.0,7.2868,7.2983,7.2983,7.2983,7.2983,7.3667,7.4197,7.4197,7.4932,7.5509,7.5509,7.5509,7.5777,7.6494,7.5925,7.5509,7.5509,7.6155,7.657,7.657,7.7373,7.7865,7.7865,7.8686,7.9497,8.0219,8.0979,8.1786,8.2593,8.2698,8.2813,8.305,8.3131,8.3594,8.4433,8.5175,8.5955,8.6727,8.7512,8.7879,8.7934,8.7934,8.8021,8.8141,8.8141,8.8025,8.7483,8.4524,8.3443,8.3486,8.3563,8.3601,8.3601,8.3601,8.4136,8.4743,8.4743,8.5786,8.6983,8.6983,8.7521,8.8141,8.8141,8.8214,8.8291,8.8406,8.8483,8.8564,8.8675,8.9248,8.9778,8.9778,9.0398,9.0902,9.0902,9.0975,9.0744,8.9893,9.0436,9.0902,9.0902,9.0902,9.0902,9.0902,9.0902,9.0902,9.0902,9.0902,9.059,8.9821,8.9778,8.9398,8.8598,8.8449,8.8367,8.8291,8.7406,8.6594,8.5824,8.5089,8.4362,8.3601,8.3601,8.3409,7.1901,7.2323,0.0,0.0,7.3437,7.3705,7.3705,7.3705,7.3858,7.4363,7.4439,7.4439,7.4439,7.4741,7.497,0.0,7.5658,7.6193,7.6193,7.6647,7.7067,7.7411,7.7144,7.6953,7.6953,7.7258,7.7449,7.7449,7.871,7.9436,7.9436,8.074,8.1623,8.1924,8.2307,8.3142,8.4441,8.4441,8.5001,8.6039,8.6039,8.625,8.6633,8.7035,8.7475,8.7931,8.8314,8.8527,8.8619,8.8619,8.8641,8.8718,8.8718,8.8718,8.8526,8.7102,8.6563,8.6563,8.6563,8.6563,8.6563,8.6563,8.679,8.7094,8.7094,8.7598,8.8175,8.8175,8.8406,8.8718,8.8718,8.9056,8.9402,8.9402,8.9787,9.0133,9.0133,9.0436,9.0667,9.0667,9.0936,9.1206,9.1206,9.1206,9.109,9.0705,9.0975,9.1206,9.1206,9.1206,9.1206,9.1206,9.1206,9.1206,9.1206,9.1206,9.1052,9.0667,9.0667,9.0513,9.0171,8.9671,8.9402,8.9402,8.8598,8.7983,8.7598,8.7286,8.6906,8.6563,8.6563,8.6563,7.2358,0.0,0.0,7.381,7.4276,7.4541,7.4541,7.4541,7.4736,7.5356,7.5509,7.5586,7.5777,7.5815,7.593,7.6155,7.6685,7.7067,7.7067,7.7598,7.8094,7.8328,7.8413,7.8618,7.9002,7.8713,7.8542,7.8701,8.013,8.0977,8.0977,8.2473,8.3307,8.3203,8.3585,8.4417,8.5698,8.573,8.6453,8.785,8.785,8.8072,8.842,8.8721,8.8955,8.9098,8.9098,8.9172,8.9328,8.9328,8.932,8.9406,8.9406,8.9406,8.9406,8.9406,8.9098,8.8718,8.8718,8.8718,8.8718,8.8718,8.8868,8.9021,8.9021,8.9214,8.9406,8.9406,8.9406,8.9406,8.9406,8.9825,9.0278,9.0278,9.0744,9.1206,9.1206,9.1206,9.1206,9.1206,9.1206,9.1206,9.1206,9.1206,9.1206,9.1206,9.1206,9.1206,9.1206,9.1206,9.1206,9.1206,9.1206,9.1206,9.1206,9.1206,9.1206,9.1206,9.1206,9.1206,9.1206,9.059,9.0278,9.0278,8.9671,8.9252,8.9021,8.9021,8.8906,8.8718,8.8718,8.8718,0.0,0.0,7.2508,7.3313,7.4495,7.5471,7.5471,7.5471,7.5471,7.5471,7.5509,7.5739,7.6537,7.6647,7.6953,7.7789,7.7941,7.7941,7.7941,7.798,7.8328,7.9178,7.9487,8.0188,0.0,8.0466,7.9856,8.0401,8.152,8.2134,8.2134,8.3486,8.4111,8.3774,8.512,8.5969,8.6264,8.6264,8.6585,8.7225,8.7225,8.7935,8.9289,9.0129,9.0517,9.0522,9.0522,9.0651,9.0843,9.0843,9.0962,9.1129,9.1129,9.1129,9.1129,9.1129,9.0094,8.8718,8.8718,8.8718,8.8718,8.8718,8.9248,8.9855,8.9855,9.0436,9.1129,9.1129,9.1129,9.1129,9.1129,9.1129,9.1167,9.1167,9.1167,9.1206,9.1206,9.1206,9.1206,9.1206,9.1206,9.1206,9.1206,9.1206,9.1206,9.1206,9.1206,9.1206,9.1206,9.1206,9.1206,9.1206,9.1206,9.1206,9.1206,9.1206,9.1206,9.1206,9.1206,9.1206,9.1206,9.1167,9.1167,9.1167,9.1129,9.0705,8.9855,8.9855,8.9475,8.8718,8.8718,8.8718,0.0,0.0,7.2768,7.3607,7.4185,7.4497,7.4497,7.4763,7.5118,7.5726,7.5635,7.5739,7.6537,7.6685,7.68,7.7105,7.8103,7.8868,7.8868,7.9818,8.0473,8.0369,8.1276,0.0,0.0,0.0,0.0,8.2125,8.2699,8.3254,8.3843,8.4486,8.5028,8.5435,8.631,8.6858,8.7087,8.7504,8.8356,8.9651,9.0063,9.0215,9.0168,9.0468,9.0624,9.0653,9.0653,9.0778,9.0911,9.0911,9.0953,9.1073,9.1073,9.1114,9.1206,9.1206,9.0825,9.0364,9.0364,9.0364,9.0364,9.0364,9.0552,9.0744,9.0744,9.0975,9.1206,9.1206,9.1206,9.1206,9.1206,9.1206,9.1206,9.1206,9.1206,9.1206,9.1206,9.1206,9.1206,9.1206,9.1206,9.1206,9.1206,9.1206,9.1206,9.1206,9.1206,9.1206,9.1206,9.1206,9.1206,9.1206,9.1206,9.1206,9.1206,9.1206,9.1206,9.1206,9.1206,9.1206,9.1206,9.1206,9.1206,9.1206,9.1206,9.1052,9.0744,9.0744,9.0629,9.0364,9.0364,9.0364,0.0,7.1832,7.2672,7.3513,7.41,7.4411,7.4411,7.4877,7.5469,7.6041,7.5868,7.5898,7.6737,7.6781,7.6914,7.753,7.8403,7.9276,8.0072,8.096,8.1474,8.1387,8.2239,8.2845,0.0,0.0,0.0,8.3581,8.3677,8.4054,8.4894,8.5321,8.5725,8.611,8.6988,8.7533,8.7742,8.8139,8.8832,8.9823,9.0454,9.0467,8.9962,8.9962,9.0101,9.0334,9.0334,9.0532,9.0814,9.0814,9.0877,9.0967,9.0967,9.1028,9.1114,9.1114,9.1179,9.1206,9.1206,9.1206,9.1206,9.1206,9.1206,9.1206,9.1206,9.1206,9.1206,9.1206,9.1206,9.1206,9.1206,9.1206,9.1206,9.1206,9.1206,9.1206,9.1206,9.1206,9.1206,9.1206,9.1206,9.1206,9.1206,9.1206,9.1206,9.1206,9.1206,9.1206,9.1206,9.1206,9.1206,9.1206,9.1206,9.1206,9.1206,9.1206,9.1206,9.1206,9.1206,9.1206,9.1206,9.1206,9.1206,9.1206,9.1206,9.1206,9.1206,9.1206,9.1206,9.1206,9.1206,9.1206,7.142,7.2014,7.2287,7.311,7.4263,7.5173,7.5173,7.5785,7.6366,7.6396,7.6157,7.6157,0.0,0.0,7.7301,7.8949,7.8919,7.94,8.148,8.141,8.1414,0.0,0.0,0.0,0.0,0.0,0.0,8.4782,0.0,8.4606,8.5401,8.6014,8.6199,8.5945,8.7266,8.8022,8.8215,8.825,8.8131,8.7898,8.8573,8.8876,8.8838,8.8873,8.9182,8.9745,8.9745,9.0123,9.0704,9.0704,9.0769,9.0911,9.0911,9.0934,9.0989,9.0989,9.1087,9.1206,9.1206,9.1206,9.1206,9.1206,9.1206,9.1206,9.1206,9.1206,9.1206,9.1206,9.1206,9.1206,9.1206,9.1206,9.1206,9.1206,9.1206,9.1206,9.1206,9.1206,9.1206,9.1206,9.1206,9.1206,9.1206,9.1206,9.1206,9.1206,9.1206,9.1206,9.1206,9.1206,9.1206,9.1206,9.1206,9.1206,9.1206,9.1206,9.1206,9.1206,9.1206,9.1206,9.1206,9.1206,9.1206,9.1206,9.1206,9.1206,9.1206,9.1206,9.1206,9.1206,9.1206,9.1206,7.1342,7.2348,7.3319,7.354,7.431,7.4999,7.4999,7.5443,7.5978,7.6397,7.6174,7.6098,0.0,0.0,0.0,7.8252,7.9806,0.0,8.1714,8.2388,0.0,0.0,0.0,8.4366,8.4105,8.4696,0.0,0.0,8.547,8.5445,8.6255,8.6616,8.7057,8.7563,8.8384,8.8593,8.8215,8.8704,8.8602,8.7935,8.9577,9.0045,8.9478,8.9944,9.0218,9.0373,9.0373,9.0454,9.0624,9.0624,9.0743,9.0911,9.0911,9.102,9.1132,9.1132,9.1183,9.1206,9.1206,9.1206,9.1206,9.1206,9.1206,9.1206,9.1206,9.1206,9.1206,9.1206,9.1206,9.1206,9.1206,9.1206,9.1206,9.1206,9.1206,9.1206,9.1206,9.1206,9.1206,9.1206,9.1206,9.1206,9.1206,9.1206,9.1206,9.1206,9.1206,9.1206,9.1206,9.1206,9.1206,9.1206,9.1206,9.1206,9.1206,9.1206,9.1206,9.1206,9.1206,9.1206,9.1206,9.1206,9.1206,9.1206,9.1206,9.1206,9.1206,9.1206,9.1206,9.1206,9.1206,9.1206,7.2268,7.3259,7.4221,7.4221,7.4837,7.5315,7.4977,7.5396,7.5919,7.6098,7.5853,0.0,0.0,0.0,0.0,0.0,0.0,0.0,8.2363,8.314,8.3533,0.0,8.4445,0.0,8.4912,8.5609,8.645,0.0,8.6561,8.645,8.7271,8.778,8.8087,8.8206,8.8852,8.8905,8.8215,8.8562,8.8473,8.789,8.8765,8.9076,8.8907,8.8975,8.9318,8.9799,0.0,9.0127,9.0583,9.0583,9.0656,9.0773,9.0773,9.0901,9.108,9.108,9.1134,9.1206,9.1206,9.1206,9.1206,9.1206,9.1206,9.1206,9.1206,9.1206,9.1206,9.1206,9.1206,9.1206,9.1206,9.1206,9.1206,9.1206,9.1206,9.1206,9.1206,9.1206,9.1206,9.1206,9.1513,9.1787,9.1787,9.2056,9.2287,9.2287,9.2287,9.2287,9.2287,9.1672,9.1206,9.1206,9.1206,9.1206,9.1206,9.1206,9.1206,9.1206,9.1206,9.1206,9.1206,9.1206,9.1206,9.1206,9.1206,9.1206,9.1206,9.1206,9.1206,9.1206,9.1206,9.1206,7.3641,7.4441,7.5058,7.5058,7.5645,7.6056,7.5234,7.5608,7.5993,7.5696,0.0,7.5254,7.5351,7.6197,7.7306,7.8564,0.0,8.0872,8.3227,8.3791,8.4039,8.4347,8.5006,8.5578,8.5916,8.6701,8.75,8.8316,8.772,8.7573,8.8169,8.8959,8.9033,8.8243,8.8895,8.8849,8.8059,8.8059,8.7964,8.7786,8.7348,8.7386,8.7867,8.7436,8.7826,8.8797,8.888,8.9503,9.0497,9.0561,9.0593,9.0609,9.0609,9.0732,9.0911,9.0925,9.1005,9.1188,9.1201,9.1206,9.1206,9.1206,9.1206,9.1206,9.1206,9.1206,9.1206,9.1206,9.1206,9.1206,9.1206,9.1206,9.1206,9.1206,9.1206,9.1244,9.1364,9.1475,9.1518,9.1518,9.2133,9.2672,9.2672,9.3253,9.3715,9.3715,9.3715,9.3715,9.3715,9.2441,9.1518,9.1518,9.1518,9.1518,9.1518,9.1518,9.1475,9.1359,9.1359,9.1321,9.1206,9.1206,9.1206,9.1206,9.1206,9.1206,9.1206,9.1206,9.1206,9.1206,9.1206,9.1206,7.447,7.5278,7.5909,7.5909,7.6489,7.6885,7.6093,7.6019,0.0,0.0,0.0,7.5468,7.6274,7.7163,7.8305,7.9887,0.0,0.0,0.0,0.0,8.4399,0.0,0.0,0.0,0.0,0.0,0.0,0.0,0.0,8.8748,8.8243,8.8959,8.9033,8.8243,8.8353,8.8023,8.7206,8.7206,8.7193,8.7175,8.7566,8.781,8.7906,8.8294,8.8593,8.8825,8.9337,0.0,8.9871,9.0389,9.064,9.0684,9.0684,9.0759,9.092,9.0967,9.1018,9.106,9.1141,9.1206,9.1206,9.1206,9.1206,9.1206,9.1206,9.1206,9.1206,9.1206,9.1206,9.1206,9.1206,9.1206,9.1206,9.1206,9.1206,9.1398,9.2133,9.2792,9.3253,9.3253,9.3407,9.3484,9.3484,9.3599,9.3715,9.3715,9.3715,9.3715,9.3715,9.3446,9.3253,9.3253,9.3253,9.3253,9.3253,9.3253,9.2984,9.2326,9.2287,9.1941,9.1244,9.1206,9.1206,9.1206,9.1206,9.1206,9.1206,9.1206,9.1206,9.1206,9.1206,9.1206,7.5315,7.6122,7.6702,7.6702,7.6995,7.6988,7.5755,0.0,0.0,0.0,0.0,7.5624,7.6799,7.7706,0.0,8.0103,8.115,8.2391,8.4196,0.0,0.0,0.0,0.0,0.0,0.0,0.0,0.0,0.0,0.0,8.9657,8.8858,8.8785,8.8601,8.8206,8.7802,8.739,8.6986,8.6986,8.7175,8.7468,8.7444,8.7615,8.789,8.7859,8.803,8.8331,8.8628,0.0,8.9726,9.0008,9.0596,9.1283,9.1283,9.1648,9.2219,9.2229,9.232,9.2416,9.2462,9.2518,9.2518,9.2518,9.1902,9.1206,9.1206,9.1206,9.1206,9.1206,9.1518,9.1864,9.1864,9.2172,9.2518,9.2518,9.2518,9.2633,9.3022,9.3446,9.3715,9.3715,9.4061,9.4373,9.4373,9.4754,9.5057,9.5057,9.5057,9.5057,9.5057,9.5057,9.4711,9.3792,9.3715,9.3715,9.3715,9.3715,9.3523,9.3138,9.3138,9.2941,9.2518,9.2518,9.2518,9.2518,9.2095,9.1864,9.1864,9.1441,9.1206,9.1206,9.1206,9.1206,7.6085,7.6812,7.7281,7.7281,7.7281,7.6885,7.527,7.5021,0.0,0.0,0.0,7.5984,7.7459,0.0,7.9091,0.0,8.1135,8.2245,8.4112,8.4979,8.5643,0.0,0.0,0.0,0.0,0.0,0.0,0.0,0.0,0.0,8.9188,8.8381,8.7949,8.7949,8.7316,8.6986,8.6986,8.6986,8.7231,8.7699,8.7223,8.7248,8.7691,8.7398,8.7522,8.7974,8.8265,0.0,0.0,9.0189,9.0962,9.2083,9.2083,9.2571,9.3338,9.3383,9.351,9.3656,9.3701,9.3715,9.3715,9.3715,9.2826,9.1744,9.1744,9.1744,9.1744,9.1744,9.221,9.2753,9.2753,9.3215,9.3715,9.3715,9.383,9.3984,9.3984,9.4138,9.4249,9.4249,9.4792,9.5297,9.5297,9.5865,9.6283,9.6283,9.6283,9.6283,9.6283,9.6283,9.5788,9.4403,9.4249,9.4249,9.4249,9.4249,9.4177,9.3984,9.3984,9.3907,9.3715,9.3715,9.3715,9.3715,9.3095,9.2753,9.2753,9.2056,9.1744,9.1744,9.1744,9.1744,7.6775,7.7244,7.7281,7.7281,7.7281,7.6885,7.527,0.0,0.0,0.0,0.0,7.6948,7.8795,0.0,0.0,0.0,0.0,8.2759,8.4675,8.5185,8.605,8.777,0.0,0.0,0.0,0.0,0.0,0.0,0.0,0.0,8.8316,8.7537,8.7096,8.7096,8.7023,8.6986,8.6986,8.6986,8.7021,8.7081,8.7012,8.7021,8.7118,8.7792,8.8131,8.8235,8.951,0.0,0.0,9.1727,9.2357,9.2962,9.2962,9.3049,9.313,9.3328,9.3413,9.3457,9.3651,9.3715,9.3715,9.3715,9.3599,9.3484,9.3484,9.3484,9.3484,9.3484,9.3523,9.3599,9.3599,9.3638,9.3715,9.3715,9.4292,9.4874,9.4874,9.548,9.6057,9.6057,9.6134,9.6172,9.6172,9.6245,9.6283,9.6283,9.6283,9.6283,9.6283,9.6283,9.6245,9.6091,9.6057,9.6057,9.6057,9.6057,9.5711,9.4912,9.4874,9.4523,9.3715,9.3715,9.3715,9.3715,9.3638,9.3599,9.3599,9.3523,9.3484,9.3484,9.3484,9.3484,7.6841,7.7281,7.7281,7.7281,7.7281,7.6995,7.5865,0.0,0.0,0.0,7.7247,7.8095,7.9307,7.9558,7.996,8.1351,8.1388,0.0,8.4212,8.4758,8.557,8.7278,8.8344,0.0,0.0,0.0,0.0,0.0,0.0,0.0,8.7463,8.717,8.6986,8.6986,8.6986,8.6986,8.6986,8.6986,8.7243,8.7729,8.7729,8.7977,8.8463,8.9186,8.9506,8.9584,9.0502,0.0,0.0,9.2096,9.2869,9.3874,9.3874,9.4223,9.4719,9.4808,9.4921,9.5051,9.5132,9.5198,9.5249,9.5249,9.5249,9.5057,9.4023,9.3715,9.3715,9.3715,9.4061,9.4484,9.4484,9.4869,9.5249,9.5249,9.5518,9.5788,9.5788,9.6057,9.6283,9.6283,9.6283,9.6283,9.6283,9.6283,9.6283,9.6283,9.6283,9.6283,9.6283,9.6283,9.6283,9.6283,9.6283,9.6283,9.6283,9.6283,9.6129,9.5788,9.5788,9.5634,9.5288,9.5249,9.5249,9.5249,9.4754,9.4484,9.4484,9.3946,9.3715,9.3715,9.3715,9.3715,7.6608,7.7105,7.7281,7.7281,7.7281,7.7105,0.0,0.0,0.0,7.7635,7.8306,7.909,7.9808,7.9943,8.0293,8.1365,8.1263,8.1819,8.4031,8.4633,8.546,8.7072,0.0,0.0,0.0,0.0,0.0,0.0,0.0,0.0,8.6986,8.6986,8.6986,8.6986,8.6986,8.7096,8.7353,8.7353,8.7757,8.8564,8.8564,8.8858,8.9417,9.0148,9.058,9.0807,9.1469,0.0,0.0,9.2949,9.3674,9.4752,9.4752,9.5151,9.5762,9.5794,9.5872,9.6009,9.6044,9.6102,9.616,9.616,9.6218,9.601,9.4785,9.4423,9.448,9.448,9.4907,9.5369,9.5369,9.5826,9.6283,9.6283,9.6283,9.6283,9.6283,9.6283,9.6283,9.6283,9.6283,9.6283,9.6283,9.6283,9.6283,9.6283,9.6283,9.6283,9.6283,9.6283,9.6283,9.6283,9.6283,9.6283,9.6283,9.6283,9.6283,9.6283,9.6283,9.6283,9.6283,9.6283,9.6283,9.6283,9.5715,9.5369,9.5369,9.4754,9.448,9.448,9.448,9.448,7.6037,7.6702,7.7281,7.7281,7.7281,7.7105,0.0,0.0,0.0,7.7748,7.8742,7.9842,8.0388,8.0501,8.0769,8.1638,8.2025,8.2771,8.4464,8.5109,8.6024,0.0,0.0,8.8528,0.0,0.0,0.0,0.0,0.0,0.0,8.6986,8.6986,8.6986,8.6986,8.6986,8.739,8.8169,8.8206,8.8601,8.94,8.94,8.94,8.9436,9.0225,9.0979,9.1629,0.0,0.0,0.0,9.4686,9.5037,9.5604,9.5604,9.5604,9.5615,9.5768,9.581,9.5826,9.587,9.591,9.591,9.591,9.5981,9.6102,9.6064,9.617,9.6283,9.6283,9.6283,9.6283,9.6283,9.6283,9.6283,9.6283,9.6283,9.6283,9.6283,9.6283,9.6283,9.6283,9.6283,9.6283,9.6283,9.6283,9.6283,9.6283,9.6283,9.6283,9.6283,9.6283,9.6283,9.6283,9.6283,9.6283,9.6283,9.6283,9.6283,9.6283,9.6283,9.6283,9.6283,9.6283,9.6283,9.6283,9.6283,9.6283,9.6283,9.6283,9.6283,9.6283,9.6283,9.6283,7.5938,7.6257,7.6219,7.6219,7.6895,7.7419,7.6783,0.0,0.0,7.9075,7.9706,8.0061,7.9511,8.001,8.0744,8.1425,8.1902,8.2673,8.396,0.0,0.0,8.7192,8.8291,8.8895,0.0,0.0,0.0,0.0,0.0,0.0,8.6986,8.6986,8.6986,8.6986,8.7537,8.7949,8.8206,8.8748,8.94,9.0216,9.0216,9.051,9.1051,9.1784,9.2215,0.0,0.0,0.0,9.4679,9.4679,9.5075,9.5604,9.5604,9.5604,9.5609,9.5643,9.5708,9.5816,9.5814,9.5877,9.591,9.591,9.5931,9.5956,9.5956,9.6112,9.6283,9.6283,9.6283,9.6283,9.6283,9.6283,9.6283,9.6283,9.6283,9.6283,9.6283,9.6283,9.6283,9.6283,9.6283,9.6283,9.6283,9.6283,9.6283,9.6283,9.6283,9.6514,9.7057,9.7129,9.7129,9.7129,9.7129,9.6899,9.636,9.6283,9.6283,9.6283,9.6283,9.6283,9.6283,9.6283,9.6283,9.6283,9.6283,9.6283,9.6283,9.6283,9.6283,9.6283,9.6283,9.6283,0.0,7.5837,7.5807,7.6323,7.708,0.0,0.0,0.0,0.0,7.9703,8.0139,8.0315,7.961,0.0,0.0,0.0,8.2093,8.2874,0.0,0.0,0.0,8.7366,0.0,0.0,0.0,0.0,0.0,0.0,0.0,0.0,8.6986,8.728,8.7463,8.7463,8.7949,8.85,8.9087,8.9592,9.0253,9.1069,9.1069,9.1326,9.1822,9.222,9.2572,0.0,0.0,9.3854,0.0,9.4679,9.5075,9.5604,9.5604,9.5604,9.5604,9.5604,9.5648,9.5708,9.5708,9.5756,9.5781,9.5781,9.5813,9.5898,9.5941,9.6068,9.6146,9.6218,9.6232,9.6236,9.6274,9.6283,9.6283,9.6283,9.6283,9.6283,9.6283,9.6283,9.6399,9.6706,9.6745,9.6865,9.7173,9.725,9.725,9.725,9.725,9.7403,9.7942,9.798,9.798,9.798,9.798,9.7788,9.7288,9.6668,9.6283,9.6283,9.6283,9.6283,9.6283,9.6283,9.6283,9.6283,9.6283,9.6283,9.6283,9.6283,9.6283,9.6283,9.6283,9.6283,0.0,0.0,0.0,0.0,0.0,0.0,0.0,0.0,0.0,0.0,0.0,0.0,0.0,0.0,0.0,0.0,0.0,0.0,0.0,8.6851,0.0,0.0,0.0,0.0,0.0,0.0,0.0,0.0,0.0,0.0,8.7096,8.7802,8.8243,8.8353,8.8353,8.9087,9.0583,9.0656,9.1069,9.1803,9.1803,9.1803,9.1803,9.1803,9.2152,0.0,0.0,9.3454,9.4621,9.4621,9.5006,9.5604,9.5604,9.5604,9.5604,9.5604,9.5604,9.5604,9.5604,9.5604,9.5604,9.5604,9.5675,9.5837,9.6004,9.5976,9.5941,9.6073,9.6107,9.6131,9.6251,9.6279,9.6322,9.636,9.6399,9.6399,9.6476,9.6476,9.6706,9.7442,9.7596,9.7865,9.8678,9.8793,9.8793,9.8793,9.8793,9.8832,9.887,9.8908,9.8908,9.8908,9.8908,9.887,9.8793,9.7365,9.6476,9.6476,9.6476,9.6476,9.6476,9.6476,9.6476,9.6476,9.6437,9.636,9.6283,9.6283,9.6283,9.6283,9.6283,9.6283,0.0,0.0,0.0,0.0,0.0,0.0,0.0,0.0,0.0,0.0,0.0,0.0,0.0,0.0,0.0,0.0,0.0,0.0,8.6162,0.0,0.0,0.0,0.0,0.0,0.0,0.0,0.0,0.0,0.0,8.728,8.7876,8.8096,8.8757,9.0005,9.0032,9.0216,9.0583,9.1216,9.162,9.1803,9.1803,9.1803,9.1803,9.1803,9.1903,0.0,9.2037,9.2757,9.394,9.394,9.4583,9.5604,9.5604,9.5604,9.5604,9.5604,9.5604,9.5604,9.5604,9.5604,9.5604,9.5604,9.5621,9.5653,9.5708,9.5887,9.6068,9.6093,9.6155,9.6241,9.6184,9.6227,9.6476,9.7053,9.7211,9.7403,9.8057,9.8211,9.825,9.8442,9.8485,9.8562,9.8755,9.8793,9.8793,9.8793,9.8793,9.9024,9.9716,9.9798,9.9798,9.9798,9.9798,9.9524,9.887,9.8447,9.8211,9.8211,9.8211,9.8211,9.8211,9.8211,9.8211,9.8211,9.7557,9.6903,9.6283,9.6283,9.6283,9.6283,9.6283,9.6283,7.5057,7.5193,7.5501,0.0,0.0,0.0,0.0,0.0,0.0,0.0,0.0,0.0,0.0,0.0,0.0,0.0,0.0,0.0,0.0,0.0,0.0,0.0,0.0,0.0,0.0,0.0,0.0,0.0,0.0,8.772,8.8169,8.8904,8.9711,9.0583,9.0959,9.1143,9.1143,9.1583,9.1803,9.1803,9.1803,9.1803,9.1803,9.1803,9.1803,0.0,9.1803,9.2357,9.3294,9.3597,9.4311,9.5213,9.5476,9.5604,9.5604,9.5604,9.5604,9.5604,9.5604,9.5604,9.5604,9.5604,9.5871,9.6183,9.6232,9.6652,9.6961,9.6206,9.6337,9.6732,9.6732,9.7097,9.7557,9.798,9.8096,9.8211,9.8716,9.8793,9.8908,9.9332,9.9409,9.9524,9.9865,9.9942,9.9942,9.9942,9.9942,10.0096,10.0596,10.0717,10.0717,10.0717,10.0717,10.0481,9.9981,9.9942,9.9635,9.887,9.8793,9.8793,9.8793,9.8793,9.8793,9.8793,9.8327,9.7865,9.7442,9.7442,9.7442,9.7442,9.7442,9.7442,7.4947,7.565,7.6751,7.7675,0.0,0.0,0.0,0.0,0.0,0.0,0.0,0.0,0.0,0.0,0.0,0.0,0.0,0.0,0.0,0.0,0.0,0.0,0.0,0.0,0.0,0.0,0.0,8.6986,8.7766,8.8243,8.839,8.9776,9.0656,9.0767,9.1436,9.1803,9.1803,9.1803,9.1803,9.1803,9.1803,9.1803,9.1803,9.1803,9.1803,9.1803,0.0,0.0,9.2835,9.334,9.3996,9.4769,9.5254,9.5613,9.5789,9.5789,9.5866,9.5981,9.5981,9.5981,9.5981,9.5981,9.6477,9.7105,9.7161,9.7692,9.7992,9.6654,9.681,9.7437,9.7621,9.8202,9.8789,9.8976,9.8971,9.9005,9.9135,9.9173,9.9409,10.0101,10.0293,10.0486,10.1207,10.1284,10.1284,10.1284,10.1284,10.1284,10.1284,10.1284,10.1284,10.1284,10.1284,10.1284,10.1284,10.1284,10.0707,9.9255,9.9173,9.9173,9.9173,9.9173,9.9139,9.8985,9.8985,9.8947,9.8793,9.8793,9.8793,9.8793,9.8793,9.8793,7.5401,7.7067,7.8566,7.7625,0.0,0.0,0.0,0.0,0.0,0.0,0.0,0.0,0.0,0.0,0.0,0.0,0.0,0.0,0.0,0.0,0.0,0.0,0.0,8.7133,8.7023,8.6986,8.6986,8.6986,8.7766,8.85,8.9179,9.0106,9.0922,9.1583,9.173,9.1803,9.1803,9.1803,9.1803,9.1803,9.1803,9.1803,9.1803,9.1803,9.1803,9.1803,0.0,9.2159,9.2794,9.2908,9.3642,9.473,9.4813,9.5616,9.6706,9.6706,9.7121,9.7732,9.7732,9.7732,9.7732,9.7732,9.7809,9.7923,9.7941,9.8023,9.8089,9.7987,9.8084,9.8239,9.8324,9.8401,9.8716,9.9673,9.9802,9.995,10.0687,10.0899,10.1015,10.1092,10.1092,10.1207,10.1284,10.1284,10.1284,10.1284,10.1284,10.1284,10.1284,10.1284,10.1284,10.1284,10.1284,10.1284,10.1284,10.1284,10.1207,10.0899,10.0899,10.0899,10.0899,10.0899,10.0596,9.9913,9.9913,9.9524,9.8793,9.8793,9.8793,9.8793,9.8793,9.8793,7.604,7.7339,7.8613,0.0,0.0,0.0,0.0,0.0,0.0,0.0,0.0,0.0,0.0,0.0,0.0,0.0,0.0,0.0,0.0,0.0,0.0,0.0,0.0,8.6986,8.6986,8.6986,8.717,8.761,8.8381,8.9188,8.9996,9.0803,9.1436,9.1803,9.1803,9.1803,9.1803,9.1803,9.1803,9.1803,9.1803,9.1803,9.1803,9.1803,9.1803,9.1803,0.0,9.2223,9.2974,9.3295,9.4273,9.5529,9.5874,9.6634,9.7541,9.7541,9.7771,9.8109,9.8109,9.8109,9.8109,9.8109,9.842,9.8808,9.8808,9.9114,9.9463,9.952,9.9321,9.9041,9.9144,9.9466,9.9953,10.0484,10.0507,10.0596,10.0988,10.1203,10.1205,10.1205,10.1288,10.1284,10.1284,10.1284,10.1284,10.1284,10.1284,10.1284,10.1284,10.1284,10.1284,10.1284,10.1284,10.1284,10.1284,10.1284,10.1284,10.1284,10.1284,10.1284,10.1284,10.1284,10.1092,10.0789,10.0712,10.0596,10.0212,10.0212,10.0212,10.0212,10.0212,10.0212,7.6494,7.7487,7.8555,0.0,0.0,0.0,0.0,0.0,0.0,0.0,0.0,0.0,0.0,0.0,0.0,0.0,0.0,0.0,0.0,0.0,0.0,0.0,0.0,0.0,8.6986,8.6986,8.7316,8.8133,8.8968,8.9767,9.0546,9.1363,9.1803,9.1803,9.1803,9.1803,9.1803,9.1803,9.1803,9.1803,9.1803,9.1803,9.1803,9.1803,9.1803,9.1812,9.2024,9.2464,9.3171,9.3792,9.4916,9.6246,9.671,9.7509,9.842,9.8611,9.8682,9.8682,9.8682,9.8682,9.8682,9.8682,9.9146,9.9693,9.9693,10.0107,10.0598,10.0598,10.0214,9.9862,9.9933,10.0404,10.0897,10.0995,10.0984,10.1011,10.1,10.1113,10.1219,10.1219,10.118,10.1288,10.1288,10.1308,10.1284,10.1284,10.1284,10.1284,10.1284,10.1284,10.1284,10.1284,10.1284,10.1284,10.1284,10.1284,10.1284,10.1284,10.1284,10.1284,10.1284,10.1284,10.1284,10.1284,10.1284,10.1284,10.1284,10.1284,10.1284,10.1284,10.1284,10.1284,7.6494,7.7912,7.9398,8.0244,0.0,0.0,0.0,0.0,0.0,0.0,0.0,0.0,0.0,0.0,0.0,0.0,0.0,0.0,0.0,0.0,0.0,0.0,0.0,8.6986,8.6986,8.6986,8.7316,8.8133,8.8968,8.9767,9.0546,9.1363,9.1803,9.1803,9.1803,9.1803,9.1803,9.1803,9.1803,9.1803,9.1803,9.1803,9.1803,9.1803,9.1803,9.184,9.2648,9.3042,9.3161,9.3961,9.5038,9.6201,9.6246,9.7522,9.9387,10.0101,10.0407,10.0407,10.0407,10.0407,10.0407,10.0407,10.0489,10.0483,10.0483,10.0604,10.0598,10.0598,10.061,10.0606,10.0693,10.0719,10.0685,10.0913,10.0881,10.0793,10.0984,10.1011,10.1016,10.1016,10.1111,10.1188,10.1188,10.1302,10.1284,10.1284,10.1284,10.1284,10.1284,10.1284,10.1284,10.1284,10.1284,10.1284,10.1284,10.1284,10.1284,10.1284,10.1284,10.1284,10.1284,10.1284,10.1284,10.1284,10.1284,10.1284,10.1284,10.1284,10.1284,10.1284,10.1284,10.1284,7.7144,7.8094,0.0,0.0,0.0,0.0,0.0,0.0,0.0,0.0,0.0,0.0,0.0,0.0,0.0,0.0,0.0,0.0,0.0,0.0,0.0,0.0,8.6986,8.6986,8.6986,8.7463,8.8087,8.8895,8.9702,9.051,9.1289,9.162,9.1803,9.1803,9.1803,9.1803,9.1803,9.1803,9.1803,9.1803,9.1803,9.1803,9.1803,9.1803,9.2097,9.2648,9.2978,9.3666,9.4658,9.5356,9.648,9.7817,9.863,9.9428,10.0183,10.0489,10.0598,10.0598,10.0598,10.0598,10.0598,10.0598,10.0598,10.0598,10.0598,10.0598,10.0598,10.0598,10.0598,10.061,10.07,10.0595,10.0818,10.1407,10.1505,10.1488,10.149,10.1602,10.1504,10.1012,10.0995,10.1095,10.1206,10.1208,10.1292,10.1313,10.1284,10.1284,10.1284,10.1284,10.1284,10.1284,10.1284,10.1284,10.1284,10.1284,10.1284,10.1284,10.1284,10.1284,10.1284,10.1284,10.1284,10.1284,10.1284,10.1284,10.1284,10.1284,10.1284,10.1284,10.1284,10.1284,7.7331,7.8006,0.0,0.0,0.0,0.0,0.0,0.0,0.0,0.0,0.0,0.0,0.0,0.0,0.0,0.0,0.0,0.0,8.8316,8.7986,8.761,8.706,8.6986,8.6986,8.6986,8.7729,8.8528,8.9326,9.0143,9.095,9.1767,9.1803,9.1803,9.1803,9.1803,9.1803,9.1803,9.1803,9.1803,9.1803,9.1803,9.1803,9.1812,9.206,9.2537,9.3125,9.3629,9.4474,9.5577,9.6519,9.7717,9.913,10.0183,10.0598,10.0598,10.0598,10.0598,10.0598,10.0598,10.0598,10.0598,10.0598,10.0598,10.0598,10.0598,10.0598,10.0718,10.0904,10.098,10.11,10.1286,10.1209,10.1209,10.2088,10.2088,10.1897,10.1897,10.1814,10.1495,10.0883,10.0787,10.1017,10.1097,10.1093,10.1198,10.1307,10.1303,10.1284,10.1284,10.1284,10.1284,10.1284,10.1284,10.1284,10.1284,10.1284,10.1284,10.1284,10.1284,10.1284,10.1284,10.1284,10.1284,10.1284,10.1284,10.1284,10.1284,10.1284,10.1284,10.1284,10.1284,10.1284,7.6903,7.7625,0.0,0.0,0.0,0.0,0.0,0.0,0.0,0.0,0.0,0.0,0.0,0.0,0.0,0.0,0.0,0.0,8.8316,8.75,8.6986,8.6986,8.6986,8.6986,8.6986,8.772,8.8528,8.9326,9.0143,9.0959,9.1767,9.1803,9.1803,9.1803,9.1803,9.1803,9.1803,9.1803,9.1803,9.1803,9.1803,9.1803,9.184,9.2721,9.3125,9.3198,9.4804,9.5511,9.5642,9.7101,9.85,9.9763,10.0407,10.0598,10.0598,10.0598,10.0598,10.0598,10.0598,10.0598,10.0598,10.0598,10.0598,10.0598,10.0598,10.0598,10.0795,10.1585,10.1897,10.2088,10.3017,10.2514,10.2088,10.3017,10.2514,10.1897,10.1897,10.1209,10.0598,10.0598,10.0702,10.0787,10.0787,10.0983,10.1216,10.1216,10.1297,10.1279,10.1284,10.1284,10.1284,10.1284,10.1284,10.1284,10.1284,10.1284,10.1284,10.1284,10.1284,10.1284,10.1284,10.1284,10.1284,10.1284,10.1284,10.1284,10.1284,10.1284,10.1284,10.1284,10.1284,10.1284,7.7493,0.0,0.0,0.0,0.0,0.0,0.0,0.0,0.0,0.0,0.0,0.0,0.0,0.0,0.0,0.0,0.0,0.0,8.7463,8.7133,8.6986,8.6986,8.6986,8.6986,8.6986,8.8225,8.9143,8.9363,9.0656,9.1546,9.1803,9.1803,9.1803,9.1803,9.1803,9.1803,9.1803,9.1803,9.1803,9.1803,9.1803,9.2134,9.2721,9.2978,9.3703,9.4804,9.5281,9.6087,9.7154,9.8558,9.9583,10.0395,10.0507,10.0598,10.0598,10.0598,10.0598,10.0598,10.0598,10.0598,10.0598,10.0598,10.0598,10.0598,10.0598,10.1018,10.14,10.1095,10.14,10.2012,10.2203,10.2088,10.2088,10.3017,10.2514,10.1897,10.1897,10.1706,10.1286,10.0713,10.0589,10.0685,10.0814,10.0886,10.0989,10.1191,10.1203,10.1205,10.1313,10.1284,10.1284,10.1284,10.1284,10.1284,10.1284,10.1284,10.1284,10.1284,10.1284,10.1284,10.1284,10.1284,10.1284,10.1284,10.1284,10.1284,10.1284,10.1284,10.1284,10.1284,10.1284,10.1284,7.827,0.0,0.0,0.0,0.0,0.0,0.0,0.0,0.0,0.0,0.0,0.0,0.0,0.0,0.0,0.0,0.0,0.0,8.7096,8.6986,8.6986,8.6986,8.6986,8.7133,8.7463,8.8629,8.9546,8.984,9.1069,9.1803,9.1803,9.1803,9.1803,9.1803,9.1803,9.1803,9.1803,9.1803,9.1803,9.1803,9.1803,9.2427,9.3565,9.3565,9.429,9.5538,9.5832,9.6767,9.8175,9.899,9.9817,10.0598,10.0598,10.0598,10.0598,10.0598,10.0598,10.0598,10.0598,10.0598,10.0598,10.0598,10.0598,10.0598,10.0598,10.0986,10.1286,10.1209,10.1515,10.2012,10.2317,10.2203,10.2088,10.3017,10.2514,10.1897,10.1897,10.1585,10.1209,10.0713,10.0598,10.0589,10.0702,10.0797,10.0919,10.0983,10.1116,10.1198,10.1297,10.1298,10.1284,10.1284,10.1284,10.1284,10.1284,10.1284,10.1284,10.1284,10.1284,10.1284,10.1284,10.1284,10.1284,10.1284,10.1284,10.1284,10.1284,10.1284,10.1284,10.1284,10.1284,10.1284,0.0,0.0,0.0,0.0,0.0,0.0,0.0,0.0,0.0,0.0,0.0,0.0,0.0,0.0,0.0,0.0,8.8601,8.7839,8.7096,8.6986,8.6986,8.6986,8.6986,8.7316,8.8133,8.8931,8.973,9.0546,9.1363,9.1803,9.1803,9.1803,9.1803,9.1803,9.1803,9.1803,9.1803,9.1803,9.1803,9.1803,9.1803,9.2684,9.4309,9.4309,9.4777,9.5648,9.6468,9.7533,9.8687,9.8786,9.9508,10.0598,10.0598,10.0598,10.0598,10.0598,10.0598,10.0598,10.0598,10.0598,10.0598,10.0598,10.0598,10.0598,10.0598,10.0718,10.0909,10.1591,10.1815,10.2088,10.2788,10.24,10.2012,10.2788,10.24,10.1782,10.1782,10.1209,10.0598,10.0598,10.0598,10.0598,10.0598,10.0696,10.0819,10.0803,10.0999,10.1183,10.1188,10.1307,10.1284,10.1284,10.1284,10.1284,10.1284,10.1284,10.1284,10.1284,10.1284,10.1284,10.1284,10.1284,10.1284,10.1284,10.1284,10.1284,10.1284,10.1284,10.1284,10.1284,10.1284,10.1284,0.0,8.0405,0.0,0.0,0.0,0.0,0.0,0.0,0.0,0.0,0.0,0.0,0.0,0.0,8.94,8.8601,8.7794,8.7206,8.7023,8.6986,8.6986,8.6986,8.6986,8.7316,8.8133,8.8931,8.973,9.0546,9.1363,9.1803,9.1803,9.1803,9.1803,9.1803,9.1803,9.1803,9.1803,9.1803,9.1803,9.1803,9.1803,9.2684,9.4309,9.4309,9.507,9.6467,9.7173,9.7942,9.8755,9.9268,9.9915,10.0598,10.0598,10.0598,10.0598,10.0598,10.0598,10.0598,10.0598,10.0598,10.0598,10.0598,10.0598,10.0598,10.0598,10.1095,10.1515,10.1018,10.14,10.1782,10.1292,10.098,10.0904,10.11,10.098,10.0909,10.0909,10.0713,10.0598,10.0598,10.0598,10.0598,10.0598,10.0583,10.0708,10.0902,10.109,10.1203,10.1283,10.1308,10.1284,10.1284,10.1284,10.1284,10.1284,10.1284,10.1284,10.1284,10.1284,10.1284,10.1284,10.1284,10.1284,10.1284,10.1284,10.1284,10.1284,10.1284,10.1284,10.1284,10.1284,10.1284,0.0,0.0,0.0,8.1849,0.0,0.0,0.0,0.0,0.0,0.0,0.0,0.0,8.94,8.94,8.9143,8.8316,8.75,8.6986,8.6986,8.6986,8.6986,8.6986,8.7353,8.7904,8.8711,8.9519,9.0326,9.1106,9.1546,9.1803,9.1803,9.1803,9.1803,9.1803,9.1803,9.1803,9.1803,9.1803,9.1803,9.1803,9.1803,9.2684,9.4345,9.5107,9.5914,9.6705,9.7064,9.7602,9.8252,9.8922,9.9614,10.0183,10.051,10.0598,10.0598,10.0598,10.0598,10.0598,10.0598,10.0598,10.0598,10.0598,10.0598,10.0598,10.0598,10.0904,10.1209,10.0713,10.0904,10.1209,10.0713,10.0598,10.0598,10.0598,10.0598,10.0598,10.0598,10.0598,10.0598,10.0598,10.0598,10.0598,10.0598,10.0598,10.0606,10.0814,10.0897,10.1015,10.108,10.118,10.1312,10.1317,10.1284,10.1284,10.1284,10.1284,10.1284,10.1284,10.1284,10.1284,10.1284,10.1284,10.1284,10.1284,10.1284,10.1284,10.1284,10.1284,10.1284,10.1284,10.1284,10.1284,0.0,0.0,8.0933,8.2103,8.3856,0.0,8.4881,8.6032,8.7573,8.8923,8.9179,8.9253,8.9363,8.929,8.8923,8.8133,8.7427,8.6986,8.6986,8.6986,8.706,8.7206,8.7802,8.8573,8.951,9.0216,9.0913,9.173,9.1803,9.1803,9.1803,9.1803,9.1803,9.1803,9.1803,9.1803,9.1803,9.1803,9.1803,9.1803,9.2097,9.295,9.4345,9.5951,9.6685,9.6685,9.6685,9.7073,9.7738,9.8405,9.9101,9.975,10.0407,10.0598,10.0598,10.0598,10.0598,10.0598,10.0598,10.0598,10.0598,10.0598,10.0598,10.0598,10.0598,10.0598,10.0598,10.0598,10.0598,10.0598,10.0598,10.0598,10.0598,10.0598,10.0598,10.0598,10.0598,10.0598,10.0598,10.0598,10.0598,10.0598,10.0598,10.0598,10.061,10.0589,10.0681,10.0793,10.0989,10.1106,10.1208,10.1288,10.1313,10.1284,10.1284,10.1284,10.1284,10.1284,10.1284,10.1284,10.1284,10.1284,10.1284,10.1284,10.1284,10.1284,10.1284,10.1284,10.1284,10.1284,10.1284,10.1284,0.0,0.0,8.1336,0.0,8.3978,8.4865,0.0,0.0,8.8096,0.0,8.8353,8.8564,8.9253,8.8821,8.8087,8.728,8.706,8.6986,8.6986,8.6986,8.7243,8.7949,8.8133,8.8793,9.0289,9.0546,9.0913,9.173,9.1803,9.1803,9.1803,9.1803,9.1803,9.1803,9.1803,9.1803,9.1803,9.1803,9.1803,9.1803,9.3281,9.4088,9.4345,9.5951,9.6685,9.6685,9.6685,9.7073,9.7738,9.8405,9.9101,9.975,10.0407,10.0598,10.0598,10.0598,10.0598,10.0598,10.0598,10.0598,10.0598,10.0598,10.0598,10.0598,10.0598,10.0598,10.0598,10.0598,10.0598,10.0598,10.0598,10.0598,10.0598,10.0598,10.0598,10.0598,10.0598,10.0598,10.0598,10.0598,10.0598,10.0598,10.0598,10.0598,10.06,10.0785,10.0819,10.0793,10.0989,10.1106,10.1183,10.1193,10.1312,10.1284,10.1284,10.1284,10.1284,10.1284,10.1284,10.1284,10.1284,10.1284,10.1284,10.1284,10.1284,10.1284,10.1284,10.1284,10.1284,10.1284,10.1284,10.1284,8.0586,8.0892,8.1371,0.0,8.4013,8.4792,8.5608,8.6701,8.7647,8.8096,8.7839,8.7757,8.8564,8.8426,8.7949,8.7133,8.6986,8.6986,8.6986,8.6986,8.7316,8.8096,8.8601,8.9335,9.0473,9.1023,9.1436,9.1767,9.1803,9.1803,9.1803,9.1803,9.1803,9.1803,9.1803,9.1803,9.1803,9.1803,9.1803,9.1803,9.3501,9.4309,9.4345,9.5951,9.6685,9.6685,9.6685,9.6858,9.7211,9.7857,9.8523,9.921,9.9843,10.0314,10.0598,10.0598,10.0598,10.0598,10.0598,10.0598,10.0598,10.0598,10.0598,10.0598,10.0598,10.0598,10.0598,10.0598,10.0598,10.0598,10.0598,10.0598,10.0598,10.0598,10.0598,10.0598,10.0598,10.0598,10.0598,10.0598,10.0598,10.0598,10.0598,10.0598,10.0621,10.0717,10.0685,10.0686,10.0891,10.0913,10.1011,10.1113,10.1216,10.12,10.12,10.1293,10.1284,10.1284,10.1284,10.1284,10.1284,10.1284,10.1284,10.1284,10.1284,10.1284,10.1284,10.1284,10.1284,10.1284,10.1284,10.1284,0.0,0.0,8.1122,8.2941,8.4013,8.4866,0.0,0.0,8.7427,0.0,8.7582,8.7427,8.7839,8.7912,8.7692,8.7096,8.6986,8.6986,8.6986,8.6986,8.7353,8.8381,8.9033,8.9803,9.0803,9.1436,9.1803,9.1803,9.1803,9.1803,9.1803,9.1803,9.1803,9.1803,9.1803,9.1803,9.1803,9.1803,9.1803,9.1803,9.3281,9.4088,9.4345,9.5768,9.6502,9.6685,9.6685,9.6685,9.6752,9.7407,9.8101,9.8786,9.9424,10.0114,10.0598,10.0598,10.0598,10.0598,10.0598,10.0598,10.0598,10.0598,10.0598,10.0598,10.0598,10.0598,10.0598,10.0598,10.0598,10.0598,10.0598,10.0598,10.0598,10.0598,10.0598,10.0598,10.0598,10.0598,10.0598,10.0598,10.0598,10.0598,10.0598,10.0598,10.0598,10.0598,10.0598,10.0595,10.0686,10.0808,10.0782,10.0913,10.1107,10.1185,10.1216,10.1205,10.1293,10.1279,10.1284,10.1284,10.1284,10.1284,10.1284,10.1284,10.1284,10.1284,10.1284,10.1284,10.1284,10.1284,10.1284,10.1284,0.0,7.9623,8.0432,8.2802,8.4013,8.5013,0.0,0.0,8.7949,8.7206,8.7655,8.7912,8.7206,8.706,8.706,8.7023,8.6986,8.6986,8.6986,8.6986,8.7565,8.9143,8.9363,9.0024,9.1583,9.1776,9.1803,9.1803,9.1803,9.1803,9.1803,9.1803,9.1803,9.1803,9.1803,9.1803,9.1803,9.1803,9.1803,9.1812,9.2721,9.3565,9.4345,9.5171,9.5978,9.6685,9.6685,9.6685,9.6752,9.7407,9.8101,9.8786,9.9424,10.0114,10.0598,10.0598,10.0598,10.0598,10.0598,10.0598,10.0598,10.0598,10.0598,10.0598,10.0598,10.0598,10.0598,10.0598,10.0598,10.0598,10.0598,10.0598,10.0598,10.0598,10.0598,10.0598,10.0598,10.0598,10.0598,10.0598,10.0598,10.0598,10.0598,10.0598,10.0598,10.0598,10.0598,10.0604,10.061,10.0713,10.0792,10.0798,10.0908,10.1102,10.1206,10.1183,10.1185,10.1317,10.1284,10.1284,10.1284,10.1284,10.1284,10.1284,10.1284,10.1284,10.1284,10.1284,10.1284,10.1284,10.1284,10.1284,0.0,7.9157,7.9625,8.2039,8.3242,8.4233,8.5857,8.6848,8.7353,8.706,8.7243,8.7353,8.706,8.6986,8.6986,8.6986,8.6986,8.6986,8.6986,8.6986,8.761,8.9216,8.94,9.0024,9.1657,9.1803,9.1803,9.1803,9.1803,9.1803,9.1803,9.1803,9.1803,9.1803,9.1803,9.1803,9.1803,9.1803,9.1803,9.1812,9.2684,9.3529,9.4345,9.5134,9.5942,9.6685,9.6685,9.6685,9.6705,9.6971,9.7434,9.8092,9.8309,9.8809,9.9396,9.9396,9.9638,9.9993,9.9993,10.0296,10.0598,10.0598,10.0598,10.0598,10.0598,10.0598,10.0598,10.0598,10.0598,10.0598,10.0598,10.0598,10.0598,10.0598,10.0598,10.0598,10.0598,10.0598,10.0598,10.0598,10.0598,10.0598,10.0598,10.0598,10.0598,10.0598,10.0598,10.0598,10.0598,10.06,10.0706,10.0706,10.0819,10.0902,10.1097,10.1213,10.1218,10.1317,10.1284,10.1284,10.1284,10.1284,10.1284,10.1284,10.1284,10.1284,10.1284,10.1284,10.1284,10.1284,10.1284,10.1284,7.8696,0.0,0.0,8.1269,8.2406,8.3508,8.5388,8.6224,8.6656,8.6949,8.6986,8.6986,8.6986,8.6986,8.6986,8.6986,8.6986,8.6986,8.6986,8.7243,8.7904,8.9253,8.9657,9.0326,9.1657,9.1803,9.1803,9.1803,9.1803,9.1803,9.1803,9.1803,9.1803,9.1803,9.1803,9.1803,9.1803,9.1803,9.1803,9.1812,9.2391,9.3088,9.3932,9.474,9.5538,9.6309,9.6575,9.6685,9.6685,9.6685,9.7092,9.7686,9.7686,9.8117,9.8748,9.8968,9.9311,9.9723,9.9909,10.0283,10.0598,10.0598,10.0598,10.0598,10.0598,10.0598,10.0598,10.0598,10.0598,10.0598,10.0598,10.0598,10.0598,10.0598,10.0598,10.0598,10.0598,10.0598,10.0598,10.0598,10.0598,10.0598,10.0598,10.0598,10.0598,10.0598,10.0598,10.0598,10.0598,10.0598,10.0598,10.0598,10.0717,10.0814,10.0897,10.1097,10.1206,10.1307,10.1303,10.1284,10.1284,10.1284,10.1284,10.1284,10.1284,10.1284,10.1284,10.1284,10.1284,10.1284,10.1284,10.1284,0.0,0.0,0.0,0.0,8.1599,8.2818,8.5205,8.5755,8.6012,8.6803,8.6986,8.6986,8.6986,8.6986,8.6986,8.6986,8.6986,8.6986,8.6986,8.7692,8.85,8.929,9.0097,9.0913,9.173,9.1803,9.1803,9.1803,9.1803,9.1803,9.1803,9.1803,9.1803,9.1803,9.1803,9.1803,9.1803,9.1803,9.1803,9.1803,9.1803,9.2244,9.3125,9.3896,9.4703,9.5501,9.6318,9.6649,9.6685,9.6685,9.7073,9.7689,9.7689,9.8076,9.8702,9.9382,9.9655,9.975,10.0407,10.0586,10.0598,10.0598,10.0598,10.0598,10.0598,10.0598,10.0598,10.0598,10.0598,10.0598,10.0598,10.0598,10.0598,10.0598,10.0598,10.0598,10.0598,10.0598,10.0598,10.0598,10.0598,10.0598,10.0598,10.0598,10.0598,10.0598,10.0598,10.0598,10.0598,10.0598,10.0598,10.0598,10.0598,10.0694,10.0819,10.0897,10.1092,10.1211,10.1302,10.1313,10.1284,10.1317,10.1317,10.1284,10.1284,10.1284,10.1284,10.1284,10.1284,10.1284,10.1284,10.1284,7.7465,0.0,0.0,0.0,0.0,0.0,8.3793,8.4976,8.5865,8.6086,8.6582,8.6986,8.6986,8.6986,8.6986,8.6986,8.6986,8.6986,8.6986,8.7692,8.85,8.929,9.0097,9.0913,9.173,9.1803,9.1803,9.1803,9.1803,9.1803,9.1803,9.1803,9.1803,9.1803,9.1803,9.1803,9.1803,9.1803,9.1803,9.1803,9.1803,9.2244,9.3125,9.3345,9.3859,9.4666,9.5465,9.5832,9.5868,9.6465,9.6819,9.6989,9.6989,9.7082,9.7328,9.8009,9.8547,9.9079,9.973,10.0214,10.0598,10.0598,10.0598,10.0598,10.0598,10.0598,10.0598,10.0598,10.0598,10.0598,10.0598,10.0598,10.0598,10.0598,10.0598,10.0598,10.0598,10.0598,10.0598,10.0598,10.0598,10.0598,10.0598,10.0598,10.0598,10.0598,10.0598,10.0598,10.0598,10.0598,10.0598,10.0598,10.0598,10.0694,10.0819,10.082,10.1006,10.1206,10.1088,10.1086,10.1317,10.1297,10.1292,10.1279,10.1284,10.1284,10.1284,10.1284,10.1284,10.1284,10.1284,10.1284,0.0,0.0,0.0,0.0,0.0,0.0,8.3573,8.4646,8.5498,8.6151,8.6656,8.6986,8.6986,8.6986,8.6986,8.6986,8.6986,8.6986,8.6986,8.7692,8.85,8.929,9.0097,9.0913,9.173,9.1803,9.1803,9.1803,9.1803,9.1803,9.1803,9.1803,9.1803,9.1803,9.1803,9.1803,9.1803,9.1803,9.1803,9.1803,9.1803,9.206,9.2574,9.2932,9.3345,9.3822,9.4666,9.5171,9.5538,9.6015,9.6392,9.6685,9.6685,9.6685,9.6781,9.7434,9.8134,9.8817,9.9452,10.0095,10.0598,10.0598,10.0598,10.0598,10.0598,10.0598,10.0598,10.0598,10.0598,10.0598,10.0598,10.0598,10.0598,10.0598,10.0598,10.0598,10.0598,10.0598,10.0598,10.0598,10.0598,10.0598,10.0598,10.0598,10.0598,10.0598,10.0598,10.0598,10.0598,10.0598,10.0598,10.0598,10.0598,10.0589,10.0702,10.0797,10.0886,10.0988,10.1016,10.1102,10.1188,10.1183,10.1183,10.1193,10.1317,10.1284,10.1284,10.1284,10.1284,10.1284,10.1284,10.1284,0.0,0.0,0.0,0.0,0.0,0.0,8.3838,8.4462,8.5013,8.6436,8.6876,8.6986,8.6986,8.6986,8.6986,8.6986,8.6986,8.6986,8.6986,8.7692,8.85,8.929,9.0097,9.0913,9.173,9.1803,9.1803,9.1803,9.1803,9.1803,9.1803,9.1803,9.1803,9.1803,9.1803,9.1803,9.1803,9.1803,9.1803,9.1803,9.1803,9.1803,9.184,9.2611,9.2978,9.3015,9.3896,9.4703,9.5391,9.5575,9.6052,9.6685,9.6685,9.6685,9.6781,9.7434,9.8084,9.8664,9.9346,10.0005,10.0515,10.0515,10.0513,10.0598,10.0598,10.0598,10.0598,10.0598,10.0598,10.0598,10.0598,10.0598,10.0598,10.0598,10.0598,10.0598,10.0598,10.0598,10.0598,10.0598,10.0598,10.0598,10.0598,10.0598,10.0598,10.0598,10.0598,10.0598,10.0598,10.0598,10.0598,10.0598,10.0598,10.0598,10.0598,10.0702,10.0814,10.0787,10.0913,10.1017,10.1005,10.1095,10.11,10.1005,10.1208,10.1313,10.1284,10.1284,10.1284,10.1284,10.1284,10.1284,0.0,0.0,0.0,0.0,0.0,0.0,8.2553,8.3654,8.4682,8.5013,8.6105,8.6986,8.6986,8.6986,8.6986,8.6986,8.6986,8.6986,8.6986,8.7692,8.85,8.929,9.0097,9.0913,9.173,9.1803,9.1803,9.1803,9.1803,9.1803,9.1803,9.1803,9.1803,9.1803,9.1803,9.1803,9.1803,9.1803,9.1803,9.1803,9.1803,9.1803,9.1812,9.1987,9.206,9.2134,9.3648,9.4382,9.463,9.5914,9.6575,9.6685,9.6685,9.6685,9.6781,9.7434,9.7772,9.7992,9.8648,9.9325,9.9894,9.9894,10.0189,10.0598,10.0598,10.0598,10.0598,10.0598,10.0598,10.0598,10.0598,10.0598,10.0598,10.0598,10.0598,10.0598,10.0598,10.0598,10.0598,10.0598,10.0598,10.0598,10.0598,10.0598,10.0598,10.0598,10.0598,10.0598,10.0598,10.0598,10.0598,10.0598,10.0598,10.0598,10.0598,10.0583,10.0679,10.0781,10.0713,10.0802,10.1,10.0897,10.0891,10.1005,10.1098,10.1205,10.1284,10.1284,10.1284,10.1284,10.1284,10.1284,0.0,0.0,0.0,8.1599,0.0,0.0,0.0,8.372,8.4719,8.5123,8.6151,8.6986,8.6986,8.6986,8.6986,8.6986,8.6986,8.6986,8.6986,8.7353,8.8051,8.9253,8.9767,9.0473,9.1693,9.1803,9.1803,9.1803,9.1803,9.1803,9.1803,9.1803,9.1803,9.1803,9.1803,9.1803,9.1803,9.1803,9.1803,9.1803,9.1803,9.1803,9.1803,9.1803,9.2024,9.2501,9.3345,9.4153,9.496,9.5758,9.6345,9.6685,9.6685,9.6685,9.6733,9.7073,9.739,9.7738,9.8092,9.8625,9.9203,9.9203,9.9611,10.0183,10.0183,10.0407,10.0598,10.0598,10.0598,10.0598,10.0598,10.0598,10.0598,10.0598,10.0598,10.0598,10.0598,10.0598,10.0598,10.0598,10.0598,10.0598,10.0598,10.0598,10.0598,10.0598,10.0598,10.0598,10.0598,10.0598,10.0598,10.0598,10.0598,10.0598,10.0598,10.0598,10.0589,10.069,10.0595,10.07,10.0787,10.0787,10.0886,10.1005,10.1005,10.0982,10.1206,10.1185,10.1317,10.1284,10.1284,10.1284,0.0,0.0,0.0,0.0,0.0,8.237,0.0,0.0,0.0,8.5425,8.6334,8.6986,8.6986,8.6986,8.6913,8.6582,8.6803,8.6876,8.6582,8.6803,8.7537,8.8996,8.9326,8.995,9.1436,9.1583,9.162,9.1803,9.1657,9.1657,9.1803,9.1803,9.1803,9.1803,9.1803,9.1803,9.1803,9.1803,9.1803,9.1803,9.1803,9.1803,9.1803,9.1803,9.2281,9.3125,9.3272,9.4143,9.5501,9.5685,9.6088,9.6685,9.6685,9.6685,9.6685,9.6685,9.7027,9.7505,9.7505,9.7942,9.8529,9.8529,9.9064,9.9716,9.9823,10.0196,10.0598,10.0598,10.0598,10.0598,10.0598,10.0598,10.0598,10.0598,10.0598,10.0598,10.0598,10.0598,10.0598,10.0598,10.0598,10.0598,10.0598,10.0598,10.0598,10.0598,10.0598,10.0598,10.0598,10.0598,10.0598,10.0598,10.0598,10.0598,10.0598,10.0598,10.0598,10.0598,10.0598,10.0598,10.0598,10.0702,10.0809,10.1006,10.0919,10.0886,10.1005,10.11,10.1198,10.1293,10.1313,10.1284,0.0,0.0,0.0,0.0,8.2194,0.0,0.0,0.0,8.4646,8.4719,0.0,8.6986,0.0,0.0,0.0,8.5114,8.6069,8.6509,8.5078,8.6105,8.7316,8.8243,8.8968,8.9767,9.0656,9.073,9.1033,9.1739,9.1143,9.1069,9.1767,9.1803,9.1803,9.1803,9.1803,9.1803,9.1803,9.1803,9.1803,9.1803,9.1803,9.1803,9.1803,9.1803,9.2281,9.3125,9.3859,9.4666,9.5575,9.6272,9.6612,9.6685,9.6685,9.6685,9.6685,9.6685,9.6743,9.6828,9.6828,9.7238,9.7806,9.7806,9.8664,9.979,10.0301,10.0513,10.0598,10.0598,10.0598,10.0598,10.0598,10.0598,10.0598,10.0598,10.0598,10.0598,10.0598,10.0598,10.0598,10.0598,10.0598,10.0598,10.0598,10.0598,10.0598,10.0598,10.0598,10.0598,10.0598,10.0598,10.0598,10.0598,10.0598,10.0598,10.0598,10.0598,10.0598,10.0598,10.0598,10.0598,10.0598,10.0615,10.0685,10.0803,10.0792,10.0886,10.1005,10.0983,10.1085,10.1193,10.1283,10.1284,0.0,0.0,0.0,0.0,0.0,0.0,0.0,0.0,8.5315,0.0,0.0,0.0,0.0,0.0,0.0,0.0,8.6546,8.6766,8.6105,8.6582,8.7316,8.8096,8.85,8.9188,9.0473,9.0583,9.0913,9.173,9.1069,9.095,9.1767,9.1803,9.1803,9.1803,9.1803,9.1803,9.1803,9.1803,9.1803,9.1803,9.1803,9.1803,9.1803,9.2317,9.3015,9.3822,9.4639,9.5447,9.6199,9.6575,9.6685,9.6685,9.6685,9.6685,9.6685,9.6685,9.6685,9.6685,9.6685,9.6867,9.7193,9.7575,9.8092,9.8733,9.9777,10.0082,10.0183,10.0483,10.0598,10.0598,10.0598,10.0598,10.0598,10.0598,10.0598,10.0598,10.0598,10.0598,10.0598,10.0598,10.0598,10.0598,10.0598,10.0598,10.0598,10.0598,10.0598,10.0598,10.0598,10.0598,10.0598,10.0598,10.0598,10.0598,10.0598,10.0598,10.0598,10.0598,10.0598,10.0598,10.0598,10.0598,10.0589,10.0717,10.0679,10.0708,10.0797,10.0793,10.0891,10.0984,10.1196,10.1307,8.3067,0.0,0.0,0.0,0.0,0.0,0.0,0.0,0.0,0.0,0.0,0.0,0.0,0.0,0.0,0.0,0.0,8.6839,8.6399,8.6729,8.7206,8.7802,8.8059,8.8757,9.0143,9.0069,9.0372,9.14,9.073,9.073,9.1739,9.1803,9.1803,9.1803,9.1803,9.1803,9.1803,9.1803,9.1803,9.1803,9.1803,9.1803,9.184,9.2721,9.3529,9.4345,9.5153,9.5961,9.6685,9.6685,9.6685,9.6685,9.6685,9.6685,9.6685,9.6685,9.6685,9.6685,9.6685,9.6685,9.6819,9.747,9.7686,9.795,9.9297,9.9696,9.9817,10.0385,10.0598,10.0598,10.0598,10.0598,10.0598,10.0598,10.0598,10.0598,10.0598,10.0598,10.0598,10.0598,10.0598,10.0598,10.0598,10.0598,10.0598,10.0598,10.0598,10.0598,10.0598,10.0598,10.0598,10.0598,10.0598,10.0598,10.0598,10.0598,10.0598,10.0598,10.0598,10.0598,10.0598,10.0598,10.0598,10.0598,10.0598,10.0598,10.0598,10.069,10.0797,10.0792,10.1113,10.1213,0.0,0.0,0.0,8.4535,0.0,0.0,0.0,0.0,8.5792,0.0,0.0,0.0,0.0,0.0,0.0,0.0,0.0,0.0,0.0,0.0,0.0,0.0,0.0,8.8528,8.9363,8.8711,8.894,9.051,8.9877,9.0143,9.173,9.1803,9.1803,9.1803,9.1803,9.1803,9.1803,9.1803,9.1803,9.1803,9.1803,9.1803,9.184,9.2721,9.3529,9.4345,9.5134,9.5942,9.6685,9.6685,9.6685,9.6685,9.6685,9.6685,9.6685,9.6685,9.6685,9.6685,9.6685,9.6685,9.6819,9.747,9.7686,9.795,9.9297,9.9696,9.9817,10.0385,10.0598,10.0598,10.0598,10.0598,10.0598,10.0598,10.0598,10.0598,10.0598,10.0598,10.0598,10.0598,10.0598,10.0598,10.0598,10.0598,10.0598,10.0598,10.0598,10.0598,10.0598,10.0598,10.0598,10.0598,10.0598,10.0598,10.0598,10.0598,10.0598,10.0598,10.0598,10.0598,10.0598,10.0598,10.0598,10.0598,10.0598,10.0598,10.0598,10.0604,10.0711,10.0792,10.1113,10.1216,0.0,0.0,8.5278,8.4719,0.0,0.0,0.0,0.0,0.0,0.0,0.0,0.0,0.0,0.0,0.0,0.0,0.0,0.0,0.0,0.0,0.0,0.0,0.0,0.0,0.0,8.8858,8.9445,9.051,9.0363,9.0656,9.173,9.1803,9.1803,9.1803,9.1803,9.1803,9.1803,9.1803,9.1803,9.1803,9.1803,9.2097,9.2684,9.3529,9.4336,9.5134,9.5942,9.6456,9.6685,9.6685,9.6685,9.6685,9.6685,9.6685,9.6685,9.6685,9.6685,9.6685,9.6685,9.6685,9.6733,9.6971,9.7027,9.722,9.808,9.8679,9.9181,9.9817,10.0308,10.0598,10.0598,10.0598,10.0598,10.0598,10.0598,10.0598,10.0598,10.0598,10.0598,10.0598,10.0598,10.0598,10.0598,10.0598,10.0598,10.0598,10.0598,10.0598,10.0598,10.0598,10.0598,10.0598,10.0598,10.0598,10.0598,10.0598,10.0598,10.0598,10.0598,10.0598,10.0598,10.0598,10.0598,10.0598,10.0598,10.0598,10.0598,10.0598,10.0583,10.0706,10.0913,10.0989,8.5445,8.582,0.0,8.56,8.6215,0.0,8.6334,0.0,0.0,0.0,0.0,0.0,0.0,0.0,0.0,0.0,0.0,0.0,0.0,8.6986,0.0,0.0,0.0,0.0,0.0,8.8418,8.8996,9.0106,9.0179,9.051,9.1326,9.1657,9.1803,9.1803,9.1803,9.1803,9.1803,9.1803,9.1803,9.1803,9.1803,9.2244,9.3125,9.3932,9.474,9.5538,9.6355,9.6685,9.6685,9.6685,9.6685,9.6685,9.6685,9.6685,9.6685,9.6685,9.6685,9.6685,9.6685,9.6685,9.6685,9.6685,9.6685,9.6838,9.7487,9.8009,9.8543,9.9499,9.998,10.029,10.0582,10.0691,10.0598,10.0598,10.0598,10.0598,10.0598,10.0598,10.0598,10.0598,10.0598,10.0598,10.0598,10.0598,10.0598,10.0598,10.0598,10.0598,10.0598,10.0598,10.0598,10.0598,10.0598,10.0598,10.0598,10.0598,10.0598,10.0598,10.0598,10.0598,10.0598,10.0598,10.0489,10.0183,10.0489,10.0489,10.0183,10.0489,10.0598,10.0604,10.0685,10.0802]},{"header":{"parameterUnit":"m.s-1","parameterCategory":1,"la1":30.6,"la2":29.2853,"lo1":-89.7004,"lo2":-87.6739,"dy":0.0162,"dx":0.0183,"nx":112,"ny":82,"refTime":"2023-03-09T18:00:00:Z","depth":0,"parameterNumber":3,"parameterNumberName":"V-component_of_WINDS"},"data":[0.0,0.0,0.0,0.0,0.0,0.0,0.0,0.0,0.0,0.0,0.0,0.0,0.0,0.0,0.0,0.0,0.0,0.0,0.0,0.0,0.0,0.0,0.0,0.0,0.0,0.0,0.0,0.0,0.0,0.0,0.0,0.0,0.0,0.0,0.0,0.0,0.0,0.0,0.0,0.0,0.0,0.0,0.0,0.0,0.0,0.0,0.0,0.0,0.0,0.0,0.0,0.0,0.0,0.0,0.0,0.0,0.0,0.0,0.0,0.0,0.0,0.0,0.0,0.0,0.0,0.0,0.0,0.0,0.0,0.0,0.0,0.0,0.0,0.0,0.0,0.0,0.0,0.0,0.0,0.0,0.0,0.0,0.0,0.0,0.0,0.0,0.0,0.0,0.0,0.0,0.0,0.0,0.0,0.0,0.0,0.0,0.0,0.0,0.0,0.0,0.0,0.0,0.0,0.0,0.0,0.0,0.0,0.0,0.0,0.0,0.0,0.0,0.0,0.0,0.0,0.0,0.0,0.0,0.0,0.0,0.0,0.0,0.0,0.0,0.0,0.0,0.0,0.0,0.0,0.0,0.0,0.0,0.0,0.0,0.0,0.0,0.0,0.0,0.0,0.0,0.0,0.0,0.0,0.0,0.0,0.0,0.0,0.0,0.0,0.0,0.0,0.0,0.0,0.0,0.0,0.0,0.0,0.0,0.0,0.0,0.0,0.0,0.0,0.0,0.0,0.0,0.0,0.0,0.0,0.0,0.0,0.0,0.0,0.0,0.0,0.0,0.0,0.0,0.0,0.0,0.0,0.0,0.0,0.0,0.0,0.0,0.0,0.0,0.0,0.0,0.0,0.0,0.0,0.0,0.0,0.0,0.0,0.0,0.0,0.0,0.0,0.0,0.0,0.0,0.0,0.0,0.0,0.0,0.0,0.0,0.0,0.0,0.0,0.0,0.0,0.0,0.0,0.0,0.0,0.0,0.0,0.0,0.0,0.0,0.0,0.0,0.0,0.0,0.0,0.0,0.0,0.0,0.0,0.0,0.0,0.0,0.0,0.0,0.0,0.0,0.0,0.0,0.0,0.0,0.0,0.0,0.0,0.0,0.0,0.0,0.0,0.0,0.0,0.0,0.0,0.0,0.0,0.0,0.0,0.0,0.0,0.0,0.0,0.0,0.0,0.0,0.0,0.0,0.0,0.0,0.0,0.0,0.0,0.0,0.0,0.0,0.0,0.0,0.0,0.0,0.0,0.0,0.0,0.0,0.0,0.0,0.0,0.0,0.0,0.0,0.0,0.0,0.0,0.0,0.0,0.0,0.0,0.0,0.0,0.0,0.0,0.0,0.0,0.0,0.0,0.0,0.0,0.0,0.0,0.0,0.0,0.0,0.0,0.073,0.0931,0.0091,0.0,0.0,0.0,0.0,0.0,0.0,0.0,0.0,0.0,0.0,0.0,0.0,0.0,0.0,0.0,0.0,0.0,0.0,0.0,0.0,0.0,0.0,0.0,0.0,0.0,0.0,0.0,0.0,0.0,0.0,0.0,0.0,0.0,0.0,0.0,0.0,0.0,0.0,0.0,0.0,0.0,0.0,0.0,0.0,0.0,0.0,0.0,0.0,0.0,0.0,0.0,0.0,0.0,0.0,0.0,0.0,0.0,0.0,0.0,0.0,0.0,0.0,0.0,0.0,0.0,0.0,0.0,0.0,0.0,0.0,0.0,0.0,0.0,0.0,0.0,0.0,0.0,0.0,0.0,0.0,0.0,0.0,0.0,0.0,0.0,0.0,0.0,0.0,0.0,0.0,0.0,0.0,0.0,0.0,0.0,0.0,0.0,0.0,0.0,0.0,0.0,0.0,0.0,0.0,0.0,0.0,0.0,0.0,0.0,0.1423,0.166,0.0657,0.0383,0.0292,0.0292,0.0292,0.0201,0.0018,0.0,0.0,0.0,0.0,0.0,0.0,0.0,0.0,0.0,0.0,0.0,0.0,0.0,0.0,0.0,0.0,0.0,0.0,0.0,0.0,0.0,0.0,0.0,0.0,0.0,0.0,0.0,0.0,0.0,0.0,0.0,0.0,0.0,0.0,0.0,0.0,0.0,0.0,0.0,0.0,0.0,0.0,0.0,0.0,0.0,0.0,0.0,0.0,0.0,0.0,0.0,0.0,0.0,0.0,0.0,0.0,0.0,0.0,0.0,0.0,0.0,0.0,0.0,0.0,0.0,0.0,0.0,0.0,0.0,0.0,0.0,0.0,0.0,0.0,0.0,0.0,0.0,0.0,0.0,0.0,0.0,0.0,0.0,0.0,0.0,0.0,0.0,0.0,0.0,0.0,0.0,0.0,0.0,0.0,0.0,0.0,0.0,0.0,0.0,0.0,0.0,0.0,0.0,0.1642,0.1496,0.208,0.1533,0.1113,0.1113,0.1113,0.0803,0.0055,0.0,0.0,0.0,0.0,0.0,0.0,0.0,0.0,0.0,0.0,0.0,0.0,0.0,0.0,0.0,0.0,0.0,0.0,0.0,0.0,0.0,0.0,0.0,0.0,0.0,0.0,0.0,0.0,0.0,0.0,0.0,0.0,0.0,0.0,0.0,0.0,0.0,0.0,0.0,0.0,0.0,0.0,0.0,0.0,0.0,0.0,0.0,0.0,0.0,0.0,0.0,0.0,0.0,0.0,0.0,0.0,0.0,0.0,0.0,0.0,0.0,0.0,0.0,0.0,0.0,0.0,0.0,0.0,0.0,0.0,0.0,0.0,0.0,0.0,0.0,0.0,0.0,0.0,0.0,0.0,0.0,0.0,0.0,0.0,0.0,0.0,0.0,0.0,0.0,0.0,0.0,0.0,0.0,0.0,0.0,0.0,0.0,0.0,0.0,0.0,0.0,0.0,0.0,0.4728,0.2849,0.0,0.4604,0.4287,0.501,0.3148,0.1808,0.1454,0.0,0.0,0.0,0.0,0.0,0.0,0.0,0.0,0.0,0.0,0.0,0.0,0.0,0.0,0.0,0.0,0.0,0.0,0.0,0.0,0.0,0.0,0.0,0.0,0.0,0.0,0.0,0.0,0.0,0.0,0.0,0.0,0.0,0.0,0.0,0.0,0.0,0.0,0.0,0.0,0.0,0.0,0.0,0.0,0.0,0.0,0.0,0.0,0.0,0.0,0.0,0.0,0.0,0.0,0.0,0.0,0.0,0.0,0.0,0.0,0.0,0.0,0.0,0.0,0.0,0.0,0.0,0.0,0.0,0.0,0.0,0.0,0.0,0.0,0.0,0.0,0.0,0.0,0.0,0.0,0.0,0.0,0.0,0.0,0.0,0.0,0.0,0.0,0.0,0.0,0.0,0.0,0.0,0.0,0.0,0.0,0.0,0.0,0.0,0.0,0.0,0.0,0.8816,0.5739,0.3856,0.0,0.5591,0.576,0.6548,0.4998,0.351,0.2398,0.0,0.0,0.0,0.0,0.0,0.0,0.0,0.0,0.0,0.0,0.0,0.0,0.0,0.0,0.0,0.0,0.0,0.0,0.0,0.0,0.0,0.0,0.0,0.0,0.0,0.0,0.0,0.0,0.0,0.0,0.0,0.0,0.0,0.0,0.0,0.0,0.0,0.0,0.0,0.0,0.0,0.0,0.0,0.0,0.0,0.0,0.0,0.0,0.0,0.0,0.0,0.0,0.0,0.0,0.0,0.0,0.0,0.0,0.0,0.0,0.0,0.0,0.0,0.0,0.0,0.0,0.0,0.0,0.0,0.0,0.0,0.0,0.0,0.0,0.0,0.0,0.0,0.0,0.0,0.0,0.0,0.0,0.0,0.0,0.0,0.0,0.0,0.0,0.0,0.0,0.0,0.0,0.0,0.0,0.0,0.0,0.0,0.0,0.0,0.0,0.0,0.0,0.2835,0.395,0.4308,0.2689,0.399,0.4969,0.4988,0.6495,0.6021,0.0,0.0,0.0,0.0,0.0,0.0,0.0,0.0,0.0,0.0,0.0,0.0,0.0,0.0,0.0,0.0,0.0,0.0,0.0,0.0,0.0,0.0,0.0,0.0,0.0,0.0,0.0,0.0,0.0,0.0,0.0,0.0,0.0,0.0,0.0,0.0,0.0,0.0,0.0,0.0,0.0,0.0,0.0,0.0,0.0,0.0,0.0,0.0,0.0,0.0,0.0,0.0,0.0,0.0,0.0,0.0,0.0,0.0,0.0,0.0,0.0,0.0,0.0,0.0,0.0,0.0,0.0,0.0,0.0,0.0,0.0,0.0,0.0,0.0,0.0,0.0,0.0,0.0,0.0,0.0,0.0,0.0,0.0,0.0,0.0,0.0,0.0,0.0,0.0,0.0,0.0,0.0,0.0,0.0,0.0,0.0,0.0,0.0,0.0,0.0,0.0,0.0,0.0,0.0,0.7011,0.7587,0.947,0.9174,0.9317,1.051,0.9844,0.9482,0.9722,0.0,0.0,0.0,0.0,0.0,0.0,0.0,0.0,0.0,0.0,0.0,0.0,0.0,0.0,0.0,0.0,0.0,0.0,0.0,0.0,0.0,0.0,0.0,0.0,0.0,0.0,0.0,0.0,0.0,0.0,0.0,0.0,0.0,0.0,0.0,0.0,0.0,0.0,0.0,0.0,0.0,0.0,0.0,0.0,0.0,0.0,0.0,0.0,0.0,0.0,0.0,0.0,0.0,0.0,0.0,0.0,0.0,0.0,0.0,0.0,0.0,0.0,0.0,0.0,0.0,0.0,0.0,0.0,0.0,0.0,0.0,0.0,0.0,0.0,0.0,0.0,0.0,0.0,0.0,0.0,0.0,0.0,0.0,0.0,0.0,0.0,0.0,0.0,0.0,0.0,0.0,0.0,0.0,0.0,0.0,0.0,0.0,0.0,0.0,0.0,0.0,0.0,0.8529,0.8771,0.9342,1.0691,1.0619,1.091,1.192,1.1586,1.1745,1.2742,0.0,0.0,0.0,0.0,0.0,0.0,0.0,0.0,0.0,0.0,0.0,0.0,0.0,0.0,0.0,0.0,0.0,0.0,0.0,0.0,0.0,0.0,0.0,0.0,0.0,0.0,0.0,0.0,0.0,0.0,0.0,0.0,0.0,0.0,0.0,0.0,0.0,0.0,0.0,0.0,0.0,0.0,0.0,0.0,0.0,0.0,0.0,0.0,0.0,0.0,0.0,0.0,0.0,0.0,0.0,0.0,0.0,0.0,0.0,0.0,0.0,0.0,0.0,0.0,0.0,0.0,0.0,0.0,0.0,0.0,0.0,0.0,0.0,0.0,0.0,0.0,0.0,0.0,0.0,0.0,0.0,0.0,0.0,0.0,0.0,0.0,0.0,0.0,0.0,0.0,0.0,0.0,0.0,0.0,0.0,0.0,0.0,0.0,0.0,0.0,0.0,0.0,0.8201,0.9703,1.0177,0.8644,0.9859,1.0778,1.0778,1.2152,1.2976,1.2862,0.0,0.0,0.0,0.0,0.0,0.0,0.0,0.0,0.0,0.0,0.0,0.0,0.0,0.0,0.0,0.0,0.0,0.0,0.0,0.0,0.0,0.0,0.0,0.0,0.0,0.0,0.0,0.0,0.0,0.0,0.0,0.0,0.0,0.0,0.0,0.0,0.0,0.0,0.0,0.0,0.0,0.0,0.0,0.0,0.0,0.0,0.0,0.0,0.0,0.0,0.0,0.0,0.0,0.0,0.0,0.0,0.0,0.0,0.0,0.0,1.0568,0.0,0.0,0.0,0.0,0.0,0.0,0.0,0.0,0.0,0.0,0.0,0.0,0.0,0.0,0.0,0.0,0.0,0.0,0.0,0.0,0.0,0.0,0.0,0.0,0.0,0.0,0.0,0.0,0.0,0.0,0.0,0.0,0.0,0.0,0.0,0.0,0.0,0.0,0.0,0.0,0.0,0.9949,1.1522,1.2489,1.2123,1.251,1.2787,1.2787,1.3009,1.318,1.3261,0.0,0.0,0.0,0.0,0.0,0.0,0.0,0.0,0.0,0.0,0.0,0.0,0.0,0.0,0.0,0.0,0.0,0.0,0.0,0.0,0.0,0.0,0.0,0.0,0.0,0.0,0.0,0.0,0.0,0.0,0.0,0.0,0.0,0.0,0.0,0.0,0.0,0.0,0.0,0.0,0.0,0.0,0.0,0.0,0.0,0.0,0.0,0.0,0.0,0.0,0.0,0.0,0.0,0.0,0.0,0.0,0.0,0.0,0.0,0.0,0.0,1.0731,0.0,0.0,0.0,0.0,0.0,0.0,0.0,0.0,0.0,0.0,0.0,0.0,0.0,0.0,0.0,0.0,0.0,0.0,0.0,0.0,0.0,0.0,0.0,0.0,0.0,0.0,0.0,0.0,0.0,0.0,0.0,0.0,0.0,0.0,0.0,0.0,0.0,0.0,0.0,0.0,1.1775,1.2715,1.3302,1.3302,1.3356,1.3403,1.3403,1.3349,1.3336,1.3397,1.3288,0.0,0.0,0.0,0.0,0.0,0.0,0.0,0.0,0.0,0.0,0.0,0.0,0.0,0.0,0.0,0.0,0.0,0.0,0.0,0.0,0.0,0.0,0.0,0.0,0.0,0.0,0.0,0.0,0.0,0.0,0.0,0.0,0.0,0.0,0.0,0.0,0.0,0.0,0.0,0.0,0.0,0.0,0.0,0.0,0.0,0.0,0.0,0.0,0.0,0.0,0.0,0.0,0.0,1.1186,1.1213,1.124,1.1271,1.1226,1.1117,1.1284,1.1121,1.0745,0.0,0.0,0.0,0.0,0.0,0.0,0.0,0.0,0.0,0.0,0.0,0.0,0.0,0.0,0.0,0.0,0.0,0.0,0.0,0.0,0.0,0.0,0.0,0.0,0.0,1.1221,1.1497,0.0,0.0,0.0,0.0,0.0,0.0,0.0,0.0,0.0,0.0,0.0,0.0,1.3217,1.3403,1.3403,1.3403,1.3403,1.3403,1.3403,1.3403,1.3403,1.3403,1.3403,1.3198,0.0,0.0,0.0,0.0,0.0,0.0,0.0,0.0,0.0,0.0,0.0,0.0,0.0,0.0,0.0,0.0,0.0,0.0,0.0,0.0,0.0,0.0,0.0,0.0,0.0,0.0,0.0,0.0,0.0,0.0,0.0,0.0,1.1046,1.0867,0.0,0.0,0.0,0.0,0.0,0.0,0.0,0.0,0.0,0.0,0.0,0.0,0.0,1.1166,1.1166,1.1012,1.0941,1.0948,1.1121,1.1268,1.1386,1.1608,1.1803,1.1936,1.1968,0.0,1.088,1.0802,0.0,0.0,0.0,0.0,0.0,0.0,0.0,0.0,0.0,0.0,0.0,0.0,0.0,0.0,0.0,0.0,0.0,0.0,0.0,0.0,0.0,0.0,1.1837,1.2071,1.2387,1.254,0.0,1.0886,0.9695,0.98,0.9946,0.0,0.0,0.0,0.0,0.0,0.0,0.0,1.3376,1.3403,1.3403,1.3403,1.3403,1.3403,1.3403,1.3403,1.3403,1.3403,1.3403,1.3369,1.3307,1.3355,0.0,0.0,0.0,0.0,0.0,0.0,0.0,0.0,0.0,0.0,0.0,0.0,0.0,0.0,0.0,0.0,0.0,0.0,0.0,0.0,0.0,0.0,0.0,0.0,0.0,0.0,0.0,0.0,0.0,1.0877,1.0972,1.0806,1.0951,1.1043,0.0,0.0,0.0,0.0,0.0,0.0,0.0,0.0,0.0,1.1182,1.1341,1.1457,1.1538,1.1558,1.1572,1.1572,1.1658,1.1737,1.1812,1.1923,1.2018,1.2098,1.2098,1.1896,1.1572,1.1504,1.1446,1.1408,0.0,0.0,0.0,0.0,1.1518,1.1558,1.1459,1.1408,0.0,1.1518,0.0,0.0,0.0,0.0,0.0,0.0,0.0,0.0,0.0,0.0,1.2387,1.2711,1.2833,1.2901,1.3091,1.2415,1.1796,0.0,1.1869,1.1978,1.2,0.0,0.0,0.0,0.0,0.0,1.3403,1.3403,1.3403,1.3403,1.3403,1.3403,1.3403,1.3403,1.3403,1.3403,1.3403,1.3403,1.3403,1.3396,1.3403,0.0,0.0,0.0,0.0,0.0,0.0,0.0,0.0,0.0,0.0,0.0,0.0,0.0,0.0,0.0,0.0,0.0,0.0,0.0,0.0,0.0,0.0,0.0,0.0,0.0,0.0,0.0,0.0,1.0911,1.1029,1.0897,1.1067,1.12,0.0,0.0,0.0,0.0,0.0,0.0,1.1137,1.1314,1.1447,1.1504,1.1653,1.1782,1.1872,1.2025,1.2118,1.2159,1.2159,1.22,1.2249,1.2249,1.2276,1.2329,1.2329,1.2329,1.2315,1.2099,1.1938,1.1807,1.1959,1.2045,1.2098,1.2098,1.2125,1.212,1.1986,1.1933,1.1933,1.1974,0.0,1.2008,1.2161,0.0,0.0,0.0,0.0,1.2379,1.2522,1.2651,1.2827,1.3016,1.3084,1.3125,1.3227,1.3248,1.322,0.0,1.318,1.3248,1.3248,0.0,0.0,0.0,0.0,1.3403,1.3403,1.3437,1.3458,1.3458,1.3471,1.3491,1.3491,1.3491,1.3498,1.3444,1.3458,1.3444,1.3403,1.3403,1.3389,1.3396,0.0,0.0,0.0,0.0,0.0,0.0,0.0,0.0,0.0,0.0,0.0,0.0,0.0,0.0,0.0,0.0,0.0,0.0,0.0,0.0,0.0,0.0,0.0,0.0,0.0,0.0,0.0,0.0,0.0,1.1375,1.1274,0.0,0.0,0.0,0.0,1.1534,1.1568,1.1629,1.1746,1.195,1.197,1.1798,1.1977,1.2077,1.2084,1.2098,1.2154,1.2296,1.2296,1.2427,1.2678,1.2678,1.2779,1.2955,1.2955,1.2955,1.2901,1.2123,1.18,1.1793,1.18,1.1932,1.2098,1.2098,1.2174,1.2296,1.229,1.2264,1.231,1.2427,1.2467,1.2467,1.2474,1.2481,0.0,0.0,1.2488,1.2528,1.2658,1.2834,1.3023,1.3166,1.3295,1.3383,1.339,1.339,1.339,0.0,1.3383,1.339,1.339,0.0,1.3403,1.3403,1.3403,1.3403,1.3403,1.3505,1.3593,1.3593,1.3693,1.3774,1.3774,1.3774,1.3742,1.3606,1.3593,1.3532,1.3403,1.3403,1.3403,1.3403,1.341,0.0,0.0,0.0,0.0,0.0,0.0,0.0,0.0,0.0,0.0,0.0,0.0,0.0,0.0,0.0,0.0,0.0,0.0,0.0,0.0,0.0,0.0,0.0,0.0,0.0,0.0,0.0,0.0,1.15,1.1554,0.0,1.1771,1.1606,1.1675,1.2148,1.1901,1.1885,1.2232,1.2242,1.2242,1.2245,1.2394,1.2561,1.2676,1.2676,1.271,1.2745,1.2745,1.2799,1.2901,1.2901,1.2928,1.3003,1.3003,1.3003,1.2982,1.269,1.2575,1.2575,1.2575,1.2609,1.2676,1.2676,1.2717,1.2745,1.2745,1.2745,1.2771,1.2799,1.282,1.282,1.282,1.282,1.282,1.282,1.2881,1.2969,1.3003,1.3152,1.3275,1.3329,1.3363,1.3403,1.3403,1.3403,1.3431,1.3511,1.3464,1.3403,1.3403,1.3464,1.3525,1.3525,1.3606,1.366,1.366,1.3708,1.372,1.372,1.3768,1.3795,1.3795,1.3795,1.3774,1.3727,1.372,1.3681,1.3532,1.3525,1.3478,1.3403,1.3389,1.3223,0.0,0.0,0.0,0.0,0.0,0.0,0.0,0.0,0.0,0.0,0.0,0.0,0.0,0.0,0.0,0.0,0.0,0.0,0.0,0.0,0.0,0.0,0.0,0.0,0.0,0.0,1.1777,1.1941,1.201,1.2111,1.2289,1.2169,1.2266,1.2668,1.2482,1.2494,1.2851,1.2936,1.2944,1.2866,1.2969,1.2993,1.3003,1.3003,1.3023,1.3071,1.3071,1.3078,1.3132,1.3132,1.3132,1.3132,1.3132,1.3132,1.3132,1.3132,1.3132,1.3125,1.3091,1.3071,1.3077,1.3112,1.3132,1.3132,1.3132,1.3132,1.3132,1.3132,1.3132,1.3132,1.3132,1.3132,1.3132,1.3132,1.32,1.3268,1.3268,1.3322,1.3403,1.3403,1.3437,1.3478,1.3478,1.3491,1.3559,1.366,1.3559,1.3471,1.3518,1.3613,1.3681,1.3681,1.3741,1.3795,1.3795,1.3864,1.3897,1.3897,1.3945,1.3972,1.3972,1.3972,1.3952,1.3897,1.3897,1.383,1.3666,1.3681,1.3633,1.3553,1.3484,1.3152,1.2501,0.0,0.0,0.0,0.0,0.0,0.0,0.0,0.0,0.0,0.0,0.0,0.0,0.0,0.0,0.0,0.0,0.0,0.0,0.0,0.0,0.0,0.0,0.0,1.2248,1.252,1.2701,1.2727,1.2635,1.2606,1.2746,1.2741,1.2851,1.3132,1.3303,1.3472,1.3635,1.4056,1.4076,1.3636,1.3636,1.3443,1.3036,1.3036,1.3084,1.32,1.32,1.3275,1.3403,1.3403,1.3403,1.3403,1.3403,1.3403,1.3403,1.3403,1.3403,1.339,1.3261,1.32,1.322,1.3349,1.3403,1.3403,1.3403,1.3403,1.3403,1.3403,1.3403,1.3403,1.3403,1.3403,1.3403,1.3403,1.341,1.341,1.341,1.3417,1.3417,1.3417,1.3505,1.3613,1.3613,1.37,1.3802,1.3808,1.37,1.3667,1.3774,1.3808,1.3815,1.3815,1.3822,0.0,1.3829,1.4,1.4117,1.4117,1.4224,1.4312,1.4312,1.4312,1.4251,1.4124,1.411,1.4014,1.3822,1.3808,1.3802,1.3795,1.3666,1.3237,1.2522,0.0,0.0,0.0,0.0,0.0,0.0,0.0,0.0,0.0,0.0,0.0,0.0,0.0,0.0,0.0,0.0,0.0,0.0,0.0,0.0,0.0,0.0,1.3713,1.3472,1.3007,1.2892,1.3428,1.3593,1.3704,1.3848,1.3862,1.4017,1.4391,1.3881,1.3845,1.4508,1.4159,1.4023,1.4246,1.4356,1.4197,1.3795,1.3795,1.3651,1.3356,1.3356,1.3363,1.3403,1.3403,1.3403,1.3403,1.3403,1.3403,1.3403,1.3403,1.3403,1.3397,1.3356,1.3356,1.3342,1.3383,1.3403,1.3403,1.3403,1.3403,1.3403,1.3403,1.3403,1.3403,1.3403,1.3403,1.3424,1.3511,1.3545,1.3572,1.3653,1.3701,1.3701,1.3701,1.3707,1.3741,1.3741,1.3768,1.3862,1.4129,1.4121,1.4033,1.3829,1.4006,1.4155,1.4155,1.4331,0.0,1.4451,1.4507,1.4534,1.4534,1.4568,1.4595,1.4595,1.4595,1.4575,1.4534,1.4426,1.4326,1.4177,1.4068,1.3953,1.3802,1.3483,1.3329,0.0,0.0,0.0,0.0,0.0,0.0,0.0,0.0,0.0,0.0,0.0,0.0,0.0,0.0,0.0,0.0,0.0,0.0,0.0,0.0,0.0,0.0,1.4515,1.45,1.4559,1.4026,1.3775,1.4216,1.4369,1.4461,1.454,1.4596,1.4723,1.4964,1.4602,1.4579,1.5085,1.471,1.4518,1.4579,1.4668,1.4514,1.4108,1.4338,1.4346,1.4075,1.4167,1.4196,1.4196,1.4196,1.4091,1.3902,1.3902,1.3776,1.3566,1.3566,1.3566,0.0,0.0,0.0,0.0,0.0,1.3478,1.3484,1.3545,1.3566,1.3566,1.3566,1.3566,1.3566,1.3566,1.3566,1.3579,1.3653,1.3673,1.3693,1.3774,1.3795,1.3815,1.3904,1.3965,1.4026,1.4087,1.4148,1.4228,1.4426,1.446,0.0,1.42,1.4344,1.446,1.446,1.4609,1.4694,1.4694,1.4694,1.4694,1.4694,1.4694,1.4694,1.4694,1.4694,0.0,0.0,0.0,1.4521,1.4394,1.4306,0.0,0.0,0.0,1.3632,1.3736,0.0,0.0,0.0,1.2247,1.1455,0.0,0.0,0.0,0.0,0.0,0.0,0.0,0.0,0.0,0.0,0.0,0.0,0.0,0.0,0.0,0.0,1.4951,1.4924,1.5493,1.5249,1.5021,1.5006,1.5021,1.5009,1.5009,1.513,1.5203,1.5203,1.5316,1.5422,1.5463,0.0,0.0,0.0,0.0,1.4696,1.431,1.4817,1.5059,1.4954,1.5153,1.5177,1.5135,1.5157,1.495,1.4536,1.4557,1.4307,1.387,1.387,1.387,1.3822,1.3545,1.3451,1.3464,1.3579,1.3612,1.3654,1.3754,0.0,0.0,1.3795,1.3795,1.3795,1.3795,1.3808,1.385,1.3842,1.3862,1.3876,1.3896,1.3896,1.3952,1.4137,1.4251,1.4387,1.4509,1.4636,1.4744,1.4741,1.4778,1.4775,1.4796,1.4791,1.4764,1.4764,1.4775,1.4796,1.4796,1.4796,1.4796,1.4796,0.0,0.0,1.4796,1.4796,1.4796,1.4796,1.4762,1.469,1.4521,1.4514,1.4414,1.4171,1.4151,1.4055,1.3876,1.3842,1.3822,1.3843,1.3578,1.2292,0.0,0.0,0.0,0.0,0.0,0.0,0.0,0.0,0.0,0.0,0.0,0.0,0.0,0.0,0.0,1.5411,1.5517,1.5651,1.5877,1.584,1.5743,1.5639,1.5711,1.5799,1.5799,1.5811,1.5835,1.5835,1.5551,1.5546,1.5883,1.5587,1.5588,1.5972,1.598,1.5863,1.5561,1.5676,1.5373,1.4678,0.0,0.0,1.4108,1.4254,1.4288,1.4208,1.431,1.4299,1.4189,1.4189,1.4189,1.4162,1.385,1.3714,1.3742,1.3747,1.3754,1.3761,1.3788,1.3795,1.3795,1.3795,1.3795,1.3795,1.3795,1.3904,0.0,1.4177,1.427,1.4385,1.4514,1.4518,1.4532,1.4581,1.4609,1.4642,1.467,1.4814,1.4957,1.5072,1.5194,1.5299,1.5421,1.5262,1.5099,1.5099,1.5286,1.5442,1.5442,1.5442,1.5442,1.5442,1.5442,1.5442,1.5442,1.5442,1.5442,1.5442,1.5211,1.4977,1.466,1.4654,1.4649,1.4588,1.4489,1.4414,1.4358,1.4143,1.4049,1.4042,1.3808,1.3471,0.0,0.0,0.0,0.0,0.0,0.0,0.0,0.0,0.0,0.0,0.0,1.5244,0.0,0.0,1.5536,1.5626,1.5796,1.5922,1.5991,1.6007,1.5975,1.5918,1.5971,1.6007,1.6007,1.6007,1.6007,1.6007,1.5914,1.5942,1.6128,1.5821,1.5782,1.61,1.61,1.6082,1.6041,1.6343,1.6321,1.6,1.6063,1.5961,1.5697,1.5565,1.5364,1.5142,1.4937,1.4725,1.45,1.45,1.45,1.448,1.4331,1.4175,1.406,1.4128,1.4155,1.4162,1.4221,1.4248,1.4248,1.4248,1.4248,1.4248,1.4248,1.4324,1.4399,1.4473,1.4548,1.4622,1.4674,1.4771,1.4875,1.492,1.4995,1.5076,1.515,1.5225,1.5323,1.5398,1.5448,1.5523,1.5604,1.5574,1.5517,1.5425,1.5516,1.5593,1.5593,1.5593,1.5593,1.5593,1.5593,1.5593,1.5593,1.5593,1.5593,1.5593,1.5469,1.5286,1.5062,1.5004,1.493,1.4855,1.4683,1.4602,1.4602,1.4475,1.4407,1.4407,1.4304,1.4086,0.0,0.0,0.0,0.0,0.0,0.0,0.0,0.0,1.5294,1.5468,1.5492,1.5492,1.5492,1.5658,1.5792,1.5792,1.5906,1.6007,1.6007,1.6007,1.6015,1.6047,1.6023,1.6007,1.6007,1.6031,1.6056,1.6056,1.6238,1.6357,1.6357,1.6188,1.6085,1.6138,1.6178,1.628,1.6475,1.6947,1.7224,1.7303,1.7417,1.743,1.7379,1.7031,1.6674,1.6338,1.5939,1.5469,1.5025,1.5025,1.4962,1.487,1.487,1.4744,1.4557,1.4534,1.4534,1.4548,1.4654,1.4694,1.4694,1.4694,1.4737,1.4764,1.4764,1.4775,1.4846,1.4846,1.4843,1.487,1.487,1.5004,1.5126,1.5242,1.5364,1.5462,1.5591,1.5638,1.5658,1.5658,1.5679,1.5699,1.5699,1.5818,1.5877,1.5679,1.5685,1.5699,1.5699,1.5699,1.5699,1.5699,1.5699,1.5699,1.5699,1.5699,1.5685,1.5658,1.5658,1.5591,1.5435,1.5337,1.5238,1.5129,1.4927,1.4832,1.4805,1.4778,1.4744,1.4694,1.4694,1.4437,1.5893,1.5114,1.5221,1.5205,1.5327,1.5468,0.0,0.0,1.5468,1.5492,1.5492,1.5492,1.5492,1.5658,1.5792,1.5792,1.5906,1.6007,1.6007,1.6007,1.6064,1.6259,1.6117,1.6007,1.6007,1.6165,1.6276,1.6276,1.6446,1.6573,1.6573,1.6658,1.6784,1.696,1.7143,1.7291,1.7438,1.7507,1.7343,1.6967,1.696,1.6841,1.6627,1.6701,1.6781,1.6907,1.6961,1.6709,1.6198,1.6198,1.5942,1.5492,1.5492,1.5472,1.5401,1.4856,1.469,1.4674,1.4687,1.4694,1.4694,1.4694,1.4812,1.4966,1.4966,1.5126,1.5313,1.5313,1.5408,1.5492,1.5492,1.553,1.5543,1.5563,1.5577,1.5566,1.5611,1.5737,1.5881,1.5881,1.5965,1.6029,1.6029,1.6067,1.6026,1.5901,1.5972,1.6029,1.6029,1.6029,1.6029,1.6029,1.6029,1.6029,1.6029,1.6029,1.5999,1.5863,1.5881,1.5788,1.5597,1.5546,1.5557,1.5543,1.5387,1.5269,1.5133,1.5027,1.4875,1.4694,1.4694,1.466,1.776,1.6137,0.0,0.0,1.561,1.5666,1.5666,1.5666,1.5699,1.5764,1.578,1.578,1.578,1.5865,1.5914,0.0,1.606,1.6174,1.6174,1.6292,1.6381,1.6454,1.6397,1.6357,1.6357,1.6422,1.6462,1.6462,1.673,1.6885,1.6885,1.7139,1.7303,1.739,1.7471,1.7672,1.7949,1.7949,1.7946,1.7945,1.7945,1.7891,1.7773,1.7559,1.7152,1.6644,1.6717,1.6432,1.5925,1.5925,1.5804,1.5593,1.5593,1.5593,1.556,1.5309,1.5215,1.5215,1.5215,1.5215,1.5215,1.5215,1.5279,1.5357,1.5357,1.5421,1.5523,1.5523,1.5563,1.5593,1.5593,1.5703,1.5764,1.5764,1.5832,1.5893,1.5893,1.5972,1.6013,1.6013,1.606,1.6108,1.6108,1.6108,1.6087,1.6019,1.6067,1.6108,1.6108,1.6108,1.6108,1.6108,1.6108,1.6108,1.6108,1.6108,1.608,1.6013,1.6013,1.5985,1.59,1.5811,1.5764,1.5764,1.5597,1.5489,1.5421,1.5391,1.5299,1.5215,1.5215,1.5215,1.8818,0.0,0.0,1.6469,1.6169,1.5865,1.5865,1.5865,1.5886,1.5975,1.6007,1.6023,1.6064,1.6072,1.6096,1.6165,1.63,1.6381,1.6381,1.6516,1.6622,1.6649,1.7182,1.7339,1.686,1.727,1.7322,1.6773,1.7558,1.8068,1.8068,1.7812,1.8207,1.9376,1.8937,1.915,2.0031,2.0063,1.9885,1.9551,1.9551,1.9273,1.8769,1.8479,1.7921,1.7193,1.7193,1.6804,1.6178,1.6178,1.6001,1.574,1.574,1.574,1.574,1.574,1.5685,1.5593,1.5593,1.5593,1.5593,1.5593,1.5645,1.5672,1.5672,1.5706,1.574,1.574,1.574,1.574,1.574,1.5839,1.5969,1.5969,1.6026,1.6108,1.6108,1.6108,1.6108,1.6108,1.6108,1.6108,1.6108,1.6108,1.6108,1.6108,1.6108,1.6108,1.6108,1.6108,1.6108,1.6108,1.6108,1.6108,1.6108,1.6108,1.6108,1.6108,1.6108,1.6108,1.6108,1.5999,1.5969,1.5969,1.5811,1.5712,1.5672,1.5672,1.5652,1.5593,1.5593,1.5593,0.0,0.0,1.791,1.8236,1.7156,1.5999,1.5999,1.5999,1.5999,1.5999,1.6007,1.6056,1.6247,1.6292,1.6357,1.6557,1.6589,1.6589,1.6589,1.6597,1.6649,1.6785,1.8625,1.9228,0.0,1.8901,1.9103,1.7227,1.9195,2.0478,2.0478,1.8843,1.9781,2.3873,2.236,2.2509,2.4685,2.4685,2.3682,2.1697,2.1697,2.0757,1.9004,1.9183,1.924,1.9215,1.9215,1.8598,1.7632,1.7632,1.7013,1.6094,1.6094,1.6094,1.6094,1.6094,1.5886,1.5593,1.5593,1.5593,1.5593,1.5593,1.5737,1.5894,1.5894,1.5972,1.6094,1.6094,1.6094,1.6094,1.6094,1.6094,1.6101,1.6101,1.6101,1.6108,1.6108,1.6108,1.6108,1.6108,1.6108,1.6108,1.6108,1.6108,1.6108,1.6108,1.6108,1.6108,1.6108,1.6108,1.6108,1.6108,1.6108,1.6108,1.6108,1.6108,1.6108,1.6108,1.6108,1.6108,1.6108,1.6101,1.6101,1.6101,1.6094,1.6019,1.5894,1.5894,1.5802,1.5593,1.5593,1.5593,0.0,0.0,2.0009,2.0197,1.9856,1.944,1.944,1.8554,1.7753,1.7897,1.6898,1.6056,1.6247,1.63,1.6324,1.6389,1.6579,1.6741,1.6741,1.6966,1.7633,1.8971,1.8694,0.0,0.0,0.0,0.0,1.7573,1.9473,2.083,2.105,2.185,2.3007,2.4599,2.2749,2.2817,2.5075,2.3728,2.2799,2.23,2.0922,1.9897,1.9191,1.9281,1.9108,1.8779,1.8779,1.8366,1.7697,1.7697,1.7268,1.6623,1.6623,1.6399,1.6108,1.6108,1.6015,1.5934,1.5934,1.5934,1.5934,1.5934,1.5992,1.6026,1.6026,1.6067,1.6108,1.6108,1.6108,1.6108,1.6108,1.6108,1.6108,1.6108,1.6108,1.6108,1.6108,1.6108,1.6108,1.6108,1.6108,1.6108,1.6108,1.6108,1.6108,1.6108,1.6108,1.6108,1.6108,1.6108,1.6108,1.6108,1.6108,1.6108,1.6108,1.6108,1.6108,1.6108,1.6108,1.6108,1.6108,1.6108,1.6108,1.6108,1.6108,1.608,1.6026,1.6026,1.6006,1.5934,1.5934,1.5934,0.0,2.2498,2.1893,2.2081,2.1752,2.1381,2.1381,2.0589,1.9891,2.002,1.8477,1.7152,1.7342,1.6781,1.6349,1.6457,1.7225,1.762,1.7088,1.7786,1.888,2.0245,2.0052,2.0368,0.0,0.0,0.0,1.9128,2.1543,2.331,2.3643,2.4289,2.5418,2.7099,2.5277,2.5358,2.7639,2.6344,2.5367,2.4726,2.2631,2.1589,2.152,2.152,2.0931,1.9897,1.9897,1.9166,1.7987,1.7987,1.7665,1.7194,1.7194,1.6871,1.6399,1.6399,1.6257,1.6108,1.6108,1.6108,1.6108,1.6108,1.6108,1.6108,1.6108,1.6108,1.6108,1.6108,1.6108,1.6108,1.6108,1.6108,1.6108,1.6108,1.6108,1.6108,1.6108,1.6108,1.6108,1.6108,1.6108,1.6108,1.6108,1.6108,1.6108,1.6108,1.6108,1.6108,1.6108,1.6108,1.6108,1.6108,1.6108,1.6108,1.6108,1.6108,1.6108,1.6108,1.6108,1.6108,1.6108,1.6108,1.6108,1.6108,1.6108,1.6108,1.6108,1.6108,1.6108,1.6108,1.6108,1.6108,2.3897,2.3594,2.364,2.3887,2.297,2.1978,2.1978,2.2112,2.2213,2.2109,2.0495,1.9098,0.0,0.0,1.6409,1.6736,1.8311,1.8994,1.7598,1.8982,2.0299,0.0,0.0,0.0,0.0,0.0,0.0,2.1951,0.0,2.7567,2.7903,2.622,2.7075,3.1122,2.9596,2.9799,3.208,3.1984,3.0804,2.856,2.6394,2.5354,2.5343,2.5222,2.4105,2.2246,2.2246,2.0833,1.8531,1.8531,1.821,1.7697,1.7697,1.7367,1.6864,1.6864,1.6548,1.6108,1.6108,1.6108,1.6108,1.6108,1.6108,1.6108,1.6108,1.6108,1.6108,1.6108,1.6108,1.6108,1.6108,1.6108,1.6108,1.6108,1.6108,1.6108,1.6108,1.6108,1.6108,1.6108,1.6108,1.6108,1.6108,1.6108,1.6108,1.6108,1.6108,1.6108,1.6108,1.6108,1.6108,1.6108,1.6108,1.6108,1.6108,1.6108,1.6108,1.6108,1.6108,1.6108,1.6108,1.6108,1.6108,1.6108,1.6108,1.6108,1.6108,1.6108,1.6108,1.6108,1.6108,1.6108,2.5439,2.5642,2.5941,2.6019,2.595,2.587,2.587,2.4923,2.3637,2.2245,2.0433,1.8687,0.0,0.0,0.0,1.6633,1.7396,0.0,1.7439,1.9258,0.0,0.0,0.0,2.4915,2.6443,2.729,0.0,0.0,2.7308,2.7892,2.8182,2.9323,3.0562,3.1816,2.9949,2.9939,3.208,3.0462,2.9297,2.8572,2.5026,2.3287,2.3141,2.1594,2.0595,2.0087,2.0087,1.9717,1.9108,1.9108,1.8539,1.7697,1.7697,1.7126,1.63,1.63,1.6232,1.6108,1.6108,1.6108,1.6108,1.6108,1.6108,1.6108,1.6108,1.6108,1.6108,1.6108,1.6108,1.6108,1.6108,1.6108,1.6108,1.6108,1.6108,1.6108,1.6108,1.6108,1.6108,1.6108,1.6108,1.6108,1.6108,1.6108,1.6108,1.6108,1.6108,1.6108,1.6108,1.6108,1.6108,1.6108,1.6108,1.6108,1.6108,1.6108,1.6108,1.6108,1.6108,1.6108,1.6108,1.6108,1.6108,1.6108,1.6108,1.6108,1.6108,1.6108,1.6108,1.6108,1.6108,1.6108,2.6326,2.6687,2.7014,2.7014,2.7262,2.7436,2.7336,2.663,2.5471,2.3515,2.1594,0.0,0.0,0.0,0.0,0.0,0.0,0.0,1.8849,2.0801,2.2994,0.0,2.5742,0.0,2.8875,2.9373,2.9688,0.0,2.9726,2.9688,2.9944,3.1327,3.2088,3.2104,3.111,3.1074,3.208,3.0873,2.9683,2.8584,2.7244,2.6069,2.5101,2.4858,2.375,2.2026,0.0,2.0989,1.9306,1.9306,1.896,1.8391,1.8391,1.7747,1.6804,1.6804,1.6505,1.6108,1.6108,1.6108,1.6108,1.6108,1.6108,1.6108,1.6108,1.6108,1.6108,1.6108,1.6108,1.6108,1.6108,1.6108,1.6108,1.6108,1.6108,1.6108,1.6108,1.6108,1.6108,1.6108,1.6162,1.6185,1.6185,1.6232,1.6273,1.6273,1.6273,1.6273,1.6273,1.6164,1.6108,1.6108,1.6108,1.6108,1.6108,1.6108,1.6108,1.6108,1.6108,1.6108,1.6108,1.6108,1.6108,1.6108,1.6108,1.6108,1.6108,1.6108,1.6108,1.6108,1.6108,1.6108,2.678,2.7094,2.7342,2.7342,2.7556,2.7682,2.7429,2.7542,2.7051,2.4778,0.0,2.1557,2.1074,1.8447,1.6939,1.8794,0.0,2.0211,2.0775,2.2942,2.5193,2.7228,2.7979,2.9102,3.1085,3.1557,3.1874,3.2144,3.1955,3.1901,3.2091,3.2433,3.246,3.2118,3.2382,3.2393,3.2051,3.2051,3.1042,2.9027,3.0557,3.033,2.8656,3.0187,2.8907,2.5488,2.5198,2.3043,1.9701,1.9404,1.9256,1.9182,1.9182,1.8589,1.7697,1.7623,1.6995,1.6207,1.6133,1.6108,1.6108,1.6108,1.6108,1.6108,1.6108,1.6108,1.6108,1.6108,1.6108,1.6108,1.6108,1.6108,1.6108,1.6108,1.6108,1.6114,1.611,1.6155,1.6137,1.6137,1.6246,1.6341,1.6341,1.6417,1.6498,1.6498,1.6498,1.6498,1.6498,1.63,1.6137,1.6137,1.6137,1.6137,1.6137,1.6137,1.6155,1.6135,1.6135,1.6128,1.6108,1.6108,1.6108,1.6108,1.6108,1.6108,1.6108,1.6108,1.6108,1.6108,1.6108,1.6108,2.7128,2.7422,2.7629,2.7629,2.7863,2.8031,2.7696,2.7669,0.0,0.0,0.0,2.0796,1.7785,1.6864,1.6756,1.7391,0.0,0.0,0.0,0.0,2.7067,0.0,0.0,0.0,0.0,0.0,0.0,0.0,0.0,3.2329,3.2118,3.2433,3.246,3.2118,3.2158,3.2038,3.1767,3.1767,3.1574,3.1165,2.9805,2.8955,2.8536,2.7179,2.619,2.5391,2.3677,0.0,2.1732,2.0013,1.9034,1.863,1.863,1.8259,1.7647,1.7194,1.6921,1.6697,1.625,1.6108,1.6108,1.6108,1.6108,1.6108,1.6108,1.6108,1.6108,1.6108,1.6108,1.6108,1.6108,1.6108,1.6108,1.6108,1.6108,1.6142,1.6246,1.6336,1.6417,1.6417,1.6444,1.6457,1.6457,1.6478,1.6498,1.6498,1.6498,1.6498,1.6498,1.6451,1.6417,1.6417,1.6417,1.6417,1.6417,1.6417,1.6369,1.6279,1.6273,1.6212,1.6114,1.6108,1.6108,1.6108,1.6108,1.6108,1.6108,1.6108,1.6108,1.6108,1.6108,1.6108,2.7436,2.773,2.7965,2.7965,2.8072,2.8093,2.7596,0.0,0.0,0.0,0.0,2.0817,1.8283,1.8007,0.0,1.9902,2.1176,2.2583,2.4242,0.0,0.0,0.0,0.0,0.0,0.0,0.0,0.0,0.0,0.0,3.2688,3.2369,3.2342,3.2276,3.2104,3.1957,3.1834,3.1687,3.1687,3.1165,3.0091,3.0163,2.9661,2.8584,2.868,2.8152,2.7058,2.6069,0.0,2.2319,2.1324,2.0162,1.9013,1.9013,1.8594,1.7926,1.7667,1.7189,1.666,1.6407,1.6313,1.6313,1.6313,1.6205,1.6108,1.6108,1.6108,1.6108,1.6108,1.6137,1.6198,1.6198,1.6252,1.6313,1.6313,1.6313,1.6334,1.6376,1.6451,1.6498,1.6498,1.6559,1.6588,1.6588,1.6681,1.6761,1.6761,1.6761,1.6761,1.6761,1.6761,1.67,1.6512,1.6498,1.6498,1.6498,1.6498,1.6464,1.6397,1.6397,1.6388,1.6313,1.6313,1.6313,1.6313,1.6239,1.6198,1.6198,1.6123,1.6108,1.6108,1.6108,1.6108,2.7716,2.8005,2.82,2.82,2.82,2.8031,2.7443,2.7329,0.0,0.0,0.0,2.0983,1.9044,0.0,1.9605,0.0,2.2286,2.368,2.642,2.7432,2.8786,0.0,0.0,0.0,0.0,0.0,0.0,0.0,0.0,0.0,3.2489,3.2195,3.2011,3.2011,3.1808,3.1687,3.1687,3.1687,3.089,2.929,3.0914,3.0843,2.9314,3.1003,3.0886,2.9329,2.8946,0.0,0.0,2.2722,2.1366,1.9573,1.9573,1.9149,1.8513,1.8284,1.7621,1.683,1.6575,1.6498,1.6498,1.6498,1.6368,1.6203,1.6203,1.6203,1.6203,1.6203,1.6259,1.6329,1.6329,1.641,1.6498,1.6498,1.6518,1.6546,1.6546,1.6573,1.6619,1.6619,1.6688,1.675,1.675,1.6904,1.7004,1.7004,1.7004,1.7004,1.7004,1.7004,1.689,1.6646,1.6619,1.6619,1.6619,1.6619,1.6579,1.6546,1.6546,1.6532,1.6498,1.6498,1.6498,1.6498,1.6415,1.6329,1.6329,1.6232,1.6203,1.6203,1.6203,1.6203,2.7991,2.8186,2.82,2.82,2.82,2.8031,2.7443,0.0,0.0,0.0,0.0,2.0866,1.7626,0.0,0.0,0.0,0.0,2.1813,2.4555,2.6654,2.8923,3.1702,0.0,0.0,0.0,0.0,0.0,0.0,0.0,0.0,3.2144,3.1888,3.1727,3.1727,3.1701,3.1687,3.1687,3.1687,3.1592,3.1426,3.1616,3.1592,3.1439,3.1872,3.1968,3.168,3.0031,0.0,0.0,2.3802,2.1747,1.976,1.976,1.9725,1.953,1.8564,1.8131,1.7902,1.6856,1.6498,1.6498,1.6498,1.6478,1.6457,1.6457,1.6457,1.6457,1.6457,1.6464,1.6478,1.6478,1.6485,1.6498,1.6498,1.66,1.6675,1.6675,1.6836,1.6937,1.6937,1.6951,1.6958,1.6958,1.6998,1.7004,1.7004,1.7004,1.7004,1.7004,1.7004,1.6998,1.697,1.6937,1.6937,1.6937,1.6937,1.6876,1.6682,1.6675,1.664,1.6498,1.6498,1.6498,1.6498,1.6485,1.6478,1.6478,1.6464,1.6457,1.6457,1.6457,1.6457,2.8039,2.82,2.82,2.82,2.82,2.8072,2.7636,0.0,0.0,0.0,2.1105,2.0038,1.888,1.8665,1.9174,2.0708,2.269,0.0,2.6098,2.8231,3.0197,3.1686,3.2182,0.0,0.0,0.0,0.0,0.0,0.0,0.0,3.1861,3.1754,3.1687,3.1687,3.1687,3.1687,3.1687,3.1687,3.1781,3.1931,3.1931,3.2048,3.2198,3.0981,3.041,3.0301,2.8237,0.0,0.0,2.3309,2.1788,1.998,1.998,1.984,1.9567,1.9127,1.8558,1.7885,1.7444,1.7081,1.6795,1.6795,1.6795,1.6761,1.6552,1.6498,1.6498,1.6498,1.6559,1.6634,1.6634,1.6701,1.6795,1.6795,1.6842,1.689,1.689,1.6937,1.7004,1.7004,1.7004,1.7004,1.7004,1.7004,1.7004,1.7004,1.7004,1.7004,1.7004,1.7004,1.7004,1.7004,1.7004,1.7004,1.7004,1.7004,1.6977,1.689,1.689,1.6863,1.6802,1.6795,1.6795,1.6795,1.6681,1.6634,1.6634,1.6539,1.6498,1.6498,1.6498,1.6498,2.7765,2.8112,2.82,2.82,2.82,2.8112,0.0,0.0,0.0,2.2606,2.0776,1.9445,1.9137,1.9077,1.9624,2.1279,2.3278,2.4844,2.5491,2.8112,3.0158,3.0754,0.0,0.0,0.0,0.0,0.0,0.0,0.0,0.0,3.1687,3.1687,3.1687,3.1687,3.1687,3.1727,3.1821,3.1821,3.1968,3.2262,3.2262,3.2369,3.2545,3.1068,3.0033,2.9341,2.7883,0.0,0.0,2.3121,2.1949,2.0167,2.0167,1.9981,1.9728,1.9571,1.8989,1.8282,1.8099,1.7784,1.747,1.747,1.7372,1.7199,1.6953,1.6756,1.6659,1.6659,1.6708,1.6789,1.6789,1.6897,1.7004,1.7004,1.7004,1.7004,1.7004,1.7004,1.7004,1.7004,1.7004,1.7004,1.7004,1.7004,1.7004,1.7004,1.7004,1.7004,1.7004,1.7004,1.7004,1.7004,1.7004,1.7004,1.7004,1.7004,1.7004,1.7004,1.7004,1.7004,1.7004,1.7004,1.7004,1.7004,1.685,1.6789,1.6789,1.6681,1.6659,1.6659,1.6659,1.6659,2.716,2.7965,2.82,2.82,2.82,2.8112,0.0,0.0,0.0,2.2638,2.0961,1.933,1.7477,1.7134,1.7191,1.7423,1.9267,2.0829,2.1304,2.516,2.8133,0.0,0.0,3.2249,0.0,0.0,0.0,0.0,0.0,0.0,3.1687,3.1687,3.1687,3.1687,3.1687,3.1834,3.2091,3.2104,3.2276,3.2594,3.2594,3.2594,3.2607,3.2839,3.1771,2.9717,0.0,0.0,0.0,2.358,2.2296,2.0294,2.0294,2.0294,2.0242,1.9702,1.9493,1.9414,1.8798,1.8589,1.8589,1.8589,1.8222,1.7784,1.7777,1.7417,1.7004,1.7004,1.7004,1.7004,1.7004,1.7004,1.7004,1.7004,1.7004,1.7004,1.7004,1.7004,1.7004,1.7004,1.7004,1.7004,1.7004,1.7004,1.7004,1.7004,1.7004,1.7004,1.7004,1.7004,1.7004,1.7004,1.7004,1.7004,1.7004,1.7004,1.7004,1.7004,1.7004,1.7004,1.7004,1.7004,1.7004,1.7004,1.7004,1.7004,1.7004,1.7004,1.7004,1.7004,1.7004,1.7004,2.4285,2.4823,2.5803,2.5803,2.5008,2.4526,2.5598,0.0,0.0,2.0773,1.9228,1.8575,2.0493,1.8794,1.8039,2.0892,2.0919,2.1212,2.2915,0.0,0.0,3.0529,3.1754,3.2382,0.0,0.0,0.0,0.0,0.0,0.0,3.1687,3.1687,3.1687,3.1687,3.1888,3.2011,3.2104,3.2329,3.2594,3.2864,3.2864,3.2971,3.3083,3.1716,3.0687,0.0,0.0,0.0,2.3606,2.3606,2.2305,2.0294,2.0294,2.0294,2.0268,2.0111,1.9798,1.9467,1.9276,1.8962,1.8589,1.8589,1.8484,1.8353,1.8353,1.7732,1.7004,1.7004,1.7004,1.7004,1.7004,1.7004,1.7004,1.7004,1.7004,1.7004,1.7004,1.7004,1.7004,1.7004,1.7004,1.7004,1.7004,1.7004,1.7004,1.7004,1.7004,1.7045,1.7114,1.7154,1.7154,1.7154,1.7154,1.7113,1.7018,1.7004,1.7004,1.7004,1.7004,1.7004,1.7004,1.7004,1.7004,1.7004,1.7004,1.7004,1.7004,1.7004,1.7004,1.7004,1.7004,1.7004,0.0,2.3299,2.4563,2.3973,2.3107,0.0,0.0,0.0,0.0,1.9895,1.841,1.7805,2.0103,0.0,0.0,0.0,2.0801,2.1216,0.0,0.0,0.0,3.1556,0.0,0.0,0.0,0.0,0.0,0.0,0.0,0.0,3.1687,3.1794,3.1861,3.1861,3.2011,3.2211,3.2425,3.2637,3.2877,3.3146,3.3146,3.324,3.3364,3.2007,3.0974,0.0,0.0,2.6414,0.0,2.3606,2.2305,2.0294,2.0294,2.0294,2.0294,2.0294,2.0085,1.9798,1.9798,1.9563,1.9242,1.9242,1.9085,1.8858,1.8432,1.7968,1.7549,1.7372,1.7293,1.7267,1.7057,1.7004,1.7004,1.7004,1.7004,1.7004,1.7004,1.7004,1.7025,1.7079,1.7086,1.708,1.7134,1.7148,1.7148,1.7148,1.7148,1.7175,1.727,1.7277,1.7277,1.7277,1.7277,1.7243,1.7154,1.7072,1.7004,1.7004,1.7004,1.7004,1.7004,1.7004,1.7004,1.7004,1.7004,1.7004,1.7004,1.7004,1.7004,1.7004,1.7004,1.7004,0.0,0.0,0.0,0.0,0.0,0.0,0.0,0.0,0.0,0.0,0.0,0.0,0.0,0.0,0.0,0.0,0.0,0.0,0.0,2.5881,0.0,0.0,0.0,0.0,0.0,0.0,0.0,0.0,0.0,0.0,3.1727,3.1957,3.2118,3.2158,3.2158,3.2425,3.2998,3.3024,3.3146,3.3414,3.3414,3.3414,3.3414,3.3414,3.2322,0.0,0.0,2.7932,2.3839,2.3839,2.2426,2.0294,2.0294,2.0294,2.0294,2.0294,2.0294,2.0294,2.0294,2.0294,2.0294,2.0294,1.9955,1.9362,1.8308,1.8249,1.8432,1.7942,1.7758,1.7627,1.7188,1.7031,1.7011,1.7018,1.7025,1.7025,1.7038,1.7038,1.7079,1.7182,1.7209,1.7256,1.7372,1.7392,1.7392,1.7392,1.7392,1.7399,1.7406,1.7412,1.7412,1.7412,1.7412,1.7406,1.7392,1.7168,1.7038,1.7038,1.7038,1.7038,1.7038,1.7038,1.7038,1.7038,1.7032,1.7018,1.7004,1.7004,1.7004,1.7004,1.7004,1.7004,0.0,0.0,0.0,0.0,0.0,0.0,0.0,0.0,0.0,0.0,0.0,0.0,0.0,0.0,0.0,0.0,0.0,0.0,2.3895,0.0,0.0,0.0,0.0,0.0,0.0,0.0,0.0,0.0,0.0,3.1794,3.1984,3.2064,3.2305,3.2759,3.2797,3.2864,3.2998,3.32,3.3347,3.3414,3.3414,3.3414,3.3414,3.3414,3.3138,0.0,3.2648,3.0166,2.6107,2.6107,2.3829,2.0294,2.0294,2.0294,2.0294,2.0294,2.0294,2.0294,2.0294,2.0294,2.0294,2.0294,2.0216,2.0059,1.9798,1.891,1.7968,1.7837,1.7496,1.7241,1.7556,1.7319,1.7038,1.714,1.7141,1.7175,1.729,1.7317,1.7324,1.7358,1.7338,1.7351,1.7385,1.7392,1.7392,1.7392,1.7392,1.7433,1.7555,1.7541,1.7541,1.7541,1.7541,1.7521,1.7406,1.7331,1.7317,1.7317,1.7317,1.7317,1.7317,1.7317,1.7317,1.7317,1.7202,1.7087,1.7004,1.7004,1.7004,1.7004,1.7004,1.7004,1.7501,1.7944,1.8825,0.0,0.0,0.0,0.0,0.0,0.0,0.0,0.0,0.0,0.0,0.0,0.0,0.0,0.0,0.0,0.0,0.0,0.0,0.0,0.0,0.0,0.0,0.0,0.0,0.0,0.0,3.1955,3.2091,3.2358,3.2652,3.2998,3.3106,3.3173,3.3173,3.3334,3.3414,3.3414,3.3414,3.3414,3.3414,3.3414,3.3414,0.0,3.3414,3.1491,2.8328,2.7309,2.4885,2.1708,2.0703,2.0294,2.0294,2.0294,2.0294,2.0294,2.0294,2.0294,2.0294,2.0294,2.0351,2.0389,2.0153,1.9472,1.871,1.8292,1.8018,1.7819,1.7601,1.7339,1.7202,1.7277,1.7297,1.7317,1.7379,1.7392,1.7412,1.7487,1.75,1.7521,1.7609,1.7623,1.7623,1.7623,1.7623,1.765,1.7738,1.7731,1.7731,1.7731,1.7731,1.7717,1.7629,1.7623,1.7568,1.7406,1.7392,1.7392,1.7392,1.7392,1.7392,1.7392,1.7338,1.7256,1.7182,1.7182,1.7182,1.7182,1.7182,1.7182,1.7799,1.838,1.8316,1.7264,0.0,0.0,0.0,0.0,0.0,0.0,0.0,0.0,0.0,0.0,0.0,0.0,0.0,0.0,0.0,0.0,0.0,0.0,0.0,0.0,0.0,0.0,0.0,3.1687,3.1944,3.2118,3.2171,3.2703,3.3024,3.3064,3.328,3.3414,3.3414,3.3414,3.3414,3.3414,3.3414,3.3414,3.3414,3.3414,3.3414,3.3414,0.0,0.0,3.0052,2.8175,2.5902,2.3409,2.1526,2.0623,2.0361,2.0361,2.0377,2.0401,2.0401,2.0401,2.0401,2.0401,2.0507,2.0557,2.0099,2.0042,1.9937,1.9061,1.8873,1.8719,1.7735,1.7592,1.7641,1.748,1.7507,1.7541,1.748,1.7487,1.75,1.7622,1.7656,1.769,1.7874,1.7888,1.7888,1.7888,1.7888,1.7888,1.7888,1.7888,1.7888,1.7888,1.7888,1.7888,1.7888,1.7888,1.7786,1.7473,1.7487,1.7487,1.7487,1.7487,1.7453,1.7426,1.7426,1.7419,1.7392,1.7392,1.7392,1.7392,1.7392,1.7392,1.6328,1.6755,1.7395,1.8524,0.0,0.0,0.0,0.0,0.0,0.0,0.0,0.0,0.0,0.0,0.0,0.0,0.0,0.0,0.0,0.0,0.0,0.0,0.0,3.1741,3.1701,3.1687,3.1687,3.1687,3.1944,3.2211,3.2514,3.2824,3.3093,3.3334,3.3387,3.3414,3.3414,3.3414,3.3414,3.3414,3.3414,3.3414,3.3414,3.3414,3.3414,3.3414,0.0,3.2183,3.0179,2.9824,2.7294,2.3564,2.3228,2.2047,2.0556,2.0556,2.0671,2.0802,2.0802,2.0802,2.0802,2.0802,2.0818,2.0842,2.0762,2.0752,2.0626,1.9963,1.9482,1.9096,1.8862,1.8877,1.8686,1.7799,1.7963,1.8243,1.7896,1.782,1.784,1.7854,1.7854,1.7874,1.7888,1.7888,1.7888,1.7888,1.7888,1.7888,1.7888,1.7888,1.7888,1.7888,1.7888,1.7888,1.7888,1.7888,1.7874,1.782,1.782,1.782,1.782,1.782,1.7738,1.7561,1.7561,1.7521,1.7392,1.7392,1.7392,1.7392,1.7392,1.7392,1.6141,1.6417,1.7181,0.0,0.0,0.0,0.0,0.0,0.0,0.0,0.0,0.0,0.0,0.0,0.0,0.0,0.0,0.0,0.0,0.0,0.0,0.0,0.0,3.1687,3.1687,3.1687,3.1754,3.1915,3.2195,3.2489,3.2784,3.3078,3.328,3.3414,3.3414,3.3414,3.3414,3.3414,3.3414,3.3414,3.3414,3.3414,3.3414,3.3414,3.3414,3.3414,0.0,3.2941,3.2099,3.0905,2.8598,2.5625,2.446,2.2671,2.0761,2.0761,2.081,2.091,2.091,2.091,2.091,2.091,2.0948,2.1002,2.1002,2.1067,2.1113,2.0842,2.0263,1.9672,1.9356,1.9334,1.9287,1.8794,1.8883,1.9042,1.886,1.8557,1.8329,1.8329,1.8088,1.7888,1.7888,1.7888,1.7888,1.7888,1.7888,1.7888,1.7888,1.7888,1.7888,1.7888,1.7888,1.7888,1.7888,1.7888,1.7888,1.7888,1.7888,1.7888,1.7888,1.7888,1.7854,1.7772,1.7758,1.7738,1.767,1.767,1.767,1.767,1.767,1.767,1.6259,1.647,1.7078,0.0,0.0,0.0,0.0,0.0,0.0,0.0,0.0,0.0,0.0,0.0,0.0,0.0,0.0,0.0,0.0,0.0,0.0,0.0,0.0,0.0,3.1687,3.1687,3.1808,3.2078,3.2409,3.2728,3.2984,3.3253,3.3414,3.3414,3.3414,3.3414,3.3414,3.3414,3.3414,3.3414,3.3414,3.3414,3.3414,3.3414,3.3414,3.3389,3.3494,3.3654,3.3768,3.2124,2.9955,2.7428,2.5744,2.3382,2.0948,2.0989,2.1032,2.1032,2.1032,2.1032,2.1032,2.1032,2.1102,2.1162,2.1162,2.1278,2.1411,2.1411,2.0959,2.0346,1.9793,1.9829,1.9955,1.966,1.9715,1.9778,1.9632,1.9254,1.8903,1.8903,1.8467,1.8088,1.8088,1.7977,1.7888,1.7888,1.7888,1.7888,1.7888,1.7888,1.7888,1.7888,1.7888,1.7888,1.7888,1.7888,1.7888,1.7888,1.7888,1.7888,1.7888,1.7888,1.7888,1.7888,1.7888,1.7888,1.7888,1.7888,1.7888,1.7888,1.7888,1.7888,1.6259,1.6539,1.6877,1.7217,0.0,0.0,0.0,0.0,0.0,0.0,0.0,0.0,0.0,0.0,0.0,0.0,0.0,0.0,0.0,0.0,0.0,0.0,0.0,3.1687,3.1687,3.1687,3.1808,3.2078,3.2409,3.2728,3.2984,3.3253,3.3414,3.3414,3.3414,3.3414,3.3414,3.3414,3.3414,3.3414,3.3414,3.3414,3.3414,3.3414,3.3414,3.3427,3.3721,3.3893,3.3908,3.3996,3.1483,2.7585,2.7428,2.4796,2.1097,2.1306,2.1371,2.1371,2.1371,2.1371,2.1371,2.1371,2.136,2.1387,2.1387,2.1384,2.1411,2.1411,2.1357,2.1184,2.0572,2.0835,2.1,1.9873,2.0038,2.0278,1.9715,1.9577,1.955,1.955,1.9054,1.864,1.864,1.8233,1.7888,1.7888,1.7888,1.7888,1.7888,1.7888,1.7888,1.7888,1.7888,1.7888,1.7888,1.7888,1.7888,1.7888,1.7888,1.7888,1.7888,1.7888,1.7888,1.7888,1.7888,1.7888,1.7888,1.7888,1.7888,1.7888,1.7888,1.7888,1.6397,1.7537,0.0,0.0,0.0,0.0,0.0,0.0,0.0,0.0,0.0,0.0,0.0,0.0,0.0,0.0,0.0,0.0,0.0,0.0,0.0,0.0,3.1687,3.1687,3.1687,3.1861,3.2088,3.2382,3.2677,3.2971,3.3227,3.3347,3.3414,3.3414,3.3414,3.3414,3.3414,3.3414,3.3414,3.3414,3.3414,3.3414,3.3414,3.3414,3.3521,3.3721,3.3841,3.4121,3.4365,3.2979,3.071,2.776,2.4877,2.2726,2.1295,2.136,2.1411,2.1411,2.1411,2.1411,2.1411,2.1411,2.1411,2.1411,2.1411,2.1411,2.1411,2.1411,2.1411,2.1357,2.1118,2.1239,2.1315,2.0977,2.1084,2.1167,2.0966,2.0613,2.0306,2.0178,1.966,1.9136,1.8757,1.853,1.8288,1.795,1.7888,1.7888,1.7888,1.7888,1.7888,1.7888,1.7888,1.7888,1.7888,1.7888,1.7888,1.7888,1.7888,1.7888,1.7888,1.7888,1.7888,1.7888,1.7888,1.7888,1.7888,1.7888,1.7888,1.7888,1.7888,1.7888,1.7188,1.8099,0.0,0.0,0.0,0.0,0.0,0.0,0.0,0.0,0.0,0.0,0.0,0.0,0.0,0.0,0.0,0.0,3.2144,3.2024,3.1915,3.1714,3.1687,3.1687,3.1687,3.1931,3.2249,3.2567,3.2837,3.3131,3.34,3.3414,3.3414,3.3414,3.3414,3.3414,3.3414,3.3414,3.3414,3.3414,3.3414,3.3414,3.3389,3.3507,3.3681,3.3895,3.4107,3.4415,3.4581,3.2353,2.9759,2.6823,2.2928,2.1411,2.1411,2.1411,2.1411,2.1411,2.1411,2.1411,2.1411,2.1411,2.1411,2.1411,2.1411,2.1411,2.1408,2.1476,2.1493,2.149,2.1558,2.1542,2.1542,2.1729,2.1729,2.1688,2.1688,2.1322,2.0938,2.0812,2.0305,1.975,1.9337,1.8936,1.8585,1.8205,1.8005,1.7888,1.7888,1.7888,1.7888,1.7888,1.7888,1.7888,1.7888,1.7888,1.7888,1.7888,1.7888,1.7888,1.7888,1.7888,1.7888,1.7888,1.7888,1.7888,1.7888,1.7888,1.7888,1.7888,1.7888,1.7888,1.8685,1.801,0.0,0.0,0.0,0.0,0.0,0.0,0.0,0.0,0.0,0.0,0.0,0.0,0.0,0.0,0.0,0.0,3.2144,3.1874,3.1687,3.1687,3.1687,3.1687,3.1687,3.1955,3.2249,3.2567,3.2837,3.3106,3.34,3.3414,3.3414,3.3414,3.3414,3.3414,3.3414,3.3414,3.3414,3.3414,3.3414,3.3414,3.3427,3.3748,3.3895,3.3921,3.4535,3.4763,3.4516,3.246,2.8914,2.4527,2.2288,2.1411,2.1411,2.1411,2.1411,2.1411,2.1411,2.1411,2.1411,2.1411,2.1411,2.1411,2.1411,2.1411,2.1425,2.1651,2.1688,2.1729,2.1868,2.179,2.1729,2.1868,2.179,2.1688,2.1688,2.1542,2.1411,2.1411,2.0917,2.0505,2.0505,1.9515,1.8702,1.8702,1.826,1.7915,1.7888,1.7888,1.7888,1.7888,1.7888,1.7888,1.7888,1.7888,1.7888,1.7888,1.7888,1.7888,1.7888,1.7888,1.7888,1.7888,1.7888,1.7888,1.7888,1.7888,1.7888,1.7888,1.7888,1.7888,1.718,0.0,0.0,0.0,0.0,0.0,0.0,0.0,0.0,0.0,0.0,0.0,0.0,0.0,0.0,0.0,0.0,0.0,3.1861,3.1741,3.1687,3.1687,3.1687,3.1687,3.1687,3.2166,3.25,3.2581,3.3024,3.332,3.3414,3.3414,3.3414,3.3414,3.3414,3.3414,3.3414,3.3414,3.3414,3.3414,3.3414,3.3534,3.3748,3.3841,3.4134,3.4535,3.4709,3.3967,3.2301,2.8436,2.5089,2.2343,2.165,2.1411,2.1411,2.1411,2.1411,2.1411,2.1411,2.1411,2.1411,2.1411,2.1411,2.1411,2.1411,2.1501,2.1582,2.1517,2.1582,2.1712,2.1753,2.1729,2.1729,2.1868,2.179,2.1688,2.1688,2.1647,2.1558,2.1436,2.1266,2.1,2.0568,2.0211,1.9687,1.884,1.8557,1.8329,1.795,1.7888,1.7888,1.7888,1.7888,1.7888,1.7888,1.7888,1.7888,1.7888,1.7888,1.7888,1.7888,1.7888,1.7888,1.7888,1.7888,1.7888,1.7888,1.7888,1.7888,1.7888,1.7888,1.7888,1.7823,0.0,0.0,0.0,0.0,0.0,0.0,0.0,0.0,0.0,0.0,0.0,0.0,0.0,0.0,0.0,0.0,0.0,3.1727,3.1687,3.1687,3.1687,3.1687,3.1741,3.1861,3.2313,3.2648,3.2755,3.3146,3.3414,3.3414,3.3414,3.3414,3.3414,3.3414,3.3414,3.3414,3.3414,3.3414,3.3414,3.3414,3.3641,3.4055,3.4055,3.4348,3.4802,3.4909,3.3202,3.0132,2.7336,2.431,2.1411,2.1411,2.1411,2.1411,2.1411,2.1411,2.1411,2.1411,2.1411,2.1411,2.1411,2.1411,2.1411,2.1411,2.1465,2.1558,2.1542,2.1607,2.1712,2.1777,2.1753,2.1729,2.1868,2.179,2.1688,2.1688,2.1651,2.1542,2.1436,2.1411,2.1266,2.0917,2.0651,2.0246,1.9515,1.9026,1.8585,1.826,1.8033,1.7888,1.7888,1.7888,1.7888,1.7888,1.7888,1.7888,1.7888,1.7888,1.7888,1.7888,1.7888,1.7888,1.7888,1.7888,1.7888,1.7888,1.7888,1.7888,1.7888,1.7888,1.7888,0.0,0.0,0.0,0.0,0.0,0.0,0.0,0.0,0.0,0.0,0.0,0.0,0.0,0.0,0.0,0.0,3.2276,3.1971,3.1727,3.1687,3.1687,3.1687,3.1687,3.1808,3.2078,3.2396,3.2714,3.2984,3.3253,3.3414,3.3414,3.3414,3.3414,3.3414,3.3414,3.3414,3.3414,3.3414,3.3414,3.3414,3.3414,3.3734,3.4296,3.4296,3.4496,3.4843,3.4873,3.2398,2.8269,2.8064,2.5387,2.1411,2.1411,2.1411,2.1411,2.1411,2.1411,2.1411,2.1411,2.1411,2.1411,2.1411,2.1411,2.1411,2.1411,2.1408,2.1449,2.1623,2.1699,2.1729,2.1819,2.1766,2.1712,2.1819,2.1766,2.1664,2.1664,2.1542,2.1411,2.1411,2.1411,2.1411,2.1411,2.0945,2.0541,2.0423,1.9432,1.8668,1.864,1.8205,1.7888,1.7888,1.7888,1.7888,1.7888,1.7888,1.7888,1.7888,1.7888,1.7888,1.7888,1.7888,1.7888,1.7888,1.7888,1.7888,1.7888,1.7888,1.7888,1.7888,1.7888,1.7888,0.0,2.2866,0.0,0.0,0.0,0.0,0.0,0.0,0.0,0.0,0.0,0.0,0.0,0.0,3.2594,3.2276,3.1981,3.1767,3.1701,3.1687,3.1687,3.1687,3.1687,3.1808,3.2078,3.2396,3.2714,3.2984,3.3253,3.3414,3.3414,3.3414,3.3414,3.3414,3.3414,3.3414,3.3414,3.3414,3.3414,3.3414,3.3414,3.3734,3.4296,3.4296,3.4603,3.4992,3.3222,3.0881,2.8172,2.6309,2.3901,2.1411,2.1411,2.1411,2.1411,2.1411,2.1411,2.1411,2.1411,2.1411,2.1411,2.1411,2.1411,2.1411,2.1411,2.1517,2.1607,2.1501,2.1582,2.1664,2.153,2.1493,2.1476,2.149,2.1493,2.1449,2.1449,2.1436,2.1411,2.1411,2.1411,2.1411,2.1411,2.1294,2.089,1.9928,1.9164,1.8557,1.8115,1.7977,1.7888,1.7888,1.7888,1.7888,1.7888,1.7888,1.7888,1.7888,1.7888,1.7888,1.7888,1.7888,1.7888,1.7888,1.7888,1.7888,1.7888,1.7888,1.7888,1.7888,1.7888,1.7888,0.0,0.0,0.0,2.7933,0.0,0.0,0.0,0.0,0.0,0.0,0.0,0.0,3.2594,3.2594,3.25,3.2144,3.1874,3.1687,3.1687,3.1687,3.1687,3.1687,3.1821,3.2021,3.2316,3.261,3.2904,3.316,3.332,3.3414,3.3414,3.3414,3.3414,3.3414,3.3414,3.3414,3.3414,3.3414,3.3414,3.3414,3.3414,3.3734,3.431,3.4616,3.491,3.5138,3.3896,3.2066,2.9746,2.7434,2.5125,2.2928,2.1823,2.1411,2.1411,2.1411,2.1411,2.1411,2.1411,2.1411,2.1411,2.1411,2.1411,2.1411,2.1411,2.1476,2.1542,2.1436,2.1476,2.1542,2.1436,2.1411,2.1411,2.1411,2.1411,2.1411,2.1411,2.1411,2.1411,2.1411,2.1411,2.1411,2.1411,2.1411,2.1184,2.0568,1.9955,1.935,1.8791,1.8467,1.8178,1.7922,1.7888,1.7888,1.7888,1.7888,1.7888,1.7888,1.7888,1.7888,1.7888,1.7888,1.7888,1.7888,1.7888,1.7888,1.7888,1.7888,1.7888,1.7888,1.7888,1.7888,0.0,0.0,2.735,2.9453,2.9181,0.0,3.0502,3.134,3.1901,3.242,3.2514,3.2541,3.2581,3.2554,3.242,3.2078,3.1848,3.1687,3.1687,3.1687,3.1714,3.1767,3.1957,3.2238,3.2634,3.2864,3.3118,3.3387,3.3414,3.3414,3.3414,3.3414,3.3414,3.3414,3.3414,3.3414,3.3414,3.3414,3.3414,3.3414,3.3521,3.3803,3.431,3.4923,3.5191,3.5191,3.5191,3.387,3.1521,2.9236,2.6931,2.4582,2.2288,2.1411,2.1411,2.1411,2.1411,2.1411,2.1411,2.1411,2.1411,2.1411,2.1411,2.1411,2.1411,2.1411,2.1411,2.1411,2.1411,2.1411,2.1411,2.1411,2.1411,2.1411,2.1411,2.1411,2.1411,2.1411,2.1411,2.1411,2.1411,2.1411,2.1411,2.1411,2.1357,2.1266,2.0827,2.0278,1.9687,1.9081,1.853,1.8088,1.795,1.7888,1.7888,1.7888,1.7888,1.7888,1.7888,1.7888,1.7888,1.7888,1.7888,1.7888,1.7888,1.7888,1.7888,1.7888,1.7888,1.7888,1.7888,1.7888,0.0,0.0,2.9278,0.0,3.0358,3.0548,0.0,0.0,3.2064,0.0,3.2158,3.2262,3.2541,3.2356,3.2088,3.1794,3.1714,3.1687,3.1687,3.1687,3.1781,3.2011,3.2078,3.2318,3.2891,3.2984,3.3118,3.3387,3.3414,3.3414,3.3414,3.3414,3.3414,3.3414,3.3414,3.3414,3.3414,3.3414,3.3414,3.3414,3.3923,3.4216,3.431,3.4923,3.5191,3.5191,3.5191,3.387,3.1521,2.9236,2.6931,2.4582,2.2288,2.1411,2.1411,2.1411,2.1411,2.1411,2.1411,2.1411,2.1411,2.1411,2.1411,2.1411,2.1411,2.1411,2.1411,2.1411,2.1411,2.1411,2.1411,2.1411,2.1411,2.1411,2.1411,2.1411,2.1411,2.1411,2.1411,2.1411,2.1411,2.1411,2.1411,2.1411,2.1211,2.0705,2.0541,2.0278,1.9687,1.9081,1.8668,1.8612,1.8178,1.7888,1.7888,1.7888,1.7888,1.7888,1.7888,1.7888,1.7888,1.7888,1.7888,1.7888,1.7888,1.7888,1.7888,1.7888,1.7888,1.7888,1.7888,1.7888,2.2657,2.6357,2.9642,0.0,3.0604,3.0862,3.1132,3.1557,3.1928,3.2064,3.1971,3.1968,3.2262,3.2185,3.2011,3.1741,3.1687,3.1687,3.1687,3.1687,3.1808,3.2064,3.2276,3.2543,3.2957,3.3158,3.328,3.34,3.3414,3.3414,3.3414,3.3414,3.3414,3.3414,3.3414,3.3414,3.3414,3.3414,3.3414,3.3414,3.4003,3.4296,3.431,3.4923,3.5191,3.5191,3.5191,3.4597,3.3472,3.1148,2.8834,2.6525,2.4201,2.2526,2.1411,2.1411,2.1411,2.1411,2.1411,2.1411,2.1411,2.1411,2.1411,2.1411,2.1411,2.1411,2.1411,2.1411,2.1411,2.1411,2.1411,2.1411,2.1411,2.1411,2.1411,2.1411,2.1411,2.1411,2.1411,2.1411,2.1411,2.1411,2.1411,2.1411,2.1302,2.1035,2.1,2.08,2.0183,1.9873,1.9577,1.9254,1.8702,1.8357,1.8357,1.806,1.7888,1.7888,1.7888,1.7888,1.7888,1.7888,1.7888,1.7888,1.7888,1.7888,1.7888,1.7888,1.7888,1.7888,1.7888,1.7888,0.0,0.0,2.9526,3.0239,3.0604,3.0889,0.0,0.0,3.1848,0.0,3.1877,3.1848,3.1971,3.1998,3.1917,3.1727,3.1687,3.1687,3.1687,3.1687,3.1821,3.2195,3.246,3.2741,3.3078,3.328,3.3414,3.3414,3.3414,3.3414,3.3414,3.3414,3.3414,3.3414,3.3414,3.3414,3.3414,3.3414,3.3414,3.3414,3.3923,3.4216,3.431,3.4857,3.5124,3.5191,3.5191,3.5191,3.5006,3.2651,3.0373,2.8064,2.5713,2.3401,2.1411,2.1411,2.1411,2.1411,2.1411,2.1411,2.1411,2.1411,2.1411,2.1411,2.1411,2.1411,2.1411,2.1411,2.1411,2.1411,2.1411,2.1411,2.1411,2.1411,2.1411,2.1411,2.1411,2.1411,2.1411,2.1411,2.1411,2.1411,2.1411,2.1411,2.1411,2.1411,2.1411,2.1239,2.08,2.0596,2.0333,1.9873,1.9282,1.8868,1.8702,1.8329,1.806,1.7915,1.7888,1.7888,1.7888,1.7888,1.7888,1.7888,1.7888,1.7888,1.7888,1.7888,1.7888,1.7888,1.7888,1.7888,0.0,2.7319,2.925,3.0163,3.0604,3.0942,0.0,0.0,3.2011,3.1767,3.1904,3.1998,3.1767,3.1714,3.1714,3.1701,3.1687,3.1687,3.1687,3.1687,3.1925,3.25,3.2581,3.2822,3.3334,3.3375,3.3414,3.3414,3.3414,3.3414,3.3414,3.3414,3.3414,3.3414,3.3414,3.3414,3.3414,3.3414,3.3414,3.3389,3.3748,3.4055,3.431,3.4669,3.4963,3.5191,3.5191,3.5191,3.5006,3.2651,3.0373,2.8064,2.5713,2.3401,2.1411,2.1411,2.1411,2.1411,2.1411,2.1411,2.1411,2.1411,2.1411,2.1411,2.1411,2.1411,2.1411,2.1411,2.1411,2.1411,2.1411,2.1411,2.1411,2.1411,2.1411,2.1411,2.1411,2.1411,2.1411,2.1411,2.1411,2.1411,2.1411,2.1411,2.1411,2.1411,2.1411,2.1384,2.1357,2.0862,2.0478,2.045,1.99,1.9309,1.8757,1.8668,1.844,1.7922,1.7888,1.7888,1.7888,1.7888,1.7888,1.7888,1.7888,1.7888,1.7888,1.7888,1.7888,1.7888,1.7888,1.7888,0.0,2.7232,2.8956,2.986,3.0323,3.0684,3.1249,3.161,3.1821,3.1714,3.1781,3.1821,3.1714,3.1687,3.1687,3.1687,3.1687,3.1687,3.1687,3.1687,3.1915,3.2527,3.2594,3.2822,3.336,3.3414,3.3414,3.3414,3.3414,3.3414,3.3414,3.3414,3.3414,3.3414,3.3414,3.3414,3.3414,3.3414,3.3414,3.3389,3.3734,3.4042,3.431,3.4655,3.495,3.5191,3.5191,3.5191,3.5138,3.428,3.2571,3.04,2.9558,2.7838,2.5821,2.5821,2.4871,2.3574,2.3574,2.2608,2.1411,2.1411,2.1411,2.1411,2.1411,2.1411,2.1411,2.1411,2.1411,2.1411,2.1411,2.1411,2.1411,2.1411,2.1411,2.1411,2.1411,2.1411,2.1411,2.1411,2.1411,2.1411,2.1411,2.1411,2.1411,2.1411,2.1411,2.1411,2.1411,2.1211,2.109,2.109,2.0541,1.9928,1.9337,1.893,1.8474,1.7922,1.7888,1.7888,1.7888,1.7888,1.7888,1.7888,1.7888,1.7888,1.7888,1.7888,1.7888,1.7888,1.7888,1.7888,2.5784,0.0,0.0,2.9579,2.9993,3.0394,3.1052,3.1383,3.1567,3.1674,3.1687,3.1687,3.1687,3.1687,3.1687,3.1687,3.1687,3.1687,3.1687,3.1781,3.2021,3.2541,3.2688,3.2904,3.336,3.3414,3.3414,3.3414,3.3414,3.3414,3.3414,3.3414,3.3414,3.3414,3.3414,3.3414,3.3414,3.3414,3.3414,3.3389,3.3627,3.3881,3.4189,3.4482,3.4802,3.5083,3.5151,3.5191,3.5191,3.5191,3.3817,3.1681,3.1681,3.032,2.8199,2.7417,2.6146,2.469,2.3928,2.2663,2.1411,2.1411,2.1411,2.1411,2.1411,2.1411,2.1411,2.1411,2.1411,2.1411,2.1411,2.1411,2.1411,2.1411,2.1411,2.1411,2.1411,2.1411,2.1411,2.1411,2.1411,2.1411,2.1411,2.1411,2.1411,2.1411,2.1411,2.1411,2.1411,2.1411,2.1411,2.1411,2.1035,2.0568,1.9955,1.9337,1.8757,1.8205,1.8005,1.7888,1.7888,1.7888,1.7888,1.7888,1.7888,1.7888,1.7888,1.7888,1.7888,1.7888,1.7888,1.7888,0.0,0.0,0.0,0.0,2.97,3.0118,3.0986,3.1186,3.1279,3.162,3.1687,3.1687,3.1687,3.1687,3.1687,3.1687,3.1687,3.1687,3.1687,3.1917,3.2211,3.2554,3.2848,3.3118,3.3387,3.3414,3.3414,3.3414,3.3414,3.3414,3.3414,3.3414,3.3414,3.3414,3.3414,3.3414,3.3414,3.3414,3.3414,3.3414,3.3414,3.3574,3.3895,3.4175,3.4469,3.4789,3.5057,3.5177,3.5191,3.5191,3.387,3.18,3.18,3.0453,2.8215,2.5875,2.4962,2.4582,2.2288,2.1466,2.1411,2.1411,2.1411,2.1411,2.1411,2.1411,2.1411,2.1411,2.1411,2.1411,2.1411,2.1411,2.1411,2.1411,2.1411,2.1411,2.1411,2.1411,2.1411,2.1411,2.1411,2.1411,2.1411,2.1411,2.1411,2.1411,2.1411,2.1411,2.1411,2.1411,2.1411,2.1411,2.1411,2.1145,2.0541,1.9955,1.9364,1.873,1.8233,1.795,1.7888,1.7922,1.7922,1.7888,1.7888,1.7888,1.7888,1.7888,1.7888,1.7888,1.7888,1.7888,2.7575,0.0,0.0,0.0,0.0,0.0,3.0524,3.0929,3.1226,3.1306,3.154,3.1687,3.1687,3.1687,3.1687,3.1687,3.1687,3.1687,3.1687,3.1917,3.2211,3.2554,3.2848,3.3118,3.3387,3.3414,3.3414,3.3414,3.3414,3.3414,3.3414,3.3414,3.3414,3.3414,3.3414,3.3414,3.3414,3.3414,3.3414,3.3414,3.3414,3.3574,3.3895,3.3975,3.4162,3.4456,3.4776,3.4909,3.4923,3.511,3.4821,3.4227,3.4227,3.3843,3.3009,3.0667,2.8753,2.7012,2.4663,2.2791,2.1411,2.1411,2.1411,2.1411,2.1411,2.1411,2.1411,2.1411,2.1411,2.1411,2.1411,2.1411,2.1411,2.1411,2.1411,2.1411,2.1411,2.1411,2.1411,2.1411,2.1411,2.1411,2.1411,2.1411,2.1411,2.1411,2.1411,2.1411,2.1411,2.1411,2.1411,2.1411,2.1411,2.1145,2.0541,2.034,1.9805,1.8757,1.8964,1.8764,1.7922,1.826,1.8288,1.7915,1.7888,1.7888,1.7888,1.7888,1.7888,1.7888,1.7888,1.7888,0.0,0.0,0.0,0.0,0.0,0.0,3.0444,3.0808,3.1092,3.1356,3.1567,3.1687,3.1687,3.1687,3.1687,3.1687,3.1687,3.1687,3.1687,3.1917,3.2211,3.2554,3.2848,3.3118,3.3387,3.3414,3.3414,3.3414,3.3414,3.3414,3.3414,3.3414,3.3414,3.3414,3.3414,3.3414,3.3414,3.3414,3.3414,3.3414,3.3414,3.3507,3.3694,3.3853,3.3975,3.4148,3.4456,3.4669,3.4802,3.4976,3.5084,3.5191,3.5191,3.5191,3.4927,3.2571,3.0266,2.7956,2.5604,2.331,2.1411,2.1411,2.1411,2.1411,2.1411,2.1411,2.1411,2.1411,2.1411,2.1411,2.1411,2.1411,2.1411,2.1411,2.1411,2.1411,2.1411,2.1411,2.1411,2.1411,2.1411,2.1411,2.1411,2.1411,2.1411,2.1411,2.1411,2.1411,2.1411,2.1411,2.1411,2.1411,2.1411,2.1266,2.0917,2.0651,2.0211,1.9487,1.955,1.9309,1.864,1.8668,1.8668,1.8612,1.815,1.7888,1.7888,1.7888,1.7888,1.7888,1.7888,1.7888,0.0,0.0,0.0,0.0,0.0,0.0,3.0515,3.0742,3.0942,3.1487,3.1647,3.1687,3.1687,3.1687,3.1687,3.1687,3.1687,3.1687,3.1687,3.1917,3.2211,3.2554,3.2848,3.3118,3.3387,3.3414,3.3414,3.3414,3.3414,3.3414,3.3414,3.3414,3.3414,3.3414,3.3414,3.3414,3.3414,3.3414,3.3414,3.3414,3.3414,3.3414,3.3427,3.3708,3.3841,3.3855,3.4175,3.4469,3.4749,3.4816,3.499,3.5191,3.5191,3.5191,3.4927,3.2571,3.0427,2.835,2.6011,2.3692,2.1795,2.1795,2.1623,2.1411,2.1411,2.1411,2.1411,2.1411,2.1411,2.1411,2.1411,2.1411,2.1411,2.1411,2.1411,2.1411,2.1411,2.1411,2.1411,2.1411,2.1411,2.1411,2.1411,2.1411,2.1411,2.1411,2.1411,2.1411,2.1411,2.1411,2.1411,2.1411,2.1411,2.1411,2.1411,2.0917,2.0568,2.0505,2.0073,1.975,1.9605,1.9136,1.9109,1.9605,1.853,1.795,1.7888,1.7888,1.7888,1.7888,1.7888,1.7888,0.0,0.0,0.0,0.0,0.0,0.0,3.0047,3.0448,3.0822,3.0942,3.1366,3.1687,3.1687,3.1687,3.1687,3.1687,3.1687,3.1687,3.1687,3.1917,3.2211,3.2554,3.2848,3.3118,3.3387,3.3414,3.3414,3.3414,3.3414,3.3414,3.3414,3.3414,3.3414,3.3414,3.3414,3.3414,3.3414,3.3414,3.3414,3.3414,3.3414,3.3414,3.3389,3.348,3.3507,3.3534,3.4056,3.4323,3.4442,3.491,3.5151,3.5191,3.5191,3.5191,3.4927,3.2571,3.1415,3.0721,2.8403,2.6092,2.4155,2.4155,2.29,2.1411,2.1411,2.1411,2.1411,2.1411,2.1411,2.1411,2.1411,2.1411,2.1411,2.1411,2.1411,2.1411,2.1411,2.1411,2.1411,2.1411,2.1411,2.1411,2.1411,2.1411,2.1411,2.1411,2.1411,2.1411,2.1411,2.1411,2.1411,2.1411,2.1411,2.1411,2.1411,2.1294,2.1027,2.0533,2.0862,2.0623,1.9632,1.9955,1.9983,1.9605,1.8909,1.8329,1.7888,1.7888,1.7888,1.7888,1.7888,1.7888,0.0,0.0,0.0,2.97,0.0,0.0,0.0,3.0497,3.0835,3.0982,3.1356,3.1687,3.1687,3.1687,3.1687,3.1687,3.1687,3.1687,3.1687,3.1821,3.2075,3.2541,3.2728,3.2957,3.3374,3.3414,3.3414,3.3414,3.3414,3.3414,3.3414,3.3414,3.3414,3.3414,3.3414,3.3414,3.3414,3.3414,3.3414,3.3414,3.3414,3.3414,3.3414,3.3414,3.3494,3.3668,3.3975,3.4269,3.4563,3.4883,3.5097,3.5191,3.5191,3.5191,3.5059,3.387,3.2704,3.1521,3.04,2.8484,2.6552,2.6552,2.498,2.31,2.31,2.2288,2.1411,2.1411,2.1411,2.1411,2.1411,2.1411,2.1411,2.1411,2.1411,2.1411,2.1411,2.1411,2.1411,2.1411,2.1411,2.1411,2.1411,2.1411,2.1411,2.1411,2.1411,2.1411,2.1411,2.1411,2.1411,2.1411,2.1411,2.1411,2.1411,2.1411,2.1266,2.0972,2.1239,2.1118,2.0505,2.0505,2.0211,1.9605,1.9605,1.9315,1.8757,1.844,1.815,1.7888,1.7888,1.7888,0.0,0.0,0.0,0.0,0.0,2.998,0.0,0.0,0.0,3.1066,3.1423,3.1687,3.1687,3.1687,3.166,3.154,3.162,3.1647,3.154,3.162,3.1888,3.2447,3.2567,3.2795,3.328,3.3334,3.3347,3.3414,3.336,3.336,3.3414,3.3414,3.3414,3.3414,3.3414,3.3414,3.3414,3.3414,3.3414,3.3414,3.3414,3.3414,3.3414,3.3414,3.3587,3.3895,3.3948,3.4294,3.4789,3.4856,3.5003,3.5191,3.5191,3.5191,3.5191,3.5191,3.4002,3.2359,3.2359,3.0881,2.8952,2.8952,2.7066,2.4718,2.4282,2.2873,2.1411,2.1411,2.1411,2.1411,2.1411,2.1411,2.1411,2.1411,2.1411,2.1411,2.1411,2.1411,2.1411,2.1411,2.1411,2.1411,2.1411,2.1411,2.1411,2.1411,2.1411,2.1411,2.1411,2.1411,2.1411,2.1411,2.1411,2.1411,2.1411,2.1411,2.1411,2.1411,2.1411,2.1411,2.1411,2.0917,2.0395,1.9805,2.0246,2.0211,1.9605,1.9109,1.8585,1.806,1.795,1.7888,0.0,0.0,0.0,0.0,2.9891,0.0,0.0,0.0,3.0808,3.0835,0.0,3.1687,0.0,0.0,0.0,3.1005,3.1353,3.1513,3.0992,3.1366,3.1808,3.2118,3.2409,3.2728,3.3024,3.3051,3.3133,3.3362,3.3173,3.3146,3.34,3.3414,3.3414,3.3414,3.3414,3.3414,3.3414,3.3414,3.3414,3.3414,3.3414,3.3414,3.3414,3.3414,3.3587,3.3895,3.4162,3.4456,3.4816,3.507,3.5164,3.5191,3.5191,3.5191,3.5191,3.5191,3.5032,3.4795,3.4795,3.3274,3.1308,3.1308,2.835,2.4418,2.2408,2.1623,2.1411,2.1411,2.1411,2.1411,2.1411,2.1411,2.1411,2.1411,2.1411,2.1411,2.1411,2.1411,2.1411,2.1411,2.1411,2.1411,2.1411,2.1411,2.1411,2.1411,2.1411,2.1411,2.1411,2.1411,2.1411,2.1411,2.1411,2.1411,2.1411,2.1411,2.1411,2.1411,2.1411,2.1411,2.1411,2.1329,2.1,2.0423,2.0478,2.0211,1.9605,1.9515,1.9192,1.8612,1.8115,1.7888,0.0,0.0,0.0,0.0,0.0,0.0,0.0,0.0,3.1026,0.0,0.0,0.0,0.0,0.0,0.0,0.0,3.1527,3.1607,3.1366,3.154,3.1808,3.2064,3.2211,3.2489,3.2957,3.2998,3.3118,3.3387,3.3146,3.3131,3.34,3.3414,3.3414,3.3414,3.3414,3.3414,3.3414,3.3414,3.3414,3.3414,3.3414,3.3414,3.3414,3.3601,3.3855,3.4148,3.4417,3.471,3.5043,3.5151,3.5191,3.5191,3.5191,3.5191,3.5191,3.5191,3.5191,3.5191,3.5191,3.457,3.3525,3.2146,3.04,2.8107,2.4473,2.3365,2.31,2.176,2.1411,2.1411,2.1411,2.1411,2.1411,2.1411,2.1411,2.1411,2.1411,2.1411,2.1411,2.1411,2.1411,2.1411,2.1411,2.1411,2.1411,2.1411,2.1411,2.1411,2.1411,2.1411,2.1411,2.1411,2.1411,2.1411,2.1411,2.1411,2.1411,2.1411,2.1411,2.1411,2.1411,2.1411,2.1266,2.1035,2.1027,2.089,2.0651,2.0278,1.9983,1.9715,1.8813,1.8205,3.0234,0.0,0.0,0.0,0.0,0.0,0.0,0.0,0.0,0.0,0.0,0.0,0.0,0.0,0.0,0.0,0.0,3.1634,3.1473,3.1594,3.1767,3.1957,3.2051,3.2305,3.2837,3.281,3.2893,3.3267,3.3051,3.3051,3.3362,3.3414,3.3414,3.3414,3.3414,3.3414,3.3414,3.3414,3.3414,3.3414,3.3414,3.3414,3.3427,3.3748,3.4042,3.431,3.4604,3.4897,3.5191,3.5191,3.5191,3.5191,3.5191,3.5191,3.5191,3.5191,3.5191,3.5191,3.5191,3.5191,3.4821,3.2465,3.1681,3.0854,2.6201,2.4799,2.431,2.2025,2.1411,2.1411,2.1411,2.1411,2.1411,2.1411,2.1411,2.1411,2.1411,2.1411,2.1411,2.1411,2.1411,2.1411,2.1411,2.1411,2.1411,2.1411,2.1411,2.1411,2.1411,2.1411,2.1411,2.1411,2.1411,2.1411,2.1411,2.1411,2.1411,2.1411,2.1411,2.1411,2.1411,2.1411,2.1411,2.1411,2.1411,2.1411,2.1411,2.0972,2.0651,2.0478,1.9254,1.8502,0.0,0.0,0.0,3.0768,0.0,0.0,0.0,0.0,3.1199,0.0,0.0,0.0,0.0,0.0,0.0,0.0,0.0,0.0,0.0,0.0,0.0,0.0,0.0,3.2249,3.2581,3.2316,3.2372,3.2971,3.2768,3.2837,3.3387,3.3414,3.3414,3.3414,3.3414,3.3414,3.3414,3.3414,3.3414,3.3414,3.3414,3.3414,3.3427,3.3748,3.4042,3.431,3.4655,3.495,3.5191,3.5191,3.5191,3.5191,3.5191,3.5191,3.5191,3.5191,3.5191,3.5191,3.5191,3.5191,3.4821,3.2465,3.1681,3.0854,2.6201,2.4799,2.431,2.2025,2.1411,2.1411,2.1411,2.1411,2.1411,2.1411,2.1411,2.1411,2.1411,2.1411,2.1411,2.1411,2.1411,2.1411,2.1411,2.1411,2.1411,2.1411,2.1411,2.1411,2.1411,2.1411,2.1411,2.1411,2.1411,2.1411,2.1411,2.1411,2.1411,2.1411,2.1411,2.1411,2.1411,2.1411,2.1411,2.1411,2.1411,2.1411,2.1411,2.1384,2.1063,2.0478,1.9254,1.8702,0.0,0.0,3.1012,3.0835,0.0,0.0,0.0,0.0,0.0,0.0,0.0,0.0,0.0,0.0,0.0,0.0,0.0,0.0,0.0,0.0,0.0,0.0,0.0,0.0,0.0,3.2369,3.2583,3.2971,3.2917,3.3024,3.3387,3.3414,3.3414,3.3414,3.3414,3.3414,3.3414,3.3414,3.3414,3.3414,3.3414,3.3521,3.3734,3.4042,3.4336,3.4655,3.495,3.5137,3.5191,3.5191,3.5191,3.5191,3.5191,3.5191,3.5191,3.5191,3.5191,3.5191,3.5191,3.5191,3.5059,3.428,3.4002,3.3446,3.0308,2.8296,2.6634,2.431,2.2554,2.1411,2.1411,2.1411,2.1411,2.1411,2.1411,2.1411,2.1411,2.1411,2.1411,2.1411,2.1411,2.1411,2.1411,2.1411,2.1411,2.1411,2.1411,2.1411,2.1411,2.1411,2.1411,2.1411,2.1411,2.1411,2.1411,2.1411,2.1411,2.1411,2.1411,2.1411,2.1411,2.1411,2.1411,2.1411,2.1411,2.1411,2.1411,2.1411,2.1294,2.109,2.0273,1.9687,3.1126,3.1236,0.0,3.1156,3.1406,0.0,3.1423,0.0,0.0,0.0,0.0,0.0,0.0,0.0,0.0,0.0,0.0,0.0,0.0,3.1687,0.0,0.0,0.0,0.0,0.0,3.2209,3.2447,3.2824,3.285,3.2971,3.324,3.336,3.3414,3.3414,3.3414,3.3414,3.3414,3.3414,3.3414,3.3414,3.3414,3.3574,3.3895,3.4189,3.4482,3.4802,3.507,3.5191,3.5191,3.5191,3.5191,3.5191,3.5191,3.5191,3.5191,3.5191,3.5191,3.5191,3.5191,3.5191,3.5191,3.5191,3.5191,3.4768,3.2412,3.0667,2.9044,2.6806,2.4465,2.2636,2.2759,2.2092,2.1411,2.1411,2.1411,2.1411,2.1411,2.1411,2.1411,2.1411,2.1411,2.1411,2.1411,2.1411,2.1411,2.1411,2.1411,2.1411,2.1411,2.1411,2.1411,2.1411,2.1411,2.1411,2.1411,2.1411,2.1411,2.1411,2.1411,2.1411,2.1411,2.1411,2.136,2.1295,2.136,2.136,2.1295,2.136,2.1411,2.1384,2.1,2.0623]}]]